[[{"header":{"parameterUnit":"m.s-1","parameterCategory":1,"la1":30.6,"la2":29.2853,"lo1":-89.7004,"lo2":-87.6739,"dy":0.0162,"dx":0.0183,"nx":112,"ny":82,"refTime":"2024-10-06T18:00:00:Z","depth":0,"parameterNumber":2,"parameterNumberName":"U-component_of_WINDS"},"data":[0.0,0.0,0.0,0.0,0.0,0.0,0.0,0.0,0.0,0.0,0.0,0.0,0.0,0.0,0.0,0.0,0.0,0.0,0.0,0.0,0.0,0.0,0.0,0.0,0.0,0.0,0.0,0.0,0.0,0.0,0.0,0.0,0.0,0.0,0.0,0.0,0.0,0.0,0.0,0.0,0.0,0.0,0.0,0.0,0.0,0.0,0.0,0.0,0.0,0.0,0.0,0.0,0.0,0.0,0.0,0.0,0.0,0.0,0.0,0.0,0.0,0.0,0.0,0.0,0.0,0.0,0.0,0.0,0.0,0.0,0.0,0.0,0.0,0.0,0.0,0.0,0.0,0.0,0.0,0.0,0.0,0.0,0.0,0.0,0.0,0.0,0.0,0.0,0.0,0.0,0.0,0.0918,-0.1484,-0.3044,-0.2891,-0.4758,-0.5447,-0.4205,0.0,0.0,0.0,0.0,0.0,0.0,0.0,0.0,0.0,0.0,0.0,0.0,0.0,0.0,0.0,0.0,0.0,0.0,0.0,0.0,0.0,0.0,0.0,0.0,0.0,0.0,0.0,0.0,0.0,0.0,0.0,0.0,0.0,0.0,0.0,0.0,0.0,0.0,0.0,0.0,0.0,0.0,0.0,0.0,0.0,0.0,0.0,0.0,0.0,0.0,0.0,0.0,0.0,0.0,0.0,0.0,0.0,0.0,0.0,0.0,0.0,0.0,0.0,0.0,0.0,0.0,0.0,0.0,0.0,0.0,0.0,0.0,0.0,0.0,0.0,0.0,0.0,0.0,0.0,0.0,0.0,0.0,0.0,0.0,0.0,0.0,0.0,0.0,0.0,0.0,0.0,0.0,0.0,0.0,0.0,0.0,0.0,0.0,0.0,0.0,0.0,0.0,0.0,0.0,0.0725,0.022,-0.18,-0.2774,-0.1918,-0.4273,-0.5268,-0.3928,0.0,0.0,0.0,0.0,0.0,0.0,0.0,0.0,0.0,0.0,0.0,0.0,0.0,0.0,0.0,0.0,0.0,0.0,0.0,0.0,0.0,0.0,0.0,0.0,0.0,0.0,0.0,0.0,0.0,0.0,0.0,0.0,0.0,0.0,0.0,0.0,0.0,0.0,0.0,0.0,0.0,0.0,0.0,0.0,0.0,0.0,0.0,0.0,0.0,0.0,0.0,0.0,0.0,0.0,0.0,0.0,0.0,0.0,0.0,0.0,0.0,0.0,0.0,0.0,0.0,0.0,0.0,0.0,0.0,0.0,0.0,0.0,0.0,0.0,0.0,0.0,0.0,0.0,0.0,0.0,0.0,0.0,0.0,0.0,0.0,0.0,0.0,0.0,0.0,0.0,0.0,0.0,0.0,0.0,0.0,0.0,0.0,0.0,0.0,0.0,0.0,0.0,0.0,0.0123,-0.0263,-0.0798,-0.2214,-0.3164,-0.3285,-0.4816,-0.546,-0.47,-0.4249,0.0,0.0,0.0,0.0,0.0,0.0,0.0,0.0,0.0,0.0,0.0,0.0,0.0,0.0,0.0,0.0,0.0,0.0,0.0,0.0,0.0,0.0,0.0,0.0,0.0,0.0,0.0,0.0,0.0,0.0,0.0,0.0,0.0,0.0,0.0,0.0,0.0,0.0,0.0,0.0,0.0,0.0,0.0,0.0,0.0,0.0,0.0,0.0,0.0,0.0,0.0,0.0,0.0,0.0,0.0,0.0,0.0,0.0,0.0,0.0,0.0,0.0,0.0,0.0,0.0,0.0,0.0,0.0,0.0,0.0,0.0,0.0,0.0,0.0,0.0,0.0,0.0,0.0,0.0,0.0,0.0,0.0,0.0,0.0,0.0,0.0,0.0,0.0,0.0,0.0,0.0,0.0,0.0,0.0,0.0,0.0,0.0,0.0,0.0,0.0,0.0,0.0,-0.0396,-0.0831,-0.1193,-0.2338,-0.3429,-0.4226,-0.5152,-0.5569,-0.531,-0.4406,0.0,0.0,0.0,0.0,0.0,0.0,0.0,0.0,0.0,0.0,0.0,0.0,0.0,0.0,0.0,0.0,0.0,0.0,0.0,0.0,0.0,0.0,0.0,0.0,0.0,0.0,0.0,0.0,0.0,0.0,0.0,0.0,0.0,0.0,0.0,0.0,0.0,0.0,0.0,0.0,0.0,0.0,0.0,0.0,0.0,0.0,0.0,0.0,0.0,0.0,0.0,0.0,0.0,0.0,0.0,0.0,0.0,0.0,0.0,0.0,0.0,0.0,0.0,0.0,0.0,0.0,0.0,0.0,0.0,0.0,0.0,0.0,0.0,0.0,0.0,0.0,0.0,0.0,0.0,0.0,0.0,0.0,0.0,0.0,0.0,0.0,0.0,0.0,0.0,0.0,0.0,0.0,0.0,0.0,0.0,0.0,0.0,0.0,0.0,0.0,0.0,0.0,-0.0033,-0.0073,-0.0114,-0.1891,-0.3098,-0.303,-0.4512,-0.5296,-0.4965,-0.3722,0.0,0.0,0.0,0.0,0.0,0.0,0.0,0.0,0.0,0.0,0.0,0.0,0.0,0.0,0.0,0.0,0.0,0.0,0.0,0.0,0.0,0.0,0.0,0.0,0.0,0.0,0.0,0.0,0.0,0.0,0.0,0.0,0.0,0.0,0.0,0.0,0.0,0.0,0.0,0.0,0.0,0.0,0.0,0.0,0.0,0.0,0.0,0.0,0.0,0.0,0.0,0.0,0.0,0.0,0.0,0.0,0.0,0.0,0.0,0.0,0.0,0.0,0.0,0.0,0.0,0.0,0.0,0.0,0.0,0.0,0.0,0.0,0.0,0.0,0.0,0.0,0.0,0.0,0.0,0.0,0.0,0.0,0.0,0.0,0.0,0.0,0.0,0.0,0.0,0.0,0.0,0.0,0.0,0.0,0.0,0.0,0.0,0.0,0.0,0.0,0.0,0.0,-0.0325,-0.0922,0.0,-0.2547,-0.3465,-0.4715,-0.5199,-0.5269,-0.4908,0.0,0.0,0.0,0.0,0.0,0.0,0.0,0.0,0.0,0.0,0.0,0.0,0.0,0.0,0.0,0.0,0.0,0.0,0.0,0.0,0.0,0.0,0.0,0.0,0.0,0.0,0.0,0.0,0.0,0.0,0.0,0.0,0.0,0.0,0.0,0.0,0.0,0.0,0.0,0.0,0.0,0.0,0.0,0.0,0.0,0.0,0.0,0.0,0.0,0.0,0.0,0.0,0.0,0.0,0.0,0.0,0.0,0.0,0.0,0.0,0.0,0.0,0.0,0.0,0.0,0.0,0.0,0.0,0.0,0.0,0.0,0.0,0.0,0.0,0.0,0.0,0.0,0.0,0.0,0.0,0.0,0.0,0.0,0.0,0.0,0.0,0.0,0.0,0.0,0.0,0.0,0.0,0.0,0.0,0.0,0.0,0.0,0.0,0.0,0.0,0.0,0.0,-0.0057,-0.0352,-0.1114,0.0,-0.2743,-0.3565,-0.5225,-0.5305,-0.5094,-0.4796,0.0,0.0,0.0,0.0,0.0,0.0,0.0,0.0,0.0,0.0,0.0,0.0,0.0,0.0,0.0,0.0,0.0,0.0,0.0,0.0,0.0,0.0,0.0,0.0,0.0,0.0,0.0,0.0,0.0,0.0,0.0,0.0,0.0,0.0,0.0,0.0,0.0,0.0,0.0,0.0,0.0,0.0,0.0,0.0,0.0,0.0,0.0,0.0,0.0,0.0,0.0,0.0,0.0,0.0,0.0,0.0,0.0,0.0,0.0,0.0,0.0,0.0,0.0,0.0,0.0,0.0,0.0,0.0,0.0,0.0,0.0,0.0,0.0,0.0,0.0,0.0,0.0,0.0,0.0,0.0,0.0,0.0,0.0,0.0,0.0,0.0,0.0,0.0,0.0,0.0,0.0,0.0,0.0,0.0,0.0,0.0,0.0,0.0,0.0,0.0,0.0,0.0,0.0,0.0,-0.0351,-0.1223,-0.2289,-0.3196,-0.3948,-0.456,-0.4789,0.0,0.0,0.0,0.0,0.0,0.0,0.0,0.0,0.0,0.0,0.0,0.0,0.0,0.0,0.0,0.0,0.0,0.0,0.0,0.0,0.0,0.0,0.0,0.0,0.0,0.0,0.0,0.0,0.0,0.0,0.0,0.0,0.0,0.0,0.0,0.0,0.0,0.0,0.0,0.0,0.0,0.0,0.0,0.0,0.0,0.0,0.0,0.0,0.0,0.0,0.0,0.0,0.0,0.0,0.0,0.0,0.0,0.0,0.0,0.0,0.0,0.0,0.0,0.0,0.0,0.0,0.0,0.0,0.0,0.0,0.0,0.0,0.0,0.0,0.0,0.0,0.0,0.0,0.0,0.0,0.0,0.0,0.0,0.0,0.0,0.0,0.0,0.0,0.0,0.0,0.0,0.0,0.0,0.0,0.0,0.0,0.0,0.0,0.0,0.0,0.0,0.0,0.0,0.0,-0.0654,-0.1464,-0.2342,-0.3252,-0.4166,-0.5041,-0.4983,-0.4789,-0.4511,0.0,0.0,0.0,0.0,0.0,0.0,0.0,0.0,0.0,0.0,0.0,0.0,0.0,0.0,0.0,0.0,0.0,0.0,0.0,0.0,0.0,0.0,0.0,0.0,0.0,0.0,0.0,0.0,0.0,0.0,0.0,0.0,0.0,0.0,0.0,0.0,0.0,0.0,0.0,0.0,0.0,0.0,0.0,0.0,0.0,0.0,0.0,0.0,0.0,0.0,0.0,0.0,0.0,0.0,0.0,0.0,0.0,0.0,0.0,0.0,0.0,0.0,0.0,0.0,0.0,0.0,0.0,0.0,0.0,0.0,0.0,0.0,0.0,0.0,0.0,0.0,0.0,0.0,0.0,0.0,0.0,0.0,0.0,0.0,0.0,0.0,0.0,0.0,0.0,0.0,0.0,0.0,0.0,0.0,0.0,0.0,0.0,0.0,0.0,0.0,0.0,0.0,0.0,-0.0925,-0.1927,-0.2804,-0.3737,-0.4665,-0.5534,-0.5284,-0.4938,-0.4607,0.0,0.0,0.0,0.0,0.0,0.0,0.0,0.0,0.0,0.0,0.0,0.0,0.0,0.0,0.0,0.0,0.0,0.0,0.0,0.0,0.0,0.0,0.0,0.0,0.0,0.0,0.0,0.0,0.0,0.0,0.0,0.0,0.0,0.0,0.0,0.0,0.0,0.0,0.0,0.0,0.0,0.0,0.0,0.0,0.0,0.0,0.0,0.0,0.0,0.0,0.0,0.0,0.0,0.0,0.0,0.0,0.0,0.0,0.0,0.0,0.0,0.0,0.0,0.0,0.0,0.0,0.0,0.0,0.0,0.0,0.0,0.0,0.0,0.0,0.0,0.0,0.0,0.0,0.0,0.0,0.0,0.0,0.0,0.0,0.0,0.0,0.0,0.0,0.0,0.0,0.0,0.0,0.0,0.0,0.0,0.0,0.0,0.0,0.0,0.0,0.0,0.0,-0.0122,-0.1066,-0.2088,-0.2969,-0.3998,-0.4896,-0.5554,-0.5487,-0.5214,-0.4755,0.0,0.0,0.0,0.0,0.0,0.0,0.0,0.0,0.0,0.0,0.0,0.0,0.0,0.0,0.0,0.0,0.0,0.0,0.0,0.0,0.0,0.0,0.0,0.0,0.0,0.0,0.0,0.0,0.0,0.0,0.0,0.0,0.0,0.0,0.0,0.0,0.0,0.0,0.0,0.0,0.0,0.0,0.0,0.0,0.0,0.0,0.0,0.0,0.0,0.0,0.0,0.0,0.0,0.0,0.0,0.0,0.0,0.0,0.0,0.0,-1.1738,0.0,0.0,0.0,0.0,0.0,0.0,0.0,0.0,0.0,0.0,0.0,0.0,0.0,0.0,0.0,0.0,0.0,0.0,0.0,0.0,0.0,0.0,0.0,0.0,0.0,0.0,0.0,0.0,0.0,0.0,0.0,0.0,0.0,0.0,0.0,0.0,0.0,0.0,0.0,0.0,0.0,-0.1157,-0.2132,-0.3139,-0.4056,-0.5054,-0.5695,-0.5766,-0.5549,-0.5303,-0.5015,0.0,0.0,0.0,0.0,0.0,0.0,0.0,0.0,0.0,0.0,0.0,0.0,0.0,0.0,0.0,0.0,0.0,0.0,0.0,0.0,0.0,0.0,0.0,0.0,0.0,0.0,0.0,0.0,0.0,0.0,0.0,0.0,0.0,0.0,0.0,0.0,0.0,0.0,0.0,0.0,0.0,0.0,0.0,0.0,0.0,0.0,0.0,0.0,0.0,0.0,0.0,0.0,0.0,0.0,0.0,0.0,0.0,0.0,0.0,0.0,0.0,-1.3013,0.0,0.0,0.0,0.0,0.0,0.0,0.0,0.0,0.0,0.0,0.0,0.0,0.0,0.0,0.0,0.0,0.0,0.0,0.0,0.0,0.0,0.0,0.0,0.0,0.0,0.0,0.0,0.0,0.0,0.0,0.0,0.0,0.0,0.0,0.0,0.0,0.0,0.0,0.0,0.0,-0.1996,-0.3109,-0.399,-0.4534,-0.5519,-0.6078,-0.5922,-0.5337,-0.485,-0.4589,-0.3166,0.0,0.0,0.0,0.0,0.0,0.0,0.0,0.0,0.0,0.0,0.0,0.0,0.0,0.0,0.0,0.0,0.0,0.0,0.0,0.0,0.0,0.0,0.0,0.0,0.0,0.0,0.0,0.0,0.0,0.0,0.0,0.0,0.0,0.0,0.0,0.0,0.0,0.0,0.0,0.0,0.0,0.0,0.0,0.0,0.0,0.0,0.0,0.0,0.0,0.0,0.0,0.0,0.0,0.0,-1.6387,-1.6921,-1.7077,-1.7096,-1.698,-1.5814,-1.5206,-1.4941,0.0,0.0,0.0,0.0,0.0,0.0,0.0,0.0,0.0,0.0,0.0,0.0,0.0,0.0,0.0,0.0,0.0,0.0,0.0,0.0,0.0,0.0,0.0,0.0,0.0,-0.5325,-0.5228,0.0,0.0,0.0,0.0,0.0,0.0,0.0,0.0,0.0,0.0,0.0,0.0,-0.2427,-0.371,-0.4567,-0.4704,-0.5667,-0.6245,-0.6078,-0.5095,-0.4399,-0.4111,-0.279,-0.1757,0.0,0.0,0.0,0.0,0.0,0.0,0.0,0.0,0.0,0.0,0.0,0.0,0.0,0.0,0.0,0.0,0.0,0.0,0.0,0.0,0.0,0.0,0.0,0.0,0.0,0.0,0.0,0.0,0.0,0.0,0.0,0.0,-1.1166,-1.209,0.0,0.0,0.0,0.0,0.0,0.0,0.0,0.0,0.0,0.0,0.0,0.0,0.0,0.0,-1.6278,-1.7077,-1.7363,-1.7129,-1.8242,-1.8437,-1.7871,-1.8613,-1.875,-1.8329,-1.7619,0.0,-1.5829,-1.4621,0.0,0.0,0.0,0.0,0.0,0.0,0.0,0.0,0.0,0.0,0.0,0.0,0.0,0.0,0.0,0.0,0.0,0.0,0.0,0.0,0.0,0.0,-0.5679,-0.5576,-0.5637,-0.5671,0.0,-0.4998,-0.4631,-0.4487,0.0,0.0,0.0,0.0,0.0,0.0,0.0,0.0,-0.1821,-0.3451,-0.4699,-0.4709,-0.5667,-0.6293,-0.6272,-0.5185,-0.4465,-0.4434,-0.2524,-0.1378,-0.1266,-0.054,0.0,0.0,0.0,0.0,0.0,0.0,0.0,0.0,0.0,0.0,0.0,0.0,0.0,0.0,0.0,0.0,0.0,0.0,0.0,0.0,0.0,0.0,0.0,0.0,0.0,0.0,0.0,0.0,0.0,-1.1041,-1.227,-1.2651,-1.2929,-1.2718,0.0,0.0,0.0,0.0,0.0,0.0,0.0,0.0,0.0,-1.6211,-1.666,-1.7135,-1.7759,-1.8418,-1.875,-1.8809,-1.9375,-1.957,-1.9453,-1.9203,-1.9013,-1.8769,-1.786,-1.709,-1.6316,-1.488,-1.3539,-1.2321,0.0,0.0,0.0,0.0,0.0,-0.992,-0.9374,0.0,0.0,0.0,0.0,0.0,0.0,0.0,0.0,0.0,0.0,0.0,0.0,0.0,0.0,-0.5979,-0.6054,-0.6081,-0.602,-0.5745,-0.5447,0.0,-0.4672,-0.4158,-0.3671,0.0,0.0,0.0,0.0,0.0,-0.2262,-0.3095,-0.3726,-0.3779,-0.4219,-0.4491,-0.4491,-0.3484,-0.2886,-0.2886,-0.1416,-0.0585,-0.0585,-0.0207,0.0,0.0,0.0,0.0,0.0,0.0,0.0,0.0,0.0,0.0,0.0,0.0,0.0,0.0,0.0,0.0,0.0,0.0,0.0,0.0,0.0,0.0,0.0,0.0,0.0,0.0,0.0,0.0,0.0,-1.217,-1.3261,-1.3009,-1.3813,-1.3911,0.0,0.0,0.0,0.0,0.0,0.0,-1.5859,-1.6113,-1.6777,-1.7988,-1.8555,-1.8843,-1.8954,-1.9316,-1.9468,-1.9479,-1.9479,-1.9648,-1.9946,-1.9183,-1.8801,-1.8719,-1.7516,-1.683,-1.6421,-1.4998,-1.3897,-1.2991,-1.2115,-1.1474,-1.1042,-1.1042,-1.0883,-1.0627,-0.9993,-0.9627,-0.9395,-0.9118,0.0,-0.7367,-0.7039,0.0,0.0,0.0,0.0,-0.5583,-0.58,0.0,-0.6023,-0.6252,-0.63,-0.63,-0.63,-0.6173,-0.5976,0.0,-0.5379,-0.4951,-0.3994,0.0,0.0,0.0,0.0,-0.2551,-0.2073,-0.255,-0.2873,-0.273,-0.293,-0.3083,-0.3083,-0.2192,-0.1607,-0.1607,-0.0578,0.0,0.0,0.0,0.0,0.0,0.0,0.0,0.0,0.0,0.0,0.0,0.0,0.0,0.0,0.0,0.0,0.0,0.0,0.0,0.0,0.0,0.0,0.0,0.0,0.0,0.0,0.0,0.0,0.0,0.0,0.0,0.0,0.0,0.0,-1.2998,-1.4731,0.0,0.0,0.0,0.0,-1.5293,-1.5713,-1.6359,-1.7259,-1.8013,-1.8831,-1.9766,-2.0586,-2.0685,-1.9925,-1.9943,-1.9414,-1.8298,-1.8298,-1.8298,-1.8314,-1.8272,-1.8229,-1.8169,-1.6765,-1.6144,-1.6055,-1.5132,-1.4531,-1.3992,-1.2737,-1.2248,-1.2211,-1.2211,-1.1702,-1.0927,-1.0669,-0.9981,-0.9291,-0.914,-0.8271,-0.7143,-0.6179,-0.5638,0.0,0.0,-0.5772,-0.5959,-0.5979,-0.6227,-0.645,-0.6327,-0.63,-0.63,-0.63,-0.6293,-0.6238,0.0,-0.5766,-0.5246,-0.419,0.0,-0.3184,-0.1418,-0.2024,-0.208,-0.0339,-0.1846,-0.2733,-0.1761,-0.254,-0.3083,-0.3083,-0.2192,-0.1607,-0.1607,-0.0588,0.0,0.0,0.0,0.0,0.0,0.061,0.0,0.0,0.0,0.0,0.0,0.0,0.0,0.0,0.0,0.0,0.0,0.0,0.0,0.0,0.0,0.0,0.0,0.0,0.0,0.0,0.0,0.0,0.0,0.0,0.0,0.0,0.0,0.0,-1.4102,-1.5527,0.0,0.0,-1.6074,-1.6797,-1.707,-1.748,-1.8223,-1.9412,-1.9707,-2.0273,-2.1152,-2.1484,-2.1513,-2.1214,-2.0424,-1.9773,-1.9349,-1.8579,-1.8208,-1.8164,-1.7498,-1.7165,-1.7106,-1.5921,-1.5408,-1.5381,-1.5047,-1.4504,-1.3756,-1.3116,-1.2893,-1.2893,-1.2893,-1.2232,-1.122,-1.0408,-0.9488,-0.846,-0.7797,-0.7642,-0.7579,-0.6656,-0.624,-0.6149,-0.6261,-0.6376,-0.6464,-0.6464,-0.6539,-0.6607,-0.6559,-0.6511,-0.6238,-0.5558,-0.5336,-0.5029,-0.4284,-0.4539,-0.4742,-0.4237,-0.3551,-0.2656,-0.129,-0.1502,-0.1354,-0.0155,-0.0663,-0.098,-0.0628,-0.0902,-0.1096,-0.1096,-0.0784,-0.0585,-0.0575,-0.023,0.0,0.0,0.0,0.0254,0.0841,0.1569,0.2212,0.0,0.0,0.0,0.0,0.0,0.0,0.0,0.0,0.0,0.0,0.0,0.0,0.0,0.0,0.0,0.0,0.0,0.0,0.0,0.0,0.0,0.0,0.0,0.0,0.0,0.0,-1.5234,-1.5244,-1.6621,-1.7363,-1.6809,-1.7553,-1.8262,-1.8828,-1.9121,-1.9598,-2.0362,-2.0552,-2.0712,-2.0856,-2.1004,-2.0906,-2.0476,-1.9661,-1.8989,-1.8578,-1.7754,-1.7369,-1.7369,-1.6667,-1.6352,-1.6292,-1.5499,-1.511,-1.5142,-1.5048,-1.4384,-1.3408,-1.3596,-1.3587,-1.3467,-1.3035,-1.2168,-1.0996,-0.9456,-0.843,-0.7639,-0.6986,-0.7121,-0.7442,-0.6874,-0.6627,-0.6573,-0.6675,-0.6736,-0.6763,-0.6715,-0.6437,-0.617,-0.6085,-0.5712,-0.5154,-0.4462,-0.4205,-0.3958,-0.324,-0.3585,-0.3869,-0.3399,-0.2756,-0.1975,-0.0896,-0.0795,-0.0655,-0.0078,0.0,0.0,0.0,0.0,0.0,0.0,0.0,0.0,0.0,0.0,0.0,0.0,0.0,0.0392,0.1292,0.2415,0.3176,0.3535,0.0,0.0,0.0,0.0,0.0,0.0,0.0,0.0,0.0,0.0,0.0,0.0,0.0,0.0,0.0,0.0,0.0,0.0,0.0,0.0,0.0,0.0,0.0,-1.4192,-1.6035,-1.7103,-1.6281,-1.8042,-1.8984,-1.8164,-1.8848,-1.9744,-2.0586,-2.0644,-2.048,-2.0051,-2.0465,-2.0097,-1.8879,-1.927,-1.8948,-1.7777,-1.7731,-1.7091,-1.5879,-1.5832,-1.5784,-1.5784,-1.5784,-1.5784,-1.5771,-1.5538,-1.5404,-1.5391,-1.511,-1.4244,-1.3097,-1.4058,-1.4263,-1.3884,-1.2687,-1.152,-1.0216,-0.7921,-0.7004,-0.6896,-0.6896,-0.6831,-0.6709,-0.6715,-0.6709,-0.6709,-0.6674,-0.6733,-0.6813,-0.6624,-0.5833,-0.5037,-0.4895,-0.3942,-0.3103,-0.3061,-0.3058,-0.3058,-0.3016,-0.2989,-0.2702,-0.1767,-0.1571,-0.1178,-0.0157,0.0,0.0,0.0,0.0,0.0,0.0,0.0,0.0,0.0,0.0,0.0,0.0,0.0037,0.0037,0.0038,0.0072,0.0527,0.1401,0.3169,0.4076,0.4057,0.0,0.0,0.0,0.0,0.0,0.0,0.0,0.0,0.0,0.0,0.0,0.0,0.0,0.0,0.0,0.0,0.0,0.0,0.0,0.0,0.0,0.0,-1.6387,-1.6024,-1.6797,-1.7519,-1.7891,-1.9004,-1.9766,-1.9901,-2.0371,-2.0937,-2.1484,-2.1523,-2.1244,-2.0526,-2.0609,-2.0263,-1.9331,-1.943,-1.936,-1.8993,-1.8133,-1.7498,-1.7171,-1.6244,-1.5784,-1.5784,-1.5784,-1.5784,-1.5784,-1.5704,-1.5712,-1.5698,-1.5618,-1.4701,-1.3309,-1.3381,-1.2717,-1.1652,-1.1344,-1.045,-0.9148,-0.7621,-0.7071,-0.7038,-0.7038,-0.6943,-0.6842,-0.6943,-0.6903,-0.6672,-0.5941,-0.5774,-0.5615,-0.4699,-0.4226,-0.4018,-0.3955,-0.3642,-0.3089,-0.2318,-0.2076,-0.1802,-0.1008,-0.0832,-0.1031,-0.1523,-0.0949,-0.033,-0.0041,0.0,0.0,0.0,0.0,0.0,0.0,0.0,0.0,0.0,0.0,0.0,0.0,0.0587,0.1058,0.1287,0.1921,0.272,0.376,0.4874,0.5409,0.0,0.0,0.0,0.0,0.0,0.0,0.0,0.0,0.0,0.0,0.0,0.0,0.0,0.0,0.0,0.0,0.0,0.0,0.0,0.0,0.0,0.0,-1.6699,-1.7734,-1.7993,-1.8281,-1.8633,-1.9085,-1.9904,-2.0566,-2.082,-2.125,-2.168,-2.2109,-2.2148,-2.1584,-2.028,-2.0209,-1.949,-1.7979,-1.7933,-1.7933,-1.7933,-1.7264,-1.6904,-1.6904,-1.615,-1.5784,-1.5784,-1.5784,-1.5784,0.0,-1.5784,-1.5784,-1.5784,-1.5235,-1.4124,0.0,0.0,0.0,0.0,0.0,-0.926,-0.8061,-0.7356,-0.7098,-0.7098,-0.7098,-0.7038,-0.6904,-0.6492,-0.633,-0.6025,-0.494,-0.4643,-0.4461,-0.3794,-0.3215,-0.2858,-0.2858,-0.2392,-0.1802,-0.1188,-0.1002,-0.0734,-0.013,0.0,0.0,-0.0821,-0.0426,0.0,0.0,0.0,0.0,0.0,0.0,0.0,0.0,0.0,0.0,0.0,0.0449,0.0,0.0,0.0,0.235,0.2547,0.0,0.0,0.0,0.0,0.0,0.0,0.0,0.0,0.0,0.9193,0.9963,0.0,0.0,0.0,0.0,0.0,0.0,0.0,0.0,0.0,0.0,0.0,0.0,0.0,0.0,0.0,0.0,-1.7891,-1.8613,-1.9746,-2.0,-2.0059,-2.0059,-2.0722,-2.1229,-2.1327,-2.1738,-2.2087,-2.2326,-2.2364,-2.1484,-1.9389,0.0,0.0,0.0,0.0,-1.5784,-1.5784,-1.5784,-1.5784,-1.5784,-1.5784,-1.5784,-1.5784,-1.5784,-1.5737,-1.5581,-1.5581,-1.5486,-1.5296,-1.4124,-1.2909,-1.1774,-1.2494,-1.1941,-1.0592,-0.9386,-0.8185,0.0,0.0,0.0,0.0,-0.6959,-0.6915,-0.6694,-0.5536,-0.5181,-0.4954,-0.3749,-0.3393,-0.3349,-0.3215,-0.2415,-0.1612,-0.1612,-0.0763,0.0,0.0,0.0,0.0,0.0,0.0,0.0,0.0,0.0,0.0,0.0,0.0,0.0,0.0,0.0,0.0042,0.017,0.0,0.0,0.038,0.1406,0.2014,0.2003,0.3147,0.3878,0.3984,0.4766,0.5325,0.5624,0.6389,0.7073,0.7594,0.8799,1.0131,1.1523,0.9798,1.0532,0.0,0.0,0.0,0.0,0.0,0.0,0.0,0.0,0.0,0.0,0.0,0.0,0.0,0.0,0.0,-1.7773,-1.8828,-1.9629,-1.9883,-2.0489,-2.0937,-2.0937,-2.1093,-2.1463,-2.2207,-2.2344,-2.2155,-2.1555,-2.1548,-2.0497,-1.818,-1.8056,0.0,-1.5832,-1.5784,-1.5784,-1.5784,-1.5784,-1.5784,-1.5784,0.0,0.0,-1.5784,-1.5784,-1.5248,-1.4268,-1.4268,-1.3644,-1.263,-1.2387,-1.1512,-1.0271,-0.926,-0.8693,-0.8409,-0.8027,-0.7639,-0.7326,-0.7326,-0.7244,-0.6959,-0.603,-0.5714,-0.5492,-0.4328,-0.3927,0.0,-0.2504,-0.2147,-0.1923,-0.0941,-0.0538,-0.0359,-0.0359,-0.018,0.0,0.0,0.0,0.0,0.0,0.0,0.0,0.0,0.0,0.0,0.0,0.0,0.0,0.0,0.0,0.0355,0.1328,0.1459,0.1844,0.2803,0.3129,0.3248,0.3268,0.4476,0.551,0.6248,0.6776,0.7066,0.7019,0.7301,0.7903,0.8939,0.9461,1.0942,1.324,1.2848,1.3507,0.0,0.0,0.0,0.0,0.0,0.0,0.0,0.0,0.0,0.0,0.0,-1.5117,0.0,0.0,-1.8047,-1.9121,-1.9316,-1.9461,-1.9872,-1.9793,-2.0076,-2.1089,-2.105,-2.1114,-2.1569,-2.1229,-2.0838,-2.0432,-2.0387,-1.9633,-1.7777,-1.7684,-1.7138,-1.5832,-1.5784,-1.5784,-1.5784,-1.5784,-1.5784,-1.5784,-1.5784,-1.5784,-1.5784,-1.514,-1.4507,-1.3872,-1.3199,-1.2522,-1.1853,-1.1219,-1.019,-0.8909,-0.8196,-0.7875,-0.7801,-0.7733,-0.7611,-0.7389,-0.6728,-0.6408,-0.6166,-0.4894,-0.4504,-0.4283,-0.3081,-0.268,-0.2459,-0.1255,-0.0896,-0.0763,-0.0135,0.0,0.0,0.0,0.0,0.0,0.0,0.0,0.0,0.0,0.0,0.0,0.0,0.0,0.0,0.0,0.0,0.0225,0.0808,0.0896,0.1343,0.2591,0.268,0.2936,0.3564,0.4219,0.4872,0.5459,0.6201,0.6809,0.722,0.7482,0.7597,0.759,0.7665,0.8365,0.9673,1.0485,1.1925,1.4028,1.4663,1.5296,0.0,0.0,0.0,0.0,0.0,0.0,0.0,0.0,-1.4855,-1.5742,-1.6269,-1.6946,-1.8047,-1.8398,-1.8984,-2.0488,-1.9736,-1.9186,-1.9895,-1.9033,-1.8939,-2.0544,-2.0516,-2.0394,-2.0465,-1.9855,-1.9405,-1.9177,-1.9131,-1.8642,-1.7404,-1.7326,-1.6857,-1.5832,-1.5784,-1.5784,-1.5784,-1.5784,-1.5676,-1.5439,-1.5439,-1.5296,-1.4997,-1.398,-1.3392,-1.3054,-1.1697,-1.1121,-1.1072,-1.0051,-0.8973,-0.7988,-0.7988,-0.7914,-0.7855,-0.7855,-0.7568,-0.7111,-0.6005,-0.5462,-0.5005,-0.3661,-0.3252,-0.3029,-0.1811,-0.1446,-0.1262,-0.0271,0.0,0.0,0.0,0.0,0.0,0.0,0.0,0.0,0.0,0.0,0.009,0.0314,0.0359,0.0404,0.0673,0.072,0.0631,0.0404,0.0359,0.0808,0.2013,0.2147,0.2591,0.3838,0.3972,0.4069,0.4308,0.5355,0.6397,0.7368,0.7556,0.7638,0.7638,0.7672,0.774,0.7855,0.8098,0.8927,1.0386,1.1648,1.3138,1.4703,1.582,1.6348,-1.1682,-1.1855,-1.232,-1.3105,-1.3627,-1.4367,0.0,0.0,-1.6648,-1.7539,-1.8047,-1.8481,-1.9043,-1.9803,-2.0469,-2.1034,-2.0406,-1.9895,-1.9985,-1.9297,-1.8886,-1.9117,-1.9079,-1.9173,-1.9579,-1.9555,-1.9039,-1.7963,-1.7917,-1.7358,-1.6055,-1.6008,-1.5974,-1.5784,-1.5784,-1.5784,-1.5784,-1.5784,-1.5248,-1.4112,-1.4112,-1.3488,-1.2339,-1.2193,-1.1512,-1.0337,-0.9015,-0.8428,-0.8428,-0.8287,-0.8137,-0.7988,-0.7988,-0.7982,-0.7961,-0.7961,-0.7125,-0.5983,-0.5838,-0.4901,-0.3641,-0.2415,-0.1988,-0.1795,-0.0568,-0.0187,-0.0184,-0.0046,0.0,0.0,0.0,0.0,0.0,0.0,0.0,0.0,0.0,0.0,0.0314,0.1388,0.1612,0.1923,0.2992,0.3309,0.2967,0.1796,0.1612,0.2013,0.326,0.3393,0.3883,0.5087,0.5181,0.5668,0.6872,0.7204,0.7429,0.7577,0.7706,0.7787,0.7787,0.7867,0.7948,0.7961,0.914,1.0418,1.1707,1.3006,1.4497,1.6077,1.6224,1.6406,-1.2969,-1.3379,0.0,0.0,-1.4933,-1.5868,-1.6894,-1.7305,-1.7759,-1.8887,-1.9221,-1.9512,-1.9979,-2.0351,-2.084,0.0,-2.0123,-1.9118,-1.9648,-1.8063,-1.6873,-1.6873,-1.6828,-1.7265,-1.8334,-1.7762,-1.7156,-1.6622,-1.6574,-1.6339,-1.5832,-1.5784,-1.5784,-1.5784,-1.5784,-1.5784,-1.5784,-1.5045,-1.4411,-1.3872,-1.3102,-1.2425,-1.1853,-1.1121,-1.0092,-0.8825,-0.8237,-0.7988,-0.7988,-0.7988,-0.7988,-0.7988,-0.7988,-0.7534,-0.683,-0.683,-0.6448,-0.5708,-0.4122,-0.3188,-0.2463,-0.1162,-0.0769,-0.0667,-0.0143,0.0,0.0,0.0,0.0,0.0,0.0,0.0,0.0,0.0,0.0604,0.1162,0.1162,0.1764,0.2458,0.2965,0.3057,0.3242,0.375,0.3871,0.3975,0.4123,0.3519,0.3519,0.4715,0.4903,0.5363,0.6575,0.6667,0.6922,0.7449,0.7638,0.7726,0.7726,0.7862,0.7894,0.7894,0.8738,0.9164,0.9164,1.0435,1.1745,1.3054,1.3782,1.4986,1.6526,1.675,1.6991,-1.3899,0.0,0.0,-1.5107,-1.6035,-1.7051,-1.7598,-1.8066,-1.8691,-1.9863,-2.0098,-2.0195,-2.0546,-2.0703,0.0,-2.1326,-1.9667,-1.8523,-1.8959,-1.6941,-1.5391,-1.5391,-1.5391,-1.5841,-1.6979,-1.6297,-1.5784,-1.5784,-1.5784,-1.5784,-1.5784,-1.5784,-1.5784,-1.5784,-1.5439,-1.5296,-1.5296,-1.398,-1.3151,-1.2813,-1.1843,-1.117,-1.0779,-0.9854,-0.8924,-0.7988,-0.7988,-0.7988,-0.7988,-0.7988,-0.7789,-0.7434,-0.7434,-0.6631,-0.5422,-0.5022,-0.4872,-0.4622,-0.2666,-0.1746,-0.1283,-0.0297,0.0,0.0,0.0,0.0,0.0,0.0,0.0,0.0,0.0,0.0286,0.0572,0.0572,0.157,0.2569,0.2569,0.3325,0.4084,0.4415,0.4505,0.4604,0.4935,0.5005,0.5356,0.6211,0.5618,0.5379,0.6172,0.6308,0.6643,0.7503,0.7638,0.7658,0.7658,0.7794,0.7875,0.7875,0.7928,0.8187,0.8528,0.946,1.0149,1.0534,1.1794,1.299,1.4026,1.457,1.5543,1.6834,1.7099,1.7407,0.0,0.0,-1.5009,-1.585,-1.6731,-1.7578,-1.8364,-1.8926,-1.9492,-2.041,-2.0586,-2.0586,-2.0605,-2.0918,-2.0924,-2.0183,-1.9358,-1.853,-1.7871,-1.6401,-1.5391,-1.5391,-1.5391,-1.5404,0.0,-1.5658,-1.5784,-1.5784,-1.5784,-1.5784,-1.5784,-1.5784,-1.5784,-1.5784,-1.4603,-1.3968,-1.3968,-1.2619,-1.1365,-1.01,-1.01,-0.9361,-0.8137,-0.8088,-0.8038,-0.7988,-0.7988,-0.7988,-0.7988,-0.7988,-0.7235,-0.6077,-0.6077,-0.5222,-0.3917,-0.2615,-0.2113,-0.2113,-0.2012,-0.1158,-0.005,0.0,0.0,0.0,0.0,0.0,0.0,0.0,0.0,0.0,0.0,0.0953,0.1951,0.1951,0.2946,0.3942,0.3942,0.3989,0.4368,0.5501,0.5737,0.612,0.7315,0.7617,0.7704,0.7752,0.7831,0.7825,0.7591,0.755,0.755,0.7597,0.7726,0.7801,0.7801,0.7894,0.7982,0.7982,0.7988,0.8577,0.9903,1.0002,1.0583,1.1804,1.3151,1.4002,1.4298,1.5611,1.6567,1.7192,1.7192,1.7462,0.0,0.0,-1.587,-1.675,-1.7363,-1.7949,-1.8481,-1.8715,-1.9023,-1.959,-1.9067,-1.8545,-1.8788,-1.8386,-1.818,-1.8579,-1.7927,-1.7429,-1.7656,-1.6355,-1.5391,-1.5391,-1.5391,0.0,0.0,0.0,0.0,-1.5784,-1.5784,-1.5784,-1.5784,-1.5784,-1.5391,-1.4555,-1.4124,-1.3488,-1.2571,-1.1307,-1.0435,-1.0002,-0.9122,-0.8428,-0.7988,-0.7988,-0.7988,-0.7988,-0.7988,-0.7988,-0.7939,-0.7036,-0.6431,-0.5927,-0.5022,-0.3867,-0.2615,-0.2163,-0.146,-0.0656,-0.0656,-0.0353,0.0,0.0,0.0,0.0,0.0,0.0,0.0,0.0,0.0646,0.1334,0.1334,0.232,0.3303,0.3303,0.4339,0.5326,0.5326,0.6012,0.6752,0.7198,0.7247,0.7394,0.7791,0.788,0.7914,0.7914,0.7955,0.7955,0.7853,0.784,0.784,0.784,0.7887,0.7914,0.7914,0.7961,0.7988,0.7988,0.7988,0.8577,0.9953,1.0828,1.1891,1.3199,1.474,1.5521,1.5611,1.646,1.7005,1.7206,1.7555,1.7849,-1.4642,-1.5655,-1.6504,-1.7383,-1.7812,-1.8125,-1.85,-1.8598,-1.8676,-1.9004,-1.8088,-1.7313,-1.7497,-1.6628,-1.6209,-1.7056,-1.6657,-1.6477,-1.6961,-1.609,-1.5391,-1.5391,-1.5391,0.0,0.0,0.0,0.0,-1.5784,-1.5784,-1.5784,-1.5784,-1.5391,-1.4758,-1.392,-1.3006,-1.2086,-1.1219,-0.9944,-0.9262,-0.9262,-0.8435,-0.7988,-0.7988,-0.7988,-0.7988,-0.7988,-0.7484,-0.7285,-0.7185,-0.5827,-0.5022,-0.4472,-0.3616,-0.2465,-0.1309,-0.1309,-0.0757,0.0,0.0,0.0,0.0,0.0,0.0,0.0,0.0,0.0353,0.0706,0.0706,0.1662,0.2714,0.2714,0.3717,0.4718,0.4718,0.5722,0.6731,0.6731,0.7385,0.7988,0.7988,0.7988,0.7988,0.7988,0.7988,0.7988,0.7988,0.7988,0.7988,0.7988,0.7988,0.7988,0.7988,0.7988,0.7988,0.7988,0.7988,0.8187,0.8676,0.8726,0.9509,1.1307,1.2183,1.3292,1.4751,1.5778,1.6429,1.6643,1.7018,1.7259,1.7367,1.7809,1.8049,-1.5679,-1.6395,-1.6941,-1.7793,-1.8008,-1.8105,-1.8481,-1.8523,-1.8449,-1.843,-1.7543,-1.6727,0.0,0.0,-1.5081,-1.5503,-1.5628,-1.5691,-1.5799,-1.5591,-1.5418,0.0,0.0,0.0,0.0,0.0,0.0,-1.5784,0.0,-1.5784,-1.5724,-1.4555,-1.3824,-1.368,-1.1307,-0.9953,-0.9903,-0.8627,-0.7988,-0.7988,-0.7988,-0.7988,-0.7988,-0.7988,-0.7939,-0.7839,-0.6531,-0.5977,-0.5777,-0.4468,-0.3165,-0.2012,-0.1912,-0.1109,0.0,0.0,0.0,0.0,0.0,0.0,0.0,0.0,0.005,0.0101,0.0101,0.1058,0.2113,0.2113,0.3065,0.4114,0.4114,0.5122,0.6082,0.6082,0.7086,0.7988,0.7988,0.7988,0.7988,0.7988,0.7988,0.7988,0.7988,0.7988,0.7988,0.7988,0.7988,0.7988,0.7988,0.7988,0.7988,0.7988,0.7988,0.7988,0.7988,0.8088,0.8627,0.9903,1.0043,1.1258,1.3776,1.3884,1.4654,1.6273,1.6348,1.6643,1.7206,1.7219,1.738,1.7609,1.7929,1.8169,-1.5526,-1.6504,-1.7344,-1.7871,-1.8008,-1.8047,-1.8144,-1.7415,-1.6671,-1.6473,-1.4763,-1.3251,0.0,0.0,0.0,-1.3729,-1.4572,0.0,-1.5725,-1.5718,0.0,0.0,0.0,-1.5712,-1.5712,-1.5744,0.0,0.0,-1.5784,-1.5391,-1.4459,-1.4064,-1.3006,-1.1063,-1.0337,-0.9509,-0.8528,-0.8187,-0.7988,-0.7988,-0.7988,-0.7988,-0.7988,-0.7988,-0.7434,-0.6481,-0.6132,-0.5422,-0.4418,-0.3065,-0.2314,-0.1912,-0.0907,-0.0303,0.0,0.0,0.0,0.0,0.0,0.0,0.0,0.0,0.0656,0.1511,0.1511,0.2414,0.3466,0.3466,0.4468,0.5477,0.5477,0.6481,0.7484,0.7484,0.7739,0.7988,0.7988,0.7988,0.7988,0.7988,0.7988,0.7988,0.7988,0.7988,0.7988,0.7988,0.7988,0.7988,0.7988,0.7988,0.7988,0.7988,0.7988,0.7988,0.7988,0.8924,0.9657,1.0002,1.0877,1.2134,1.3824,1.4109,1.4839,1.6273,1.675,1.7045,1.7206,1.742,1.7622,1.7943,1.8237,1.8531,-1.5411,-1.6112,-1.6699,-1.7745,-1.7373,-1.6814,-1.6968,-1.6123,-1.5136,-1.4555,-1.291,0.0,0.0,0.0,0.0,0.0,0.0,0.0,-1.5524,-1.5752,-1.5784,0.0,-1.5784,0.0,-1.5784,-1.5784,-1.5581,0.0,-1.4949,-1.4651,-1.392,-1.2851,-1.1599,-1.0051,-0.9562,-0.899,-0.8235,-0.8174,-0.814,-0.814,-0.8022,-0.769,-0.7135,-0.7135,-0.6376,-0.5072,0.0,-0.3817,-0.3015,-0.1662,-0.1109,-0.1058,-0.0303,0.0,0.0,0.0,0.0,0.0101,0.0656,0.0857,0.0857,0.0857,0.1762,0.2864,0.2864,0.3817,0.4872,0.4872,0.5827,0.688,0.688,0.7434,0.7988,0.7988,0.7988,0.7988,0.7988,0.7988,0.7988,0.7988,0.7988,0.7988,0.7988,0.7988,0.7988,0.7988,0.7988,0.7988,0.7988,0.7988,0.7988,0.7988,0.8528,0.8874,0.8874,1.0092,1.1072,1.1648,1.2377,1.3448,1.4885,1.5083,1.5678,1.6697,1.7032,1.7259,1.7393,1.7635,1.7876,1.8009,1.8477,1.9095,-1.534,-1.5497,-1.5596,-1.7217,-1.6366,-1.5186,-1.545,-1.4716,-1.37,-1.276,0.0,-1.0788,-1.0645,0.0,-1.0635,-1.2064,0.0,-1.4066,-1.5284,-1.5671,-1.5784,-1.5784,-1.5784,-1.5737,-1.5581,-1.5573,-1.506,-1.3775,-1.3519,-1.3423,-1.3389,-1.1387,-1.0079,-0.983,-0.8962,-0.8479,-0.8479,-0.8202,-0.8039,-0.8039,-0.7648,-0.6882,-0.572,-0.572,-0.501,-0.3691,0.0,0.0,-0.1667,-0.0454,0.0,0.0,0.0,0.0101,0.0252,0.0252,0.0353,0.0706,0.1861,0.2364,0.2515,0.2314,0.3165,0.4268,0.4268,0.5222,0.6282,0.6282,0.7086,0.7988,0.7988,0.7988,0.7988,0.7988,0.7988,0.7988,0.7988,0.7988,0.7988,0.7988,0.7988,0.7988,0.7988,0.7988,0.7988,0.7988,0.8137,0.8287,0.8287,0.8088,0.8088,0.8237,0.9312,1.0043,1.0239,1.1414,1.2668,1.3824,1.41,1.4824,1.6259,1.6402,1.6683,1.7192,1.7233,1.7407,1.7649,1.7916,1.8035,1.8115,1.8691,1.9611,-1.5113,-1.5246,-1.5261,-1.5596,-1.5219,-1.473,-1.4578,-1.3412,0.0,0.0,0.0,-0.9453,-0.9207,-0.991,0.0,-1.2104,0.0,0.0,0.0,0.0,-1.5784,0.0,0.0,0.0,0.0,0.0,0.0,0.0,0.0,0.0,-1.0865,-1.0544,-0.9864,-0.882,-0.8609,-0.8479,-0.8479,-0.7293,-0.6647,-0.6647,-0.5313,-0.4571,-0.4362,-0.4362,-0.3628,-0.2315,0.0,0.0,-0.031,-0.0102,0.0,0.0,0.0,0.0656,0.1662,0.1662,0.2364,0.3316,0.3566,0.4368,0.5122,0.4017,0.4568,0.5677,0.5677,0.6581,0.7633,0.7633,0.7839,0.7988,0.7988,0.7988,0.7988,0.7988,0.7988,0.7988,0.7988,0.7988,0.7988,0.7988,0.7988,0.7988,0.7988,0.7988,0.7988,0.7988,0.8924,0.9657,0.9657,0.8676,0.8428,0.9558,0.9854,1.0435,1.1463,1.2813,1.3632,1.3872,1.5164,1.6025,1.6273,1.679,1.7099,1.7192,1.7434,1.7662,1.7916,1.7969,1.8235,1.8771,1.8878,1.9287,-1.4185,-1.4063,-1.3918,-1.4942,-1.4226,-1.3203,-1.3139,0.0,0.0,0.0,0.0,-0.8951,-0.8831,0.0,0.0,0.0,0.0,0.0,0.0,0.0,0.0,0.0,0.0,0.0,0.0,0.0,0.0,0.0,0.0,0.0,-1.0314,-0.9724,-0.918,-0.8716,-0.8642,-0.8261,-0.757,-0.6802,-0.6017,-0.5211,-0.4369,-0.366,-0.2971,-0.2971,-0.2233,-0.0958,0.0,0.0,0.0,0.0,0.0,0.0052,0.083,0.1495,0.2094,0.2857,0.3567,0.417,0.4839,0.5509,0.6154,0.6092,0.6526,0.7036,0.7036,0.7484,0.7988,0.7988,0.7988,0.7988,0.7988,0.7988,0.7988,0.7988,0.7988,0.7988,0.7988,0.7988,0.7988,0.7988,0.7988,0.7988,0.7988,0.8577,0.9023,0.9023,1.0141,1.0974,1.0974,1.0435,1.0288,1.0925,1.1599,1.228,1.2909,1.4292,1.5164,1.5164,1.5983,1.6567,1.6777,1.7045,1.7353,1.7609,1.7756,1.7969,1.8277,1.8368,1.8595,1.8931,1.9239,2.038,-1.3121,-1.2898,-1.2742,-1.4222,-1.3249,-1.188,-1.1719,-1.0843,0.0,0.0,-0.8804,-0.8804,-0.8804,0.0,0.0,0.0,0.0,0.0,0.0,0.0,0.0,0.0,0.0,0.0,0.0,0.0,0.0,0.0,0.0,0.0,0.0,-0.9157,-0.8528,-0.8429,-0.8327,-0.7604,-0.6255,-0.5786,-0.4978,-0.3777,-0.3347,-0.2578,-0.1559,-0.1559,-0.1022,0.0,0.0,0.0,0.0,0.0,0.0,0.016,0.165,0.2318,0.2652,0.4154,0.4878,0.5231,0.623,0.6618,0.6935,0.7813,0.8042,0.7988,0.7988,0.7988,0.7988,0.7988,0.7988,0.7988,0.7988,0.7988,0.7988,0.7988,0.7988,0.7988,0.7988,0.7988,0.7988,0.7988,0.8237,0.8428,0.8428,0.9509,1.0453,1.0488,1.1619,1.2422,1.2524,1.2769,1.2926,1.2926,1.3508,1.404,1.4388,1.5593,1.6299,1.6366,1.6633,1.6901,1.7192,1.7326,1.7569,1.7982,1.8049,1.829,1.8584,1.8811,1.9155,1.9619,2.0086,2.1876,-1.2334,-1.258,-1.2714,-1.258,-1.2222,-1.1672,-1.0916,0.0,0.0,-0.8938,-0.8804,-0.8804,-0.8804,-0.867,-0.8864,0.0,0.0,-1.0405,0.0,0.0,0.0,0.0,0.0,0.0,0.0,0.0,0.0,0.0,0.0,0.0,0.0,-0.8948,-0.8238,-0.6922,-0.6911,-0.619,-0.4693,-0.3291,-0.2509,-0.2342,-0.1004,-0.0279,-0.0167,-0.0167,-0.0112,0.0,0.0,0.0,0.0,0.0,0.0,0.016,0.165,0.2918,0.4179,0.5712,0.7083,0.8138,0.8236,0.8288,0.8302,0.8445,0.8262,0.7988,0.7988,0.7988,0.7988,0.7988,0.7988,0.7988,0.7988,0.7988,0.7988,0.7988,0.7988,0.7988,0.7988,0.7988,0.7988,0.7988,0.8973,0.9805,0.9805,1.0877,1.1815,1.2124,1.3287,1.4208,1.4492,1.5545,1.6271,1.6271,1.485,1.4509,1.5963,1.6211,1.638,1.6647,1.6991,1.7166,1.7206,1.7675,1.7942,1.7995,1.8317,1.8597,1.8878,1.8905,1.9917,2.1916,2.1918,2.32,-1.2131,-1.2556,-1.2717,-1.2371,-1.2091,-1.1567,-1.0225,0.0,-0.8755,-0.7688,-0.7477,-0.7522,-0.7643,-0.7691,-0.8002,-0.8739,-0.8979,0.0,0.0,0.0,0.0,0.0,0.0,0.0,0.0,0.0,0.0,0.0,0.0,0.0,0.0,-0.7593,-0.7315,-0.67,-0.5866,-0.4637,-0.3129,-0.2515,-0.1734,-0.0896,-0.028,0.0,0.0,0.0,0.0,0.0,0.0,0.0,0.0,0.132,0.1866,0.285,0.4327,0.5164,0.5764,0.7268,0.8188,0.8608,0.8513,0.854,0.8608,0.8513,0.8404,0.8289,0.8208,0.818,0.816,0.8015,0.7988,0.7988,0.7988,0.7988,0.7988,0.7988,0.7988,0.8237,0.9023,0.9348,0.9662,1.0512,1.1203,1.169,1.169,1.2786,1.3668,1.3819,1.4946,1.5807,1.5922,1.64,1.67,1.67,1.6041,1.5851,1.6477,1.675,1.6898,1.7018,1.73,1.7488,1.7675,1.7862,1.8155,1.8515,1.8691,1.933,2.0515,1.9809,2.0873,2.3566,2.3014,2.4289,-1.1921,-1.2489,-1.2717,-1.2371,-1.1896,-1.1169,0.0,0.0,-0.7928,-0.6897,-0.6678,-0.6749,-0.6941,-0.6973,-0.713,-0.7579,-0.7764,-0.8152,0.0,0.0,0.0,0.0,0.0,0.0,0.0,0.0,0.0,0.0,0.0,0.0,0.0,-0.5639,-0.5361,-0.5361,-0.4355,-0.3073,-0.1566,-0.1566,-0.1008,0.0,0.0,0.0,0.0,0.0,0.0224,0.0,0.0,0.0,0.0,0.2905,0.3519,0.4637,0.6144,0.6649,0.6746,0.8227,0.8777,0.8764,0.8655,0.8689,0.8757,0.8655,0.8615,0.8587,0.8445,0.837,0.8309,0.8201,0.8174,0.8174,0.8174,0.8174,0.8268,0.8715,0.8816,0.9168,1.0503,1.0961,1.1364,1.2324,1.3004,1.3375,1.3375,1.4496,1.5392,1.5466,1.6265,1.6874,1.6954,1.6967,1.6967,1.6967,1.6967,1.6927,1.6847,1.7072,1.7233,1.7326,1.7555,1.7822,1.7982,1.8155,1.8448,1.8918,1.9092,1.9784,2.1061,2.0822,2.2112,2.4812,2.4633,2.6118,-1.1528,-1.2342,-1.2717,-1.2371,-1.146,-1.0431,0.0,-0.8354,-0.7229,-0.6949,-0.6899,-0.6941,-0.7082,-0.6616,-0.6244,-0.64,-0.6185,0.0,0.0,0.0,0.0,0.0,0.0,0.0,0.0,0.0,0.0,0.0,0.0,0.0,0.0,0.0,-0.2235,-0.2235,-0.2235,-0.151,-0.0056,0.0,0.0,0.0,0.0,0.0,0.0,0.0,0.0,0.0,0.0,0.0,0.0,0.447,0.447,0.4637,0.6144,0.67,0.6866,0.8374,0.8885,0.8885,0.8878,0.8878,0.8885,0.8878,0.8878,0.8851,0.875,0.8601,0.8479,0.8479,0.8479,0.8479,0.8479,0.8479,0.8839,1.0327,1.069,1.1052,1.2495,1.2761,1.2761,1.2812,1.3874,1.48,1.48,1.5834,1.6807,1.7152,1.7192,1.73,1.7542,1.7569,1.7569,1.7569,1.7569,1.7462,1.7219,1.7206,1.7326,1.7555,1.7862,1.7995,1.7995,1.8555,1.8918,1.8918,1.9492,1.98,1.98,2.1727,2.3691,2.5618,2.7229,2.9021,-0.9295,-0.9904,-1.0183,-0.9753,-0.9445,-0.8949,-0.7845,-0.7125,-0.6454,-0.5704,-0.5523,-0.5577,-0.5709,-0.5566,-0.5639,-0.6244,-0.6242,-0.6396,0.0,0.0,0.0,0.0,0.0,0.0,0.0,0.0,0.0,0.0,0.0,0.0,0.0,0.0,-0.1175,-0.218,-0.1231,-0.0448,0.0,0.0,0.0,0.0,0.0,0.0,0.0056,0.1064,0.0,0.0,0.0,0.0,0.0,0.6033,0.6589,0.7537,0.8042,0.8208,0.8269,0.8719,0.8885,0.8885,0.8885,0.8885,0.8885,0.8885,0.8885,0.8871,0.8824,0.8757,0.8828,0.975,0.9972,1.0231,1.1165,1.1423,1.1578,1.2042,1.2145,1.2495,1.3874,1.4327,1.4723,1.5651,1.6317,1.6717,1.6717,1.7042,1.7341,1.7487,1.7448,1.7475,1.7569,1.7582,1.7582,1.7582,1.7769,1.7769,1.7527,1.7635,1.7809,1.7889,1.8183,1.8437,1.8582,1.8824,1.9118,1.9519,2.0782,2.2067,2.329,2.4225,2.5651,2.7558,2.9207,3.0335,0.0,-0.8537,-0.876,-0.8462,-0.8166,-0.7749,-0.6895,-0.6289,-0.5731,-0.5106,-0.4968,-0.5015,-0.5189,-0.5216,-0.5393,-0.5958,-0.6143,0.0,0.0,0.0,0.0,0.0,0.0,0.0,0.0,0.0,0.0,0.0,0.0,0.0,0.0,0.0,-0.0448,-0.1343,-0.0504,0.0,0.0,0.0,0.0,0.0,0.056,0.084,0.0896,0.0,0.0,0.0,0.0,0.0,0.0,0.7537,0.8042,0.8885,0.8885,0.8885,0.8885,0.8885,0.8885,0.8885,0.8885,0.8885,0.8989,0.9533,1.0131,1.0562,1.0562,1.0109,0.99,1.1309,1.1695,1.1853,1.2745,1.3017,1.3111,1.3633,1.38,1.4164,1.556,1.5967,1.6352,1.7211,1.7514,1.7582,1.7582,1.7582,1.7582,1.7582,1.7582,1.7582,1.7582,1.7689,1.7756,1.7756,1.8036,1.813,1.7943,1.8103,1.821,1.821,1.849,1.8731,1.8918,1.9132,1.9703,2.0704,2.1921,2.3414,2.5168,2.6185,2.7582,2.9335,3.0392,3.0898,0.0,-0.7944,-0.8142,-0.8132,-0.7436,-0.6722,-0.6589,-0.5809,0.0,-0.511,-0.5117,-0.5196,-0.5399,-0.5419,-0.5474,-0.5637,-0.5835,0.0,0.0,0.0,0.0,0.0,0.0,0.0,0.0,0.0,0.0,0.0,0.0,0.0,0.0,0.0,0.0,0.0,0.0,0.0,0.0,0.0112,0.0168,0.0168,0.1678,0.2347,0.2403,0.0,0.0,0.0,0.0,0.0,0.0,0.8885,0.8885,0.8885,0.8885,0.8885,0.8885,0.8885,0.8885,0.8885,0.8885,0.8885,0.9154,1.0617,1.2082,1.3318,1.3426,1.2398,1.1538,1.3048,1.3426,1.348,1.3588,1.3588,1.3965,1.5263,1.5583,1.5956,1.7305,1.7582,1.7582,1.7582,1.7582,1.7582,1.7582,1.7595,1.7609,1.7609,1.7635,1.7649,1.7649,1.7903,1.8022,1.8022,1.8343,1.8517,1.8517,1.8517,1.8517,1.8517,1.8811,1.9042,1.9155,1.9695,2.076,2.2415,2.3126,2.4306,2.5965,2.7754,2.9412,3.0898,3.0898,3.0898,-0.5188,0.0,-0.5551,-0.5447,-0.5313,-0.5224,0.0,-0.5203,-0.513,0.0,0.0,-0.5419,-0.565,-0.561,-0.5732,-0.6342,0.0,0.0,0.0,0.0,0.0,0.0,0.0,0.0,0.0,0.0,0.0,0.0,0.0,0.0,0.0,0.0,0.0,0.0,0.0,0.0,0.0,0.112,0.1678,0.1678,0.324,0.3968,0.4024,0.0,0.0,0.0,0.0,0.0,0.8885,0.8885,0.8885,0.8885,0.8885,0.8885,0.8885,0.8885,0.8885,0.8885,0.8885,0.8885,0.9154,1.0617,1.2082,1.348,1.4556,1.3911,1.3102,1.4502,1.4931,1.5144,1.6287,1.6605,1.6658,1.6988,1.7094,1.7199,1.7529,1.7582,1.7582,1.7582,1.7582,1.7582,1.7582,1.7782,1.7943,1.7943,1.813,1.8277,1.8277,1.8343,1.8384,1.8384,1.8651,1.8824,1.8824,1.8824,1.8824,1.8824,1.9305,2.0158,2.1393,2.1789,2.2884,2.4762,2.6355,2.7985,2.9634,3.01,3.0509,3.0898,3.0898,3.0898,-0.4491,-0.4655,-0.4775,-0.4694,-0.4782,-0.4931,-0.5087,0.0,0.0,0.0,0.0,0.0,-0.5664,0.0,0.0,0.0,0.0,0.0,0.0,0.0,0.0,0.0,0.0,0.0,0.0,0.0,0.0,0.0,0.0,0.0,0.0,0.0,0.0,0.0,0.0672,0.1008,0.1008,0.179,0.2571,0.3296,0.4804,0.5528,0.5584,0.0,0.0,0.0,0.0,0.0,0.8885,0.8885,0.8885,0.8885,0.8885,0.8885,0.8885,0.8885,0.932,0.9911,0.9911,1.0781,1.2018,1.2832,1.4073,1.5423,1.6168,1.5902,1.5423,1.618,1.6393,1.6605,1.7371,1.7582,1.7582,1.7582,1.7582,1.7582,1.7582,1.7582,1.7582,1.7582,1.7582,1.7622,1.7756,1.7916,1.8022,1.8223,1.8384,1.849,1.849,1.8611,1.8691,1.8691,1.8958,1.9132,1.9132,1.9252,1.9319,1.9319,1.9626,2.0255,2.1256,2.2334,2.4149,2.6823,2.8614,2.9962,3.0898,3.0898,3.0898,3.0898,3.0898,3.0898,-0.4322,-0.4437,-0.4621,-0.4813,-0.4975,-0.5098,-0.516,0.0,0.0,0.0,0.0,0.0,0.0,0.0,0.0,0.0,0.0,0.0,0.0,0.0,0.0,0.0,0.0,0.0,0.0,0.0,0.0,0.0,0.0,0.0,0.0,0.0,0.0,0.0,0.179,0.2682,0.2905,0.2905,0.3519,0.486,0.6311,0.7038,0.7093,0.8325,0.0,0.0,0.0,0.0,0.8885,0.8885,0.8885,0.894,0.9154,0.921,0.9265,0.9478,1.0351,1.1437,1.1463,1.3281,1.554,1.554,1.6518,1.7716,1.7662,1.7689,1.7716,1.7662,1.7622,1.7595,1.7635,1.7649,1.7662,1.7716,1.7716,1.7716,1.7716,1.7716,1.7716,1.7716,1.7716,1.7796,1.805,1.813,1.825,1.8517,1.8597,1.8624,1.8624,1.8838,1.8985,1.8985,1.9212,1.9444,1.9484,1.9653,1.984,1.9933,1.9933,2.0294,2.1064,2.3172,2.5687,2.8724,3.0216,3.0898,3.0898,3.0898,3.0898,3.0898,3.0898,3.0918,-0.349,-0.3251,-0.3313,-0.4453,-0.4931,-0.4912,-0.4222,0.0,0.0,0.0,0.0,0.0,0.0,0.0,0.0,0.0,0.0,0.0,0.0,0.0,0.0,0.0,0.0,0.0,0.0,0.0,0.0,0.0,0.0,0.0,0.0,0.0,0.0,0.0,0.0,0.4749,0.5973,0.6028,0.6139,0.6366,0.7875,0.8546,0.8546,0.8774,0.8885,0.0,0.0,0.8885,0.8885,0.8885,0.8885,0.9051,1.0296,1.0781,1.0891,1.2191,1.2778,1.297,1.3202,1.4557,1.618,1.618,1.7147,1.8303,1.7995,1.8156,1.8303,1.805,1.7782,1.7649,1.7849,1.7916,1.7982,1.829,1.8357,1.8357,1.8357,1.8357,1.8357,1.8357,1.8357,1.837,1.841,1.8624,1.8798,1.8851,1.9078,1.9239,1.9239,1.9279,1.9305,1.9305,1.9345,1.9466,1.972,1.9773,2.0013,2.0508,2.0548,2.1935,2.4955,2.8063,2.9963,3.0509,3.0762,3.0898,3.0898,3.0898,3.0898,3.0898,3.0898,3.1074,-0.2719,-0.2717,-0.2843,-0.338,-0.3645,-0.3705,-0.339,0.0,0.0,0.0,0.0,0.0,0.0,0.0,0.0,0.0,0.0,0.0,0.0,0.0,0.0,0.0,0.0,0.0,0.0,0.0,0.0,0.0,0.0,0.0,0.0,0.0,0.0,0.0,0.0,0.0,0.67,0.7482,0.7875,0.7875,0.8602,0.8885,0.8885,0.8885,0.8885,0.8885,0.0,0.8885,0.894,0.9754,1.0076,1.0241,1.1701,1.2299,1.2472,1.4103,1.4778,1.5076,1.5987,1.6839,1.7507,1.7507,1.7965,1.8464,1.833,1.8384,1.8464,1.833,1.8183,1.8103,1.825,1.829,1.8317,1.8464,1.849,1.849,1.849,1.849,1.849,1.849,1.849,1.8544,1.8691,1.8838,1.8985,1.9132,1.9279,1.943,1.943,1.943,1.943,1.943,1.943,1.9492,1.9773,2.0753,2.1572,2.1968,2.2153,2.3764,2.7194,2.8724,2.9962,3.0898,3.0898,3.0898,3.0898,3.0898,3.0898,3.0898,3.1133,3.1328,-0.1934,-0.2009,-0.2027,-0.1932,0.0,-0.27,-0.2567,0.0,0.0,0.0,0.0,0.0,0.0,0.0,0.0,0.0,0.0,0.0,0.0,0.0,0.0,0.0,0.0,0.0,0.0,0.0,0.0,0.0,0.0,0.0,0.0,0.0,0.0,0.0,0.0,0.0,0.7204,0.8325,0.8885,0.8885,0.8885,0.8885,0.8885,0.8885,0.8885,0.894,0.9265,0.943,0.9533,1.1,1.1592,1.1755,1.3325,1.4136,1.4701,1.5998,1.6679,1.7079,1.818,1.8637,1.8691,1.8691,1.8691,1.8691,1.8611,1.8637,1.8677,1.8611,1.8637,1.8677,1.8611,1.8597,1.8611,1.8677,1.8691,1.8691,1.8691,1.8691,1.8691,1.8691,1.8691,1.8771,1.8985,1.9025,1.9105,1.9332,1.943,1.943,1.943,1.9426,1.9466,1.9466,1.9533,1.9856,2.0497,2.2334,2.3698,2.4309,2.4576,2.5818,2.8289,2.8783,2.9589,3.0879,3.0898,3.0898,3.0898,3.0898,3.0937,3.1055,3.1367,3.1621,-0.1173,-0.0705,-0.0204,-0.0179,-0.1535,0.0,-0.1629,-0.1408,0.0,0.0,0.0,0.0,0.0,0.0,0.0,0.0,0.0,0.0,0.0,0.0,0.0,0.0,0.0,0.0,0.0,0.0,0.0,0.0,0.0,0.0,0.0,0.0,0.0,0.0,0.0,0.0,0.8712,0.883,0.8885,0.8885,0.8885,0.8885,0.8885,0.8885,0.8885,0.8995,1.0351,1.0945,1.1055,1.2507,1.3156,1.3285,1.5029,1.671,1.8147,1.8284,1.847,1.8721,1.8835,1.9078,1.9363,1.9363,1.9363,1.9252,1.8971,1.9092,1.9252,1.8971,1.9092,1.9239,1.8958,1.8891,1.8958,1.9239,1.9363,1.9363,1.9363,1.9363,1.9363,1.9363,1.9363,1.9319,1.939,1.9332,1.9345,1.9417,1.943,1.943,1.943,1.9599,1.9773,1.9773,2.0013,2.0887,2.2688,2.4617,2.6402,2.7955,2.8033,2.817,2.8408,2.9903,3.0762,3.0898,3.0898,3.0898,3.0898,3.0898,3.1094,3.1465,3.1504,3.1934,-0.0404,-0.022,0.0,0.0,0.0,0.0,0.0,0.0,0.0,0.0,0.0,0.0,0.0,0.0,0.0,0.0,0.0,0.0,0.0,0.0,0.0,0.0,0.0,0.0,0.0,0.0,0.0,0.0,0.0,0.0,0.0,0.0,0.0,0.0,0.0,0.0,0.0,0.8885,0.8885,0.8885,0.8885,0.8885,0.894,0.9864,1.0296,1.0351,1.181,1.2462,1.2561,1.4019,1.4609,1.4793,1.6542,1.7822,1.8758,1.8758,1.8945,1.9199,1.9199,1.9279,1.943,1.943,1.943,1.9403,1.9239,1.9279,1.9345,1.9225,1.9279,1.9345,1.9225,1.9199,1.9225,1.9345,1.943,1.943,1.943,1.943,1.943,1.943,1.943,1.943,1.943,1.943,1.943,1.943,1.9519,1.9639,1.9639,1.9893,2.0474,2.1475,2.2737,2.4221,2.5974,2.6986,2.817,2.9844,2.8979,2.8842,2.9903,3.0587,3.0898,3.0898,3.0898,3.0898,3.0898,3.0898,3.1113,3.1523,3.1797,3.2246,0.0,0.0,0.0,0.0,0.0,0.0,0.0,0.0,0.0,0.0,0.0,0.0,0.0,0.0,0.0,0.0,0.0,0.0,0.0,0.0,0.0,0.0,0.0,0.0,0.0,0.0,0.0,0.0,0.0,0.0,0.0,0.0,0.0,0.0,0.0,0.0,0.0,0.8885,0.8885,0.8885,0.8885,0.8885,0.894,1.046,1.1109,1.1219,1.3156,1.3965,1.4073,1.553,1.6225,1.6505,1.771,1.8544,1.9065,1.9065,1.9199,1.943,1.943,1.943,1.943,1.943,1.943,1.943,1.943,1.943,1.943,1.943,1.943,1.943,1.943,1.943,1.943,1.943,1.943,1.943,1.943,1.943,1.943,1.943,1.943,1.9457,1.9492,1.9506,1.9533,1.9626,1.9813,2.0112,2.0635,2.0958,2.1772,2.3532,2.5353,2.6873,2.8011,2.8755,2.9648,3.082,2.9844,2.9707,3.082,3.0898,3.0898,3.0898,3.0898,3.0898,3.0898,3.1016,3.1309,3.1738,3.2168,3.2598,0.0,0.0,0.0,0.0,0.0,0.0,0.0,0.0,0.0,0.0,0.0,0.0,0.0,0.0,0.0,0.0,0.0,0.0,0.0,0.0,0.0,0.0,0.0,0.0,0.0,0.0,0.0,0.0,0.0,0.0,0.0,0.0,0.0,0.0,0.0,0.0,0.0,0.8885,0.8885,0.894,0.894,0.894,0.8995,1.046,1.1109,1.1319,1.418,1.5411,1.5518,1.6988,1.7943,1.849,1.849,1.8851,1.943,1.943,1.943,1.943,1.943,1.943,1.943,1.943,1.943,1.943,1.943,1.943,1.943,1.943,1.943,1.943,1.943,1.943,1.943,1.943,1.943,1.943,1.943,1.943,1.943,1.943,1.943,1.9466,1.976,1.98,1.9907,2.0187,2.0241,2.0832,2.2543,2.3007,2.3855,2.5813,2.7434,2.8426,2.8426,2.9962,3.0898,3.0898,3.0898,3.0898,3.0898,3.0898,3.0898,3.0898,3.0898,3.0898,3.0898,3.1309,3.1738,3.2187,3.2598,3.3027,0.0,0.0,0.0,0.0,0.0,0.0,0.0,0.0,0.0,0.0,0.0,0.0,0.0,0.0,0.0,0.0,0.0,0.0,0.0,0.0,0.0,0.0,0.0,0.0,0.0,0.0,0.0,0.0,0.0,0.0,0.0,0.0,0.0,0.0,0.0,0.0,0.0,0.0,0.943,1.046,1.046,1.046,1.0507,1.1973,1.321,1.4234,1.6115,1.6935,1.7001,1.7595,1.8143,1.8517,1.8718,1.9025,1.943,1.943,1.943,1.943,1.943,1.943,1.943,1.943,1.943,1.943,1.943,1.943,1.943,1.943,1.943,1.943,1.943,1.943,1.943,1.943,1.943,1.943,1.943,1.943,1.9484,1.9626,1.9666,1.976,2.0054,2.0107,2.0134,2.0214,2.1362,2.2885,2.4795,2.6071,2.7013,2.7614,2.9157,3.0157,3.0157,3.0587,3.0898,3.0898,3.0898,3.0898,3.0898,3.0898,3.0898,3.0898,3.0898,3.0898,3.0898,3.1309,3.1738,3.2187,3.2598,3.3027,0.0,0.0,0.0,0.0,0.0,0.0,0.0,0.0,0.0,0.0,0.0,0.0,0.0,0.0,0.0,0.0,0.0,0.0,0.0,0.0,0.0,0.0,0.0,0.0,0.0,0.0,0.0,0.0,0.0,0.0,0.0,0.0,0.0,0.0,0.0,0.0,0.0,0.0,0.0,1.1973,1.1973,1.2299,1.2832,1.375,1.4609,1.5476,1.6988,1.7582,1.7595,1.7782,1.8116,1.8504,1.8677,1.8998,1.943,1.943,1.943,1.943,1.943,1.943,1.943,1.943,1.943,1.943,1.943,1.943,1.943,1.943,1.943,1.943,1.943,1.943,1.943,1.943,1.943,1.9457,1.9519,1.9546,1.9626,1.992,1.9973,2.0234,2.1185,2.1362,2.1633,2.2401,2.4036,2.5616,2.6798,2.8367,2.9394,2.9394,3.0274,3.0898,3.0898,3.0898,3.0898,3.0898,3.0898,3.0898,3.0898,3.0898,3.0898,3.0898,3.0898,3.0898,3.0898,3.1484,3.1914,3.2187,3.2773,3.3184,0.0257,0.0,0.0,0.0,0.0,0.0,0.0,0.0,0.0,0.0,0.0,0.0,0.0,0.0,0.0,0.0,0.0,0.0,0.0,0.0,0.0,0.0,0.0,0.0,0.0,0.0,0.0,0.0,0.0,0.0,0.0,0.0,0.0,0.0,0.0,0.0,0.0,0.0,0.0,0.0,1.348,1.4234,1.5583,1.5464,1.5476,1.5689,1.7041,1.7582,1.7582,1.7609,1.7969,1.849,1.8517,1.8878,1.943,1.943,1.943,1.943,1.943,1.943,1.943,1.943,1.943,1.943,1.943,1.943,1.943,1.943,1.943,1.943,1.943,1.9444,1.947,1.947,1.947,1.9479,1.9746,1.9932,2.0159,2.0396,2.0571,2.1245,2.3066,2.3354,2.3992,2.5935,2.7434,2.8486,2.8605,2.9962,3.0898,3.0898,3.0898,3.0898,3.0898,3.0898,3.0898,3.0898,3.0898,3.0898,3.0898,3.0898,3.0898,3.0898,3.0937,3.0937,3.0957,3.1816,3.2226,3.2246,3.3047,3.3418,0.0,0.0,0.0,0.0,0.0,0.0,0.0,0.0,0.0,0.0,0.0,0.0,0.0,0.0,0.0,0.0,0.0,0.0,0.0,0.0,0.0,0.0,0.0,0.0,0.0,0.0,0.0,0.0,0.0,0.0,0.0,0.0,0.0,0.0,0.0,0.0,1.1109,1.2245,1.3534,0.0,1.4931,1.5689,1.7094,1.5902,1.6009,1.7147,1.7477,1.7582,1.7595,1.7849,1.8156,1.8517,1.8744,1.9052,1.943,1.943,1.943,1.943,1.943,1.943,1.943,1.943,1.943,1.943,1.943,1.943,1.943,1.943,1.943,1.943,1.943,1.9533,1.9706,1.9706,1.9706,1.972,1.9786,2.1033,2.217,2.2432,2.3489,2.4603,2.5258,2.5384,2.5946,2.7614,2.817,2.8842,3.0216,3.0704,3.0898,3.0898,3.0898,3.0898,3.0898,3.0898,3.0898,3.0898,3.0898,3.0898,3.0898,3.0898,3.0898,3.0898,3.1211,3.1387,3.1387,3.2246,3.2656,3.2676,3.3184,3.3418,0.0,0.0,0.0,0.0,0.0,0.0,0.0,0.0,0.0,0.0,0.0,0.0,0.0,0.0,0.0,0.0,0.0,0.0,0.0,0.0,0.0,0.0,0.0,0.0,0.0,0.0,0.0,0.0,0.0,0.0,0.0,0.0,0.0,0.0,0.0,0.0,1.3156,1.3911,1.5037,1.6446,1.6446,1.6869,1.7582,1.6817,1.6882,1.7582,1.7582,1.7582,1.7595,1.7756,1.809,1.8504,1.8651,1.8985,1.943,1.943,1.943,1.943,1.943,1.943,1.943,1.943,1.943,1.943,1.943,1.943,1.943,1.943,1.9924,2.0515,2.0714,2.1394,2.2066,2.2288,2.1744,2.1208,2.1364,2.2811,2.4162,2.4432,2.5161,2.6054,2.6979,2.7811,2.8605,2.9471,2.9589,2.9903,3.0762,3.0898,3.0898,3.0898,3.0898,3.0898,3.0898,3.0898,3.0898,3.0898,3.0898,3.0898,3.0898,3.1074,3.1191,3.1191,3.1406,3.1621,3.1836,3.248,3.2793,3.2812,3.3223,3.3418,0.0,0.0,0.0,0.0,0.0,0.0,0.0,0.0,0.0,0.0,0.0,0.0,0.0,0.0,0.0,0.0,0.0,0.0,0.0,0.0,0.0,0.0,0.0,0.0,0.0,0.0,0.0,0.0,0.0,0.0,0.0,0.0,0.0,0.0,0.0,1.4234,1.5411,1.5636,1.6393,1.7582,1.7582,1.7582,1.7582,1.7582,1.7582,1.7582,1.7582,1.7582,1.7582,1.7582,1.7943,1.849,1.849,1.8851,1.943,1.943,1.943,1.943,1.943,1.943,1.943,1.943,1.943,1.943,1.9707,1.9751,1.9822,2.0211,2.1175,2.2192,2.2586,2.3693,2.4746,2.5103,2.4413,2.365,2.3565,2.4847,2.6159,2.6342,2.6651,2.7271,2.8605,2.9962,3.0898,3.0898,3.0898,3.0898,3.0898,3.0898,3.0898,3.0898,3.0898,3.0898,3.0898,3.0898,3.0898,3.0898,3.0898,3.0918,3.0996,3.1328,3.1582,3.1738,3.1738,3.1914,3.2285,3.2695,3.291,3.291,3.3262,3.3418,0.0,0.0,0.0,0.0,0.0,0.0,0.0,0.0,0.0,0.0,0.0,0.0,0.0,0.0,0.0,0.0,0.0,0.0,0.0,0.0,0.0,0.0,0.0,0.0,0.0,0.0,0.0,0.0,0.0,0.0,0.0,0.0,1.1701,1.2994,1.4395,1.5198,1.5411,1.6658,1.7424,1.7582,1.7582,1.7582,1.7582,1.7582,1.7582,1.7582,1.7582,1.7582,1.7582,1.7582,1.7943,1.849,1.849,1.8851,1.943,1.943,1.943,1.943,1.943,1.943,1.943,1.943,1.943,1.9649,2.0916,2.1316,2.1645,2.3365,2.3959,2.4212,2.4614,2.506,2.5502,2.5535,2.6636,2.7208,2.5549,2.6704,2.8057,2.8051,2.9216,3.0333,3.0509,3.0762,3.0898,3.0898,3.0898,3.0898,3.0898,3.0898,3.0898,3.0898,3.0898,3.0898,3.0898,3.0898,3.0898,3.0898,3.0898,3.1055,3.1426,3.1484,3.1875,3.2617,3.2637,3.2656,3.2715,3.3125,3.334,3.334,3.3398,3.3418,0.0,0.0,0.0,0.0,0.0,0.0,0.0,0.0,0.0,0.0,0.0,0.0,0.0,0.0,0.0,0.0,0.0,0.0,0.0,0.0,0.0,0.0,0.0,0.0,0.0,0.0,0.0,0.0,0.0,0.0,0.0,1.2913,1.3804,1.4449,1.5902,0.0,1.6605,1.7252,1.7582,1.7582,1.7582,1.7582,1.7582,1.7582,1.7582,1.7582,1.7582,1.7582,1.7582,1.7582,1.7943,1.849,1.849,1.8851,1.943,1.943,1.943,1.9533,2.0371,2.0644,2.0759,2.1601,2.1885,2.2029,2.2938,2.3228,2.3463,2.4507,2.5428,2.6144,2.6586,2.7454,2.8235,2.8531,2.9223,2.9552,2.87,2.9223,2.9766,2.9766,3.0392,3.0898,3.0898,3.0898,3.0898,3.0898,3.0898,3.0898,3.0898,3.0898,3.0898,3.0898,3.0898,3.0898,3.0898,3.0898,3.0898,3.0898,3.0898,3.1074,3.1504,3.1758,3.2168,3.2793,3.2793,3.291,3.3144,3.332,3.3418,3.3418,3.3418,3.3418,0.0,0.0,0.0,0.0,0.0,0.0,0.0,0.0,0.0,0.0,0.0,0.0,0.0,0.0,0.0,0.0,0.0,0.0,0.0,0.0,0.0,0.0,0.0,0.0,0.0,0.0,0.0,0.0,0.0,0.0,1.3099,1.4548,1.5512,1.5956,1.7041,1.7582,1.7582,1.7582,1.7582,1.7582,1.7582,1.7582,1.7582,1.7582,1.7582,1.7582,1.7582,1.7582,1.7582,1.7582,1.7943,1.849,1.849,1.8851,1.943,1.9809,1.9982,2.0141,2.1643,2.2153,2.2363,2.3431,2.3822,2.3944,2.4834,2.5065,2.5264,2.6128,2.7208,2.812,2.8602,2.9545,3.0469,3.082,3.0898,3.0898,3.0898,3.0898,3.0898,3.0898,3.0898,3.0898,3.0898,3.0898,3.0898,3.0898,3.0898,3.0898,3.0898,3.0898,3.0898,3.0898,3.0898,3.0898,3.0898,3.0898,3.0898,3.0898,3.0996,3.125,3.166,3.209,3.2519,3.2949,3.2949,3.3105,3.3418,3.3418,3.3418,3.3418,3.3418,3.3418,0.0,0.0,0.0,0.0,0.0,0.0,0.0,0.0,0.0,0.0,0.0,0.0,0.0,0.0,0.0,0.0,0.0,0.0,0.0,0.0,0.0,0.0,0.0,0.0,0.0,0.0,0.0,0.0,0.0,0.0,1.4574,1.4906,1.5805,1.7411,1.7582,1.7582,1.7582,1.7582,1.7582,1.7582,1.7582,1.7582,1.7582,1.7582,1.7582,1.7582,1.7582,1.7582,1.7582,1.7582,1.7943,1.849,1.849,1.8851,1.9591,2.0973,2.1472,2.1699,2.3151,2.371,2.371,2.3766,2.3822,2.4167,2.6031,2.6603,2.7046,2.9279,2.9985,3.0159,3.0626,3.0801,3.0859,3.0879,3.0898,3.0898,3.0898,3.0898,3.0898,3.0898,3.0898,3.0898,3.0898,3.0898,3.0898,3.0898,3.0898,3.0898,3.0898,3.0898,3.0898,3.0898,3.0898,3.0898,3.0898,3.0898,3.0898,3.0898,3.1269,3.168,3.2109,3.2539,3.2969,3.3379,3.3379,3.3398,3.3418,3.3418,3.3418,3.3418,3.3418,3.3418,0.0,0.0,0.0,0.0,0.0,0.0,0.0,0.0,0.0,0.0,0.0,0.0,0.0,0.0,0.0,0.0,0.0,0.0,0.0,0.0,0.0,0.0,0.0,0.0,0.0,0.0,0.0,0.0,0.0,0.0,1.5922,1.6253,1.6808,1.7569,1.7582,1.7582,1.7582,1.7582,1.7582,1.7582,1.7582,1.7582,1.7582,1.7582,1.7582,1.7635,1.8499,1.8408,1.7595,1.7796,1.8698,1.995,2.0152,2.1044,2.2266,2.2814,2.2983,2.3207,2.4765,2.5261,2.5426,2.6391,2.6847,2.7234,2.8237,2.8709,2.9165,3.0353,3.0644,3.0684,3.0859,3.0898,3.0898,3.0898,3.0898,3.0898,3.0898,3.0898,3.0898,3.0898,3.0898,3.0898,3.0898,3.0898,3.0898,3.0898,3.0898,3.0898,3.0898,3.0898,3.0898,3.0898,3.0898,3.0898,3.0898,3.1133,3.1289,3.1289,3.1699,3.2129,3.2559,3.2715,3.2988,3.3418,3.3418,3.3418,3.3418,3.3418,3.3418,3.3418,3.3418,3.3418,0.4823,0.0,0.0,0.0,0.0,0.0,0.0,0.0,0.0,0.0,0.0,0.0,0.0,0.0,0.0,0.0,0.0,0.0,0.0,0.0,0.0,0.0,0.0,0.0,0.0,0.0,0.0,0.0,0.0,0.0,1.6637,1.7032,1.734,1.7569,1.7582,1.7582,1.7582,1.7582,1.7582,1.7582,1.7582,1.7582,1.7635,1.8094,1.8251,1.8356,1.9731,1.9635,1.8576,1.9159,2.0013,2.0888,2.1665,2.2403,2.3207,2.4211,2.4544,2.4765,2.6318,2.6825,2.7025,2.8114,2.8691,2.9023,2.9609,2.998,3.0293,3.0762,3.0898,3.0898,3.0898,3.0898,3.0898,3.0898,3.0898,3.0898,3.0898,3.0898,3.0898,3.0898,3.0898,3.0898,3.0898,3.0898,3.0898,3.0898,3.0898,3.0898,3.0898,3.0898,3.0898,3.0898,3.0898,3.0937,3.1094,3.1367,3.1582,3.1719,3.2148,3.25,3.2793,3.293,3.3144,3.3418,3.3418,3.3418,3.3418,3.3418,3.3418,3.3418,3.3418,3.3496,0.0,0.0,0.0,0.0,0.0,0.0,0.0,0.0,0.0,0.0,0.0,0.0,0.0,0.0,0.0,0.0,0.0,0.0,0.0,0.0,0.0,0.0,0.0,0.0,0.0,0.0,0.0,0.0,0.0,1.6393,1.6687,1.7045,1.734,1.7569,1.7582,1.7582,1.7582,1.7582,1.7582,1.7582,1.7582,1.7582,1.7635,1.8968,1.9524,1.9627,2.11,2.1206,2.0506,2.1768,2.1905,2.1355,2.2911,2.2807,2.2138,2.5096,2.6155,2.6372,2.7799,2.832,2.8379,2.8809,2.8945,2.9121,2.9941,3.0215,3.0312,3.0762,3.0898,3.0898,3.0898,3.0898,3.0898,3.0898,3.0898,3.0898,3.0898,3.0898,3.0898,3.0898,3.0898,3.0898,3.0898,3.0898,3.0898,3.0898,3.0898,3.0898,3.0898,3.0898,3.0898,3.0918,3.0918,3.1074,3.1504,3.1543,3.1738,3.2168,3.2578,3.2812,3.2812,3.3203,3.3418,3.3418,3.3418,3.3418,3.3418,3.3418,3.3437,3.3437,3.3457,3.3691,0.6379,0.0,0.0,0.0,0.0,0.0,0.0,0.0,0.0,0.0,0.0,0.0,0.0,0.0,0.0,0.0,0.0,0.0,0.0,0.0,0.0,0.0,0.0,0.0,0.0,0.0,0.0,0.0,0.0,1.6393,1.6687,1.7181,1.7502,1.7582,1.7582,1.7582,1.7582,1.7582,1.7582,1.7582,1.7582,1.7582,1.7635,1.7989,1.8146,1.8318,2.096,2.2149,2.2229,2.2494,2.3291,2.4432,2.5107,2.5792,2.6554,2.7384,2.7672,2.7764,2.847,2.875,2.8828,2.9258,2.959,2.9883,3.0137,3.043,3.0723,3.0859,3.0898,3.0898,3.0898,3.0898,3.0898,3.0898,3.0898,3.0898,3.0898,3.0898,3.0898,3.0898,3.0898,3.0898,3.0898,3.0898,3.0898,3.0898,3.0898,3.0898,3.0898,3.0898,3.0996,3.1309,3.1348,3.1523,3.1953,3.2266,3.25,3.2617,3.3008,3.3242,3.3242,3.3359,3.3418,3.3418,3.3418,3.3418,3.3418,3.3418,3.3574,3.3906,3.4199,3.459,0.0,0.0,0.0,0.0,0.0,0.0,0.0,0.0,0.0,0.0,0.0,0.0,0.0,0.0,0.0,0.0,0.0,0.0,0.0,0.0,0.0,0.0,0.0,0.0,0.0,0.0,0.0,0.0,1.6219,1.6633,1.7048,1.7395,1.7582,1.7582,1.7582,1.7582,1.7582,1.7582,1.7582,1.7582,1.7582,1.7582,1.7635,1.8812,1.939,1.9747,2.274,2.4344,2.4915,2.4809,2.5183,2.5882,2.6678,2.7168,2.7438,2.8067,2.8398,2.8594,2.8828,2.9043,2.9258,2.9687,3.0,3.0234,3.043,3.0684,3.0898,3.0898,3.0898,3.0898,3.0898,3.0898,3.0898,3.0898,3.0898,3.0898,3.0898,3.0898,3.0898,3.0898,3.0898,3.0898,3.0898,3.0898,3.0898,3.0898,3.0898,3.0898,3.0898,3.1055,3.125,3.1484,3.168,3.1973,3.2402,3.2656,3.2871,3.3047,3.3281,3.3418,3.3418,3.3418,3.3418,3.3418,3.3418,3.3516,3.3691,3.3516,3.3652,3.4082,3.4707,3.5137,0.0,0.0,0.0,0.0,0.0,0.0,0.0,0.963,0.0,0.0,0.0,0.0,0.0,0.0,0.0,0.0,0.0,0.0,0.0,0.0,0.0,0.0,0.0,0.0,0.0,0.0,0.0,1.5784,1.638,1.6967,1.7555,1.7582,1.7582,1.7582,1.7582,1.7582,1.7582,1.7582,1.7582,1.7582,1.774,1.7845,1.7884,2.0538,2.1908,2.2428,2.508,2.6691,2.7499,2.7662,2.7169,2.6481,2.778,2.7492,2.6499,2.7891,2.8594,2.8926,2.9023,2.9316,2.9707,3.0137,3.0273,3.0351,3.0762,3.0898,3.0898,3.0898,3.0898,3.0898,3.0898,3.0898,3.0898,3.0898,3.0898,3.0898,3.0898,3.0898,3.0898,3.0898,3.0898,3.0898,3.0898,3.0898,3.0898,3.0898,3.0898,3.0918,3.0957,3.1289,3.1562,3.1641,3.2012,3.2402,3.2832,3.2871,3.3027,3.3398,3.3418,3.3418,3.3418,3.3418,3.3437,3.3496,3.3535,3.375,3.4141,3.3809,3.3848,3.4238,3.5078,3.5469,0.0,0.0,0.0,0.0,0.0,0.0,0.0,1.1209,0.0,0.0,0.0,0.0,0.0,0.0,0.0,0.0,0.0,0.0,0.0,0.0,0.0,0.0,0.0,0.0,0.0,0.0,1.5784,1.5784,1.638,1.6967,1.7555,1.7582,1.7582,1.7582,1.7582,1.7582,1.7582,1.7582,1.7582,1.7635,1.8708,1.9228,1.9265,2.0947,2.1908,2.2393,2.4414,2.5558,2.6125,2.7583,2.8043,2.7887,2.8174,2.8121,2.7945,2.8563,2.8848,2.9023,2.9707,3.0,3.0156,3.0605,3.0762,3.0781,3.0859,3.0898,3.0898,3.0898,3.0898,3.0898,3.0898,3.0898,3.0898,3.0898,3.0898,3.0898,3.0898,3.0898,3.0898,3.0898,3.0898,3.0898,3.0898,3.0898,3.0898,3.0898,3.0898,3.1016,3.1348,3.1465,3.1777,3.2461,3.2617,3.2851,3.3262,3.3301,3.334,3.3418,3.3418,3.3418,3.3418,3.3418,3.3594,3.3945,3.4277,3.4492,3.457,3.4863,3.5059,3.5156,3.5664,3.5898,0.0,0.0,0.0,1.2759,0.0,0.0,0.0,0.0,0.0,0.0,0.0,0.0,0.0,0.0,0.0,0.0,0.0,0.0,0.0,0.0,0.0,0.0,0.0,0.0,0.0,0.0,1.5904,1.6246,1.654,1.6967,1.7555,1.7582,1.7582,1.7582,1.7582,1.7582,1.7582,1.7582,1.7937,1.8603,1.9265,1.9973,2.0692,2.2299,2.3202,2.3756,2.554,2.6578,2.7028,2.7917,2.8301,2.8301,2.8301,2.8418,2.8633,2.8848,2.9199,2.9609,3.0039,3.0351,3.0586,3.082,3.0898,3.0898,3.0898,3.0898,3.0898,3.0898,3.0898,3.0898,3.0898,3.0898,3.0898,3.0898,3.0898,3.0898,3.0898,3.0898,3.0898,3.0898,3.0898,3.0898,3.0898,3.0898,3.0957,3.1172,3.1211,3.1367,3.1777,3.2031,3.2324,3.2754,3.2988,3.3184,3.3398,3.3418,3.3418,3.3418,3.3418,3.3418,3.3418,3.3418,3.3633,3.4062,3.4707,3.5039,3.5039,3.5488,3.5605,3.541,3.582,3.6016,0.0,0.0,0.0,0.0,0.0,1.2839,0.0,0.0,0.0,1.296,0.0,0.0,0.0,0.0,0.0,0.0,0.0,0.0,0.0,0.0,0.0,0.0,0.0,0.0,0.0,0.0,1.5925,1.658,1.6567,1.682,1.7514,1.7555,1.7582,1.7582,1.7582,1.7582,1.7582,1.7832,1.8579,1.9717,2.0287,2.1126,2.2384,2.4071,2.5084,2.5592,2.7064,2.791,2.8301,2.8301,2.8301,2.8301,2.8301,2.8555,2.8926,2.9004,2.9531,3.0215,3.0293,3.0586,3.0898,3.0898,3.0898,3.0898,3.0898,3.0898,3.0898,3.0898,3.0898,3.0898,3.0898,3.0898,3.0898,3.0898,3.0898,3.0898,3.0898,3.0898,3.0898,3.0898,3.0957,3.0996,3.0898,3.0957,3.1133,3.1465,3.1582,3.1797,3.2226,3.2578,3.2832,3.291,3.3223,3.3418,3.3418,3.3418,3.3418,3.3418,3.3418,3.3418,3.3418,3.3574,3.3867,3.4316,3.5117,3.5508,3.5508,3.5859,3.584,3.5527,3.5859,3.6016,0.0,0.0,0.0,0.0,1.4162,0.0,0.0,0.0,1.2462,1.181,0.0,0.0,0.0,0.0,0.0,0.0,0.0,0.0,0.0,0.0,0.0,0.0,0.0,0.0,0.0,0.0,0.0,1.6259,1.6086,1.6299,1.7206,1.7487,1.7582,1.7582,1.7582,1.7582,1.7582,1.876,1.9673,2.0272,2.2654,2.4079,2.4677,2.6058,2.6962,2.7369,2.7584,2.791,2.8301,2.8301,2.8301,2.8301,2.8301,2.8555,2.8965,2.9355,2.9785,3.0254,3.0664,3.084,3.0898,3.0898,3.0898,3.0898,3.0898,3.0898,3.0898,3.0898,3.0898,3.0898,3.0898,3.0898,3.0898,3.0898,3.0898,3.0898,3.0898,3.0898,3.0898,3.0898,3.1191,3.1328,3.0957,3.1191,3.1465,3.1504,3.1855,3.2246,3.2676,3.2773,3.293,3.332,3.3398,3.3418,3.3418,3.3418,3.3418,3.3418,3.3418,3.3418,3.3418,3.416,3.4766,3.5234,3.5703,3.5957,3.5957,3.5996,3.5996,3.5957,3.5996,3.6016,0.0,0.0,0.0,0.0,0.0,0.0,0.0,0.0,1.2315,0.0,0.0,0.0,0.0,0.0,0.0,0.0,0.0,0.0,0.0,0.0,0.0,0.0,0.0,0.0,0.0,0.0,0.0,0.0,0.0,1.6032,1.7152,1.7313,1.746,1.7582,1.7582,1.8071,1.9137,1.9702,2.1008,2.3043,2.4189,2.5227,2.6205,2.7008,2.75,2.7728,2.793,2.8125,2.8301,2.8301,2.8437,2.8652,2.8652,2.8926,2.9355,2.9785,3.0215,3.0625,3.082,3.0898,3.0898,3.0898,3.0898,3.0898,3.0898,3.0898,3.0898,3.0898,3.0898,3.0898,3.0898,3.0898,3.0898,3.0898,3.0898,3.0898,3.0898,3.1074,3.125,3.125,3.1601,3.1836,3.166,3.1777,3.1894,3.1894,3.2266,3.2676,3.3105,3.3164,3.3223,3.3398,3.3418,3.3418,3.3418,3.3418,3.3418,3.3418,3.3652,3.3906,3.416,3.4766,3.5195,3.5391,3.5801,3.6016,3.6016,3.6016,3.6016,3.6016,3.6016,3.6016,1.5156,0.0,0.0,0.0,0.0,0.0,0.0,0.0,0.0,0.0,0.0,0.0,0.0,0.0,0.0,0.0,0.0,0.0,0.0,0.0,0.0,0.0,0.0,0.0,0.0,0.0,0.0,0.0,0.0,0.0,1.6898,1.7112,1.73,1.7462,1.7896,1.8864,2.028,2.1055,2.2645,2.5174,2.5558,2.6328,2.7383,2.7695,2.7832,2.7851,2.8164,2.8301,2.8301,2.8418,2.8652,2.8945,2.918,2.9453,2.9785,3.0078,3.0488,3.0898,3.0898,3.0898,3.0898,3.0898,3.0898,3.0898,3.0898,3.0898,3.0898,3.0898,3.0898,3.0898,3.0898,3.0898,3.0898,3.0898,3.0898,3.0918,3.1035,3.1309,3.1562,3.168,3.2051,3.2305,3.2248,3.2266,3.2344,3.2344,3.2695,3.3066,3.3379,3.3418,3.3418,3.3418,3.3418,3.3418,3.3418,3.3418,3.3476,3.3594,3.3887,3.4316,3.4863,3.5215,3.5449,3.5566,3.5859,3.6016,3.6016,3.6016,3.6016,3.6016,3.6016,3.6016,0.0,0.0,0.0,0.0,0.0,0.0,0.0,0.0,1.3093,0.0,0.0,0.0,0.0,0.0,0.0,1.1993,0.0,0.0,0.0,0.0,0.0,0.0,0.0,0.0,0.0,0.0,0.0,0.0,0.0,0.0,1.6246,1.6884,1.7206,1.7219,1.8706,1.9792,2.028,2.2877,2.4657,2.5592,2.697,2.7851,2.8262,2.8262,2.8262,2.8281,2.8281,2.8301,2.832,2.873,2.8906,2.9004,2.9824,3.0156,3.0176,3.0195,3.0488,3.0898,3.0898,3.0898,3.0898,3.0898,3.0898,3.0898,3.0898,3.0898,3.0898,3.0898,3.0898,3.0898,3.0898,3.0898,3.0898,3.0898,3.0898,3.0996,3.1406,3.1504,3.1641,3.207,3.248,3.2656,3.2307,3.25,3.2773,3.2773,3.3125,3.3398,3.3418,3.3418,3.3418,3.3418,3.3418,3.3418,3.3418,3.3418,3.3594,3.4023,3.4062,3.4453,3.5332,3.5391,3.5586,3.5996,3.6016,3.6016,3.6016,3.6016,3.6016,3.6016,3.6016,3.6016,0.0,0.0,1.5645,1.4856,0.0,0.0,0.0,0.0,0.0,0.0,0.0,0.0,0.0,0.0,0.0,1.2225,0.0,0.0,0.0,0.0,0.0,0.0,0.0,0.0,0.0,0.0,0.0,0.0,0.0,0.0,0.0,1.8713,1.9648,2.0147,2.0968,2.2146,2.3804,2.472,2.5906,2.7409,2.7854,2.8164,2.8301,2.8301,2.8301,2.8301,2.8301,2.8301,2.832,2.875,2.9082,2.9414,2.998,3.0391,3.0644,3.0644,3.0762,3.0898,3.0898,3.0898,3.0898,3.0898,3.0898,3.0898,3.0898,3.0898,3.0898,3.0898,3.0898,3.0898,3.0898,3.0898,3.0898,3.0898,3.0898,3.0996,3.1426,3.1738,3.207,3.25,3.293,3.3164,3.3027,3.3105,3.3105,3.2832,3.3144,3.3418,3.3418,3.3418,3.3418,3.3418,3.3418,3.3418,3.3418,3.3418,3.373,3.4434,3.4492,3.4883,3.5762,3.5801,3.5879,3.6016,3.6016,3.6016,3.6016,3.6016,3.6016,3.6016,3.6016,3.6016,1.5731,1.5784,0.0,1.511,1.4727,0.0,1.352,0.0,0.0,0.0,0.0,0.0,0.0,0.0,0.0,1.2532,1.1971,0.0,0.0,0.0,0.0,0.0,0.0,0.0,0.0,0.0,1.4061,1.5229,0.0,0.0,0.0,0.0,2.0899,2.1478,2.2503,2.3861,2.5592,2.6106,2.6967,2.8301,2.8301,2.8301,2.8301,2.8301,2.8301,2.8301,2.8301,2.8301,2.834,2.8906,2.9316,2.9685,3.0215,3.0625,3.0898,3.0898,3.0898,3.0898,3.0898,3.0898,3.0898,3.0898,3.0898,3.0898,3.0898,3.0898,3.0898,3.0898,3.0898,3.0898,3.0898,3.0898,3.0898,3.0898,3.0996,3.123,3.166,3.209,3.2519,3.293,3.3242,3.3418,3.3418,3.3418,3.332,3.3066,3.3242,3.3418,3.3418,3.3418,3.3418,3.3418,3.3418,3.3418,3.3418,3.3691,3.4121,3.4668,3.4863,3.5273,3.5996,3.6016,3.6016,3.6016,3.6016,3.6016,3.6016,3.6016,3.6016,3.6016,3.6016,3.6094]},{"header":{"parameterUnit":"m.s-1","parameterCategory":1,"la1":30.6,"la2":29.2853,"lo1":-89.7004,"lo2":-87.6739,"dy":0.0162,"dx":0.0183,"nx":112,"ny":82,"refTime":"2024-10-06T18:00:00:Z","depth":0,"parameterNumber":3,"parameterNumberName":"V-component_of_WINDS"},"data":[0.0,0.0,0.0,0.0,0.0,0.0,0.0,0.0,0.0,0.0,0.0,0.0,0.0,0.0,0.0,0.0,0.0,0.0,0.0,0.0,0.0,0.0,0.0,0.0,0.0,0.0,0.0,0.0,0.0,0.0,0.0,0.0,0.0,0.0,0.0,0.0,0.0,0.0,0.0,0.0,0.0,0.0,0.0,0.0,0.0,0.0,0.0,0.0,0.0,0.0,0.0,0.0,0.0,0.0,0.0,0.0,0.0,0.0,0.0,0.0,0.0,0.0,0.0,0.0,0.0,0.0,0.0,0.0,0.0,0.0,0.0,0.0,0.0,0.0,0.0,0.0,0.0,0.0,0.0,0.0,0.0,0.0,0.0,0.0,0.0,0.0,0.0,0.0,0.0,0.0,0.0,3.1158,3.3991,3.5691,3.5743,3.4675,3.2991,3.065,0.0,0.0,0.0,0.0,0.0,0.0,0.0,0.0,0.0,0.0,0.0,0.0,0.0,0.0,0.0,0.0,0.0,0.0,0.0,0.0,0.0,0.0,0.0,0.0,0.0,0.0,0.0,0.0,0.0,0.0,0.0,0.0,0.0,0.0,0.0,0.0,0.0,0.0,0.0,0.0,0.0,0.0,0.0,0.0,0.0,0.0,0.0,0.0,0.0,0.0,0.0,0.0,0.0,0.0,0.0,0.0,0.0,0.0,0.0,0.0,0.0,0.0,0.0,0.0,0.0,0.0,0.0,0.0,0.0,0.0,0.0,0.0,0.0,0.0,0.0,0.0,0.0,0.0,0.0,0.0,0.0,0.0,0.0,0.0,0.0,0.0,0.0,0.0,0.0,0.0,0.0,0.0,0.0,0.0,0.0,0.0,0.0,0.0,0.0,0.0,0.0,0.0,0.0,0.0,2.8897,3.3593,3.5071,3.5752,3.5847,3.4187,3.2347,3.0608,0.0,0.0,0.0,0.0,0.0,0.0,0.0,0.0,0.0,0.0,0.0,0.0,0.0,0.0,0.0,0.0,0.0,0.0,0.0,0.0,0.0,0.0,0.0,0.0,0.0,0.0,0.0,0.0,0.0,0.0,0.0,0.0,0.0,0.0,0.0,0.0,0.0,0.0,0.0,0.0,0.0,0.0,0.0,0.0,0.0,0.0,0.0,0.0,0.0,0.0,0.0,0.0,0.0,0.0,0.0,0.0,0.0,0.0,0.0,0.0,0.0,0.0,0.0,0.0,0.0,0.0,0.0,0.0,0.0,0.0,0.0,0.0,0.0,0.0,0.0,0.0,0.0,0.0,0.0,0.0,0.0,0.0,0.0,0.0,0.0,0.0,0.0,0.0,0.0,0.0,0.0,0.0,0.0,0.0,0.0,0.0,0.0,0.0,0.0,0.0,0.0,0.0,0.0,2.8164,3.0116,3.4835,3.5556,3.5719,3.5748,3.3996,3.2196,3.0539,2.7209,0.0,0.0,0.0,0.0,0.0,0.0,0.0,0.0,0.0,0.0,0.0,0.0,0.0,0.0,0.0,0.0,0.0,0.0,0.0,0.0,0.0,0.0,0.0,0.0,0.0,0.0,0.0,0.0,0.0,0.0,0.0,0.0,0.0,0.0,0.0,0.0,0.0,0.0,0.0,0.0,0.0,0.0,0.0,0.0,0.0,0.0,0.0,0.0,0.0,0.0,0.0,0.0,0.0,0.0,0.0,0.0,0.0,0.0,0.0,0.0,0.0,0.0,0.0,0.0,0.0,0.0,0.0,0.0,0.0,0.0,0.0,0.0,0.0,0.0,0.0,0.0,0.0,0.0,0.0,0.0,0.0,0.0,0.0,0.0,0.0,0.0,0.0,0.0,0.0,0.0,0.0,0.0,0.0,0.0,0.0,0.0,0.0,0.0,0.0,0.0,0.0,0.0,3.0232,3.1747,3.5253,3.5666,3.5616,3.5373,3.3473,3.1583,2.9923,2.564,0.0,0.0,0.0,0.0,0.0,0.0,0.0,0.0,0.0,0.0,0.0,0.0,0.0,0.0,0.0,0.0,0.0,0.0,0.0,0.0,0.0,0.0,0.0,0.0,0.0,0.0,0.0,0.0,0.0,0.0,0.0,0.0,0.0,0.0,0.0,0.0,0.0,0.0,0.0,0.0,0.0,0.0,0.0,0.0,0.0,0.0,0.0,0.0,0.0,0.0,0.0,0.0,0.0,0.0,0.0,0.0,0.0,0.0,0.0,0.0,0.0,0.0,0.0,0.0,0.0,0.0,0.0,0.0,0.0,0.0,0.0,0.0,0.0,0.0,0.0,0.0,0.0,0.0,0.0,0.0,0.0,0.0,0.0,0.0,0.0,0.0,0.0,0.0,0.0,0.0,0.0,0.0,0.0,0.0,0.0,0.0,0.0,0.0,0.0,0.0,0.0,0.0,3.0703,3.3555,3.4687,3.534,3.5412,3.4633,3.2106,2.9846,2.8159,2.3338,0.0,0.0,0.0,0.0,0.0,0.0,0.0,0.0,0.0,0.0,0.0,0.0,0.0,0.0,0.0,0.0,0.0,0.0,0.0,0.0,0.0,0.0,0.0,0.0,0.0,0.0,0.0,0.0,0.0,0.0,0.0,0.0,0.0,0.0,0.0,0.0,0.0,0.0,0.0,0.0,0.0,0.0,0.0,0.0,0.0,0.0,0.0,0.0,0.0,0.0,0.0,0.0,0.0,0.0,0.0,0.0,0.0,0.0,0.0,0.0,0.0,0.0,0.0,0.0,0.0,0.0,0.0,0.0,0.0,0.0,0.0,0.0,0.0,0.0,0.0,0.0,0.0,0.0,0.0,0.0,0.0,0.0,0.0,0.0,0.0,0.0,0.0,0.0,0.0,0.0,0.0,0.0,0.0,0.0,0.0,0.0,0.0,0.0,0.0,0.0,0.0,0.0,2.9803,3.2487,0.0,3.479,3.4789,3.4365,3.1923,2.9692,2.8011,0.0,0.0,0.0,0.0,0.0,0.0,0.0,0.0,0.0,0.0,0.0,0.0,0.0,0.0,0.0,0.0,0.0,0.0,0.0,0.0,0.0,0.0,0.0,0.0,0.0,0.0,0.0,0.0,0.0,0.0,0.0,0.0,0.0,0.0,0.0,0.0,0.0,0.0,0.0,0.0,0.0,0.0,0.0,0.0,0.0,0.0,0.0,0.0,0.0,0.0,0.0,0.0,0.0,0.0,0.0,0.0,0.0,0.0,0.0,0.0,0.0,0.0,0.0,0.0,0.0,0.0,0.0,0.0,0.0,0.0,0.0,0.0,0.0,0.0,0.0,0.0,0.0,0.0,0.0,0.0,0.0,0.0,0.0,0.0,0.0,0.0,0.0,0.0,0.0,0.0,0.0,0.0,0.0,0.0,0.0,0.0,0.0,0.0,0.0,0.0,0.0,0.0,2.6328,2.9295,3.1895,0.0,3.3913,3.3915,3.3462,3.1074,2.889,2.7198,0.0,0.0,0.0,0.0,0.0,0.0,0.0,0.0,0.0,0.0,0.0,0.0,0.0,0.0,0.0,0.0,0.0,0.0,0.0,0.0,0.0,0.0,0.0,0.0,0.0,0.0,0.0,0.0,0.0,0.0,0.0,0.0,0.0,0.0,0.0,0.0,0.0,0.0,0.0,0.0,0.0,0.0,0.0,0.0,0.0,0.0,0.0,0.0,0.0,0.0,0.0,0.0,0.0,0.0,0.0,0.0,0.0,0.0,0.0,0.0,0.0,0.0,0.0,0.0,0.0,0.0,0.0,0.0,0.0,0.0,0.0,0.0,0.0,0.0,0.0,0.0,0.0,0.0,0.0,0.0,0.0,0.0,0.0,0.0,0.0,0.0,0.0,0.0,0.0,0.0,0.0,0.0,0.0,0.0,0.0,0.0,0.0,0.0,0.0,0.0,0.0,0.0,2.5586,2.9492,3.2146,3.2008,3.2732,3.2813,3.1866,2.9414,2.7159,0.0,0.0,0.0,0.0,0.0,0.0,0.0,0.0,0.0,0.0,0.0,0.0,0.0,0.0,0.0,0.0,0.0,0.0,0.0,0.0,0.0,0.0,0.0,0.0,0.0,0.0,0.0,0.0,0.0,0.0,0.0,0.0,0.0,0.0,0.0,0.0,0.0,0.0,0.0,0.0,0.0,0.0,0.0,0.0,0.0,0.0,0.0,0.0,0.0,0.0,0.0,0.0,0.0,0.0,0.0,0.0,0.0,0.0,0.0,0.0,0.0,0.0,0.0,0.0,0.0,0.0,0.0,0.0,0.0,0.0,0.0,0.0,0.0,0.0,0.0,0.0,0.0,0.0,0.0,0.0,0.0,0.0,0.0,0.0,0.0,0.0,0.0,0.0,0.0,0.0,0.0,0.0,0.0,0.0,0.0,0.0,0.0,0.0,0.0,0.0,0.0,0.0,0.0,0.0,2.9954,3.2702,3.1985,3.2651,3.2744,3.183,2.9385,2.7159,2.5423,0.0,0.0,0.0,0.0,0.0,0.0,0.0,0.0,0.0,0.0,0.0,0.0,0.0,0.0,0.0,0.0,0.0,0.0,0.0,0.0,0.0,0.0,0.0,0.0,0.0,0.0,0.0,0.0,0.0,0.0,0.0,0.0,0.0,0.0,0.0,0.0,0.0,0.0,0.0,0.0,0.0,0.0,0.0,0.0,0.0,0.0,0.0,0.0,0.0,0.0,0.0,0.0,0.0,0.0,0.0,0.0,0.0,0.0,0.0,0.0,0.0,0.0,0.0,0.0,0.0,0.0,0.0,0.0,0.0,0.0,0.0,0.0,0.0,0.0,0.0,0.0,0.0,0.0,0.0,0.0,0.0,0.0,0.0,0.0,0.0,0.0,0.0,0.0,0.0,0.0,0.0,0.0,0.0,0.0,0.0,0.0,0.0,0.0,0.0,0.0,0.0,0.0,2.6523,3.0259,3.2678,3.2457,3.2796,3.2676,3.1788,2.9967,2.8005,2.5962,0.0,0.0,0.0,0.0,0.0,0.0,0.0,0.0,0.0,0.0,0.0,0.0,0.0,0.0,0.0,0.0,0.0,0.0,0.0,0.0,0.0,0.0,0.0,0.0,0.0,0.0,0.0,0.0,0.0,0.0,0.0,0.0,0.0,0.0,0.0,0.0,0.0,0.0,0.0,0.0,0.0,0.0,0.0,0.0,0.0,0.0,0.0,0.0,0.0,0.0,0.0,0.0,0.0,0.0,0.0,0.0,0.0,0.0,0.0,0.0,0.0,0.0,0.0,0.0,0.0,0.0,0.0,0.0,0.0,0.0,0.0,0.0,0.0,0.0,0.0,0.0,0.0,0.0,0.0,0.0,0.0,0.0,0.0,0.0,0.0,0.0,0.0,0.0,0.0,0.0,0.0,0.0,0.0,0.0,0.0,0.0,0.0,0.0,0.0,0.0,0.0,0.0,2.7968,3.0528,3.2394,3.3109,3.3158,3.2761,3.1903,3.0923,2.9385,2.6967,0.0,0.0,0.0,0.0,0.0,0.0,0.0,0.0,0.0,0.0,0.0,0.0,0.0,0.0,0.0,0.0,0.0,0.0,0.0,0.0,0.0,0.0,0.0,0.0,0.0,0.0,0.0,0.0,0.0,0.0,0.0,0.0,0.0,0.0,0.0,0.0,0.0,0.0,0.0,0.0,0.0,0.0,0.0,0.0,0.0,0.0,0.0,0.0,0.0,0.0,0.0,0.0,0.0,0.0,0.0,0.0,0.0,0.0,0.0,0.0,2.0331,0.0,0.0,0.0,0.0,0.0,0.0,0.0,0.0,0.0,0.0,0.0,0.0,0.0,0.0,0.0,0.0,0.0,0.0,0.0,0.0,0.0,0.0,0.0,0.0,0.0,0.0,0.0,0.0,0.0,0.0,0.0,0.0,0.0,0.0,0.0,0.0,0.0,0.0,0.0,0.0,0.0,2.7906,3.0981,3.2976,3.3033,3.3567,3.3583,3.2699,3.1269,2.9885,2.8626,0.0,0.0,0.0,0.0,0.0,0.0,0.0,0.0,0.0,0.0,0.0,0.0,0.0,0.0,0.0,0.0,0.0,0.0,0.0,0.0,0.0,0.0,0.0,0.0,0.0,0.0,0.0,0.0,0.0,0.0,0.0,0.0,0.0,0.0,0.0,0.0,0.0,0.0,0.0,0.0,0.0,0.0,0.0,0.0,0.0,0.0,0.0,0.0,0.0,0.0,0.0,0.0,0.0,0.0,0.0,0.0,0.0,0.0,0.0,0.0,0.0,2.2482,0.0,0.0,0.0,0.0,0.0,0.0,0.0,0.0,0.0,0.0,0.0,0.0,0.0,0.0,0.0,0.0,0.0,0.0,0.0,0.0,0.0,0.0,0.0,0.0,0.0,0.0,0.0,0.0,0.0,0.0,0.0,0.0,0.0,0.0,0.0,0.0,0.0,0.0,0.0,0.0,2.8994,3.1566,3.3395,3.4153,3.4602,3.4468,3.3583,3.2771,3.1741,3.0477,2.8064,0.0,0.0,0.0,0.0,0.0,0.0,0.0,0.0,0.0,0.0,0.0,0.0,0.0,0.0,0.0,0.0,0.0,0.0,0.0,0.0,0.0,0.0,0.0,0.0,0.0,0.0,0.0,0.0,0.0,0.0,0.0,0.0,0.0,0.0,0.0,0.0,0.0,0.0,0.0,0.0,0.0,0.0,0.0,0.0,0.0,0.0,0.0,0.0,0.0,0.0,0.0,0.0,0.0,0.0,2.8383,2.9382,2.9653,2.9687,2.9484,2.781,2.6673,2.5879,0.0,0.0,0.0,0.0,0.0,0.0,0.0,0.0,0.0,0.0,0.0,0.0,0.0,0.0,0.0,0.0,0.0,0.0,0.0,0.0,0.0,0.0,0.0,0.0,0.0,3.0198,2.9462,0.0,0.0,0.0,0.0,0.0,0.0,0.0,0.0,0.0,0.0,0.0,0.0,3.0411,3.2248,3.3834,3.5431,3.5527,3.5192,3.4468,3.4351,3.3698,3.2318,3.0733,2.9244,0.0,0.0,0.0,0.0,0.0,0.0,0.0,0.0,0.0,0.0,0.0,0.0,0.0,0.0,0.0,0.0,0.0,0.0,0.0,0.0,0.0,0.0,0.0,0.0,0.0,0.0,0.0,0.0,0.0,0.0,0.0,0.0,1.8401,1.9069,0.0,0.0,0.0,0.0,0.0,0.0,0.0,0.0,0.0,0.0,0.0,0.0,0.0,0.0,2.8265,2.9653,3.0074,2.9668,3.1596,3.1935,3.0954,3.2239,3.2476,3.1907,3.2704,0.0,2.7486,2.6998,0.0,0.0,0.0,0.0,0.0,0.0,0.0,0.0,0.0,0.0,0.0,0.0,0.0,0.0,0.0,0.0,0.0,0.0,0.0,0.0,0.0,0.0,3.1802,3.1423,3.1968,3.216,0.0,2.8709,2.6949,2.5943,0.0,0.0,0.0,0.0,0.0,0.0,0.0,0.0,3.1471,3.318,3.4525,3.547,3.5527,3.5462,3.5346,3.4693,3.4202,3.397,3.2519,3.1571,3.1342,2.9136,0.0,0.0,0.0,0.0,0.0,0.0,0.0,0.0,0.0,0.0,0.0,0.0,0.0,0.0,0.0,0.0,0.0,0.0,0.0,0.0,0.0,0.0,0.0,0.0,0.0,0.0,0.0,0.0,0.0,1.7973,1.9877,2.01,2.0893,2.1114,0.0,0.0,0.0,0.0,0.0,0.0,0.0,0.0,0.0,2.8078,2.8856,2.9754,3.0838,3.1901,3.2476,3.2577,3.3558,3.3897,3.3694,3.4643,3.4926,3.4658,3.5529,3.456,3.2283,3.0423,2.9201,2.8421,0.0,0.0,0.0,0.0,0.0,2.7442,2.7715,0.0,0.0,0.0,0.0,0.0,0.0,0.0,0.0,0.0,0.0,0.0,0.0,0.0,0.0,3.3692,3.4115,3.4269,3.3923,3.2583,3.0891,0.0,2.7734,2.663,2.5716,0.0,0.0,0.0,0.0,0.0,3.2343,3.3686,3.4722,3.5581,3.565,3.5616,3.5616,3.5376,3.5194,3.5194,3.415,3.351,3.351,3.1562,2.9687,0.0,0.0,0.0,0.0,0.0,0.0,0.0,0.0,0.0,0.0,0.0,0.0,0.0,0.0,0.0,0.0,0.0,0.0,0.0,0.0,0.0,0.0,0.0,0.0,0.0,0.0,0.0,0.0,1.9571,2.1377,2.1074,2.2322,2.2812,0.0,0.0,0.0,0.0,0.0,0.0,2.7469,2.7909,2.9059,3.1157,3.2138,3.3053,3.3932,3.4491,3.5121,3.5784,3.5784,3.6092,3.6641,3.7047,3.7199,3.7239,3.7562,3.7361,3.656,3.3687,3.225,3.1657,3.0368,2.9989,3.0234,3.0234,3.0416,3.0755,3.1336,3.1736,3.1846,3.1032,0.0,3.0249,2.9042,0.0,0.0,0.0,0.0,3.166,3.2891,0.0,3.416,3.5231,3.55,3.55,3.55,3.5007,3.3891,0.0,3.0506,2.939,2.8195,0.0,0.0,0.0,0.0,3.1106,3.3295,3.4319,3.5039,3.5677,3.5739,3.5687,3.5687,3.5831,3.5901,3.5901,3.5347,3.5039,3.5039,3.3633,3.2031,0.0,0.0,0.0,0.0,0.0,0.0,0.0,0.0,0.0,0.0,0.0,0.0,0.0,0.0,0.0,0.0,0.0,0.0,0.0,0.0,0.0,0.0,0.0,0.0,0.0,0.0,0.0,0.0,0.0,0.0,2.24,2.5324,0.0,0.0,0.0,0.0,2.6488,2.7148,2.8263,2.9818,3.1278,3.2699,3.4235,3.5746,3.7126,3.8378,3.8413,3.8726,3.9352,3.9352,3.9352,3.9388,3.9408,3.9428,3.9412,3.9139,3.8976,3.876,3.6309,3.4866,3.4202,3.373,3.3537,3.355,3.355,3.4227,3.5055,3.4358,3.4808,3.5605,3.4715,3.3486,3.2386,3.2544,3.1571,0.0,0.0,3.2737,3.4013,3.4129,3.5315,3.6346,3.5654,3.55,3.55,3.55,3.5462,3.5154,0.0,3.2699,3.1559,3.1559,0.0,3.0616,3.1687,3.2515,3.3412,3.449,3.5225,3.5716,3.5855,3.5769,3.5687,3.5687,3.5831,3.5901,3.5901,3.5933,3.5937,3.5937,3.5078,3.3789,3.2109,2.9447,0.0,0.0,0.0,0.0,0.0,0.0,0.0,0.0,0.0,0.0,0.0,0.0,0.0,0.0,0.0,0.0,0.0,0.0,0.0,0.0,0.0,0.0,0.0,0.0,0.0,0.0,0.0,0.0,2.4425,2.6894,0.0,0.0,2.7841,2.9093,2.9567,3.0277,3.1562,3.3537,3.4134,3.5115,3.6637,3.7212,3.7736,3.8173,3.8513,3.8807,3.9021,3.9393,3.9609,3.9629,3.9885,4.0072,4.0055,4.0289,4.0404,4.0331,3.9455,3.8031,3.6309,3.5673,3.5422,3.5422,3.5422,3.5779,3.6273,3.6149,3.6522,3.7014,3.688,3.5954,3.5089,3.5912,3.5391,3.4654,3.5507,3.6161,3.6661,3.6661,3.7084,3.7469,3.7199,3.6692,3.6304,3.6375,3.5973,3.5505,3.5209,3.4192,3.3218,3.2735,3.2423,3.2391,3.2826,3.356,3.4466,3.5429,3.5736,3.5924,3.5971,3.5926,3.5882,3.5882,3.5929,3.5737,3.5151,3.5155,3.4922,3.4336,3.4023,3.3319,3.2098,3.0585,2.8508,0.0,0.0,0.0,0.0,0.0,0.0,0.0,0.0,0.0,0.0,0.0,0.0,0.0,0.0,0.0,0.0,0.0,0.0,0.0,0.0,0.0,0.0,0.0,0.0,0.0,0.0,2.6387,2.6336,2.8789,3.0074,2.9041,3.0326,3.163,3.2611,3.3119,3.4376,3.6546,3.6887,3.7558,3.8814,3.9089,3.9319,3.9544,3.9869,4.015,4.0299,4.0711,4.0919,4.0919,4.1252,4.1378,4.136,4.1455,4.1515,4.1462,4.1205,4.0199,3.8803,3.7868,3.7331,3.7125,3.7196,3.7448,3.7727,3.8102,3.8222,3.8189,3.8393,3.7732,3.6993,3.7778,3.7584,3.7276,3.7853,3.82,3.8354,3.8084,3.8211,3.8414,3.815,3.7655,3.7262,3.7352,3.691,3.6505,3.6575,3.5601,3.4628,3.4128,3.4068,3.4123,3.4207,3.4717,3.5306,3.5937,3.6016,3.6016,3.6016,3.6016,3.6016,3.6016,3.5742,3.543,3.5156,3.4609,3.4141,3.3867,3.3281,3.2693,3.2005,3.1117,2.9596,2.7547,0.0,0.0,0.0,0.0,0.0,0.0,0.0,0.0,0.0,0.0,0.0,0.0,0.0,0.0,0.0,0.0,0.0,0.0,0.0,0.0,0.0,0.0,0.0,2.4643,2.7774,2.9548,2.8128,3.1171,3.2882,3.1461,3.2645,3.4112,3.5566,3.5667,3.657,3.8621,3.9418,4.0088,4.0719,4.1442,4.2062,4.2655,4.2674,4.2976,4.348,4.3497,4.3515,4.3515,4.3515,4.3515,4.3478,4.269,4.2323,4.2286,4.1515,4.1366,4.1539,4.0397,3.9454,3.8802,3.9045,3.9364,3.9682,4.0283,3.9977,3.9361,3.9361,3.8738,3.8046,3.8084,3.8046,3.8046,3.8092,3.8676,3.9138,3.8299,3.8743,3.9248,3.8479,3.8313,3.8351,3.8355,3.8316,3.8316,3.8319,3.695,3.5836,3.5972,3.5981,3.5996,3.6054,3.6094,0.0,3.6094,3.6094,3.6094,3.6094,3.6094,3.6055,3.6055,3.5273,3.5117,3.5859,3.4336,3.3789,3.4609,3.3086,3.2183,3.2079,3.1128,3.0195,2.933,0.0,0.0,0.0,0.0,0.0,0.0,0.0,0.0,0.0,0.0,0.0,0.0,0.0,0.0,0.0,0.0,0.0,0.0,0.0,0.0,0.0,0.0,2.8383,2.7825,2.9093,3.0345,3.0987,3.2916,3.4235,3.4382,3.5284,3.6265,3.7212,3.728,3.7933,3.943,3.9695,4.0311,4.1456,4.1669,4.1874,4.2041,4.2462,4.277,4.2902,4.3303,4.3515,4.3515,4.3515,4.3515,4.3515,4.3294,4.3167,4.313,4.291,4.2696,4.2373,4.1489,4.0798,4.0303,4.039,4.0227,4.0022,4.0381,4.0362,4.0169,4.0169,3.9631,3.9053,3.9631,3.94,3.9083,3.9754,4.0134,4.0274,4.0077,4.0208,4.0347,4.0157,3.9638,3.9254,3.9307,3.8812,3.8395,3.8502,3.8116,3.7798,3.7704,3.7801,3.785,3.7891,0.0,0.0,3.7891,3.7891,3.7891,3.7891,3.7891,3.7617,3.6992,3.6719,3.5898,0.0,3.3628,3.3421,3.3686,3.3187,3.317,3.3658,3.3357,3.276,0.0,0.0,0.0,0.0,0.0,0.0,0.0,0.0,0.0,0.0,0.0,0.0,0.0,0.0,0.0,0.0,0.0,0.0,0.0,0.0,0.0,0.0,2.8924,3.0717,3.1244,3.1664,3.2273,3.3139,3.4561,3.5622,3.6062,3.6806,3.755,3.8294,3.8362,3.904,4.0564,4.0644,4.1209,4.2485,4.2505,4.2505,4.2505,4.2865,4.305,4.305,4.3339,4.3515,4.3515,4.3515,4.3515,0.0,4.3515,4.3515,4.3515,4.3627,4.363,0.0,0.0,0.0,0.0,0.0,4.0718,4.0295,4.043,4.0516,4.0516,4.0516,4.0169,3.9915,4.0419,4.0247,4.0018,4.0599,4.0752,4.0733,4.08,4.085,4.0877,4.0877,4.0554,4.0272,4.0334,3.9948,3.9602,3.9687,0.0,0.0,3.9601,3.9021,3.8594,3.8594,3.8594,3.8594,0.0,3.8594,3.8594,3.8594,3.8594,3.8398,3.7891,3.7458,0.0,0.0,0.0,3.4138,3.3771,0.0,0.0,0.0,0.0,0.0,0.0,0.0,0.0,0.0,3.5388,3.5625,0.0,0.0,0.0,0.0,0.0,0.0,0.0,0.0,0.0,0.0,0.0,0.0,0.0,0.0,0.0,0.0,3.0987,3.2239,3.4201,3.4641,3.4742,3.4742,3.5983,3.6863,3.7032,3.7652,3.8352,3.9161,3.9229,3.9984,4.1817,0.0,0.0,0.0,0.0,4.3515,4.3515,4.3515,4.3515,4.3515,4.3515,4.3515,4.3515,4.3515,4.3532,4.3546,4.3546,4.358,4.3647,4.3958,4.429,4.4524,4.3393,4.2697,4.2287,4.1691,4.1147,0.0,0.0,0.0,0.0,4.05,4.0508,4.0545,4.068,4.0726,4.0715,4.0805,4.0836,4.0839,4.085,4.0944,4.1023,4.1023,4.1126,4.1211,4.1211,4.1211,4.1211,4.1211,4.1211,4.1211,4.1211,3.9922,3.8906,3.8906,3.8906,0.0,3.8906,3.8906,3.8906,3.8867,0.0,0.0,3.8709,3.7904,3.7641,3.8229,3.6897,3.5767,3.4969,3.5896,3.6725,3.7352,3.818,3.9608,4.1736,4.1619,4.1797,4.2084,3.858,3.7818,0.0,0.0,0.0,0.0,0.0,0.0,0.0,0.0,0.0,0.0,0.0,0.0,0.0,0.0,0.0,3.0784,3.2611,3.3998,3.4438,3.5577,3.6355,3.6355,3.6626,3.7269,3.8464,3.87,3.9258,4.0433,4.0526,4.1111,4.2442,4.2537,0.0,4.3497,4.3515,4.3515,4.3515,4.3515,4.3515,4.3515,0.0,0.0,4.3515,4.3515,4.3664,4.3912,4.3912,4.411,4.4411,4.4479,4.4714,4.4935,4.4276,4.3953,4.377,4.3047,4.2244,4.1546,4.1546,4.1085,4.05,4.0649,4.0655,4.0686,4.0747,4.0788,0.0,4.0939,4.0959,4.097,4.1083,4.1129,4.117,4.117,4.1171,4.1211,4.1211,4.1211,4.1211,4.1211,4.1211,4.1211,4.1211,4.0937,4.0703,4.0703,4.0703,4.0703,4.0703,4.0703,4.0662,4.0564,4.0521,4.0231,3.9471,3.9211,3.8574,3.7357,3.8176,3.8593,3.8362,4.0492,4.1393,4.0847,4.167,4.1878,4.1389,4.2675,4.3085,4.264,4.1862,4.1571,0.0,0.0,0.0,0.0,0.0,0.0,0.0,0.0,0.0,0.0,0.0,2.6184,0.0,0.0,3.1258,3.3119,3.458,3.5749,3.6504,3.7521,3.7858,3.6898,3.7683,3.8585,3.9316,4.0032,4.0676,4.1318,4.134,4.1746,4.2655,4.2693,4.2957,4.3497,4.3515,4.3515,4.3515,4.3515,4.3515,4.3515,4.3515,4.3515,4.3515,4.366,4.3833,4.3998,4.4204,4.4401,4.4624,4.4788,4.5033,4.5304,4.5042,4.4662,4.4239,4.3855,4.3162,4.2447,4.2478,4.1935,4.126,4.1352,4.1121,4.0752,4.086,4.0889,4.0942,4.1074,4.1084,4.1126,4.1172,4.1211,4.1211,4.1211,4.1211,4.1211,4.1211,4.1211,4.1211,4.1211,4.1211,4.1211,4.1211,4.1211,4.1211,4.1211,4.1211,4.1171,4.1125,4.1084,4.1033,4.0894,4.0889,4.0714,4.0233,4.0562,4.041,3.9468,4.0584,4.1239,4.1208,4.2431,4.3085,4.3047,4.347,4.354,4.3188,4.3882,4.412,4.3989,4.3823,4.3647,0.0,0.0,0.0,0.0,0.0,0.0,0.0,0.0,2.5794,2.7266,2.818,2.9277,3.1258,3.1867,3.2882,3.5397,3.6444,3.7353,3.8525,3.935,3.9265,3.7739,3.8995,4.0026,4.0165,4.1165,4.1853,4.1958,4.1979,4.2241,4.2808,4.2882,4.3069,4.3497,4.3515,4.3515,4.3515,4.3515,4.3512,4.3597,4.3597,4.3647,4.371,4.4004,4.4146,4.4247,4.4625,4.4812,4.4825,4.5105,4.5371,4.5594,4.5594,4.5171,4.4547,4.4547,4.4042,4.3366,4.3415,4.2935,4.2283,4.2381,4.1905,4.1374,4.1484,4.142,4.1309,4.1405,4.1328,4.1211,4.1211,4.1211,4.1211,4.1211,4.1211,4.1211,4.1211,4.1211,4.1172,4.1171,4.117,4.1131,4.1127,4.1244,4.1323,4.117,4.117,4.1125,4.0966,4.0959,4.0894,4.0796,4.0784,4.0852,4.0985,4.1728,4.2174,4.2055,4.2854,4.3316,4.3316,4.3508,4.3893,4.4547,4.4504,4.4624,4.4988,4.4638,4.4711,4.5085,4.4829,4.4764,2.0183,2.0534,2.1393,2.2699,2.3661,2.4948,0.0,0.0,2.8908,3.0378,3.1258,3.209,3.2983,3.4213,3.5453,3.6524,3.7681,3.8525,3.8699,3.9786,4.0501,4.0305,4.0453,4.0884,4.1513,4.1697,4.2021,4.2577,4.2596,4.2827,4.3374,4.3391,4.3445,4.3515,4.3515,4.3515,4.3515,4.3515,4.3664,4.3921,4.3921,4.4117,4.4493,4.4533,4.4714,4.5,4.5323,4.5475,4.5475,4.5541,4.5568,4.5594,4.5594,4.5556,4.5441,4.5441,4.4986,4.4324,4.4344,4.3868,4.3245,4.337,4.3353,4.3283,4.3395,4.2851,4.2265,4.2266,4.1758,4.1211,4.1211,4.1211,4.1211,4.1211,4.1211,4.1211,4.1211,4.1211,4.1171,4.1031,4.1023,4.097,4.0867,4.147,4.177,4.1133,4.1023,4.0966,4.0847,4.0836,4.0792,4.0699,4.0726,4.0977,4.1624,4.2479,4.2956,4.297,4.3701,4.4162,4.4162,4.4902,4.5364,4.5441,4.5178,4.4901,4.4663,4.4261,4.4289,4.4779,4.4726,4.5076,2.2462,2.3173,0.0,0.0,2.5929,2.7554,2.9262,2.9973,3.0838,3.2713,3.3376,3.3795,3.4518,3.516,3.6005,0.0,3.8451,3.9525,4.0397,4.1173,4.1632,4.1632,4.1651,4.181,4.2291,4.2619,4.2866,4.316,4.3178,4.3268,4.3497,4.3515,4.3515,4.3515,4.3515,4.3515,4.3515,4.3693,4.3865,4.3998,4.4233,4.4428,4.4624,4.4812,4.5055,4.54,4.555,4.5594,4.5594,4.5594,4.5594,4.5594,4.5594,4.5632,4.5703,4.5703,4.5522,4.5266,4.5399,4.4887,4.4228,4.436,4.4056,4.3667,4.3672,4.3437,4.3164,4.3164,4.2891,4.2656,4.2656,4.2656,4.2656,4.2656,4.2613,4.2601,4.2601,4.2541,4.2468,4.2396,4.239,4.2376,4.2334,4.2637,4.2745,4.2339,4.2354,4.2354,4.2198,4.2216,4.216,4.2107,4.2092,4.221,4.2516,4.3316,4.3816,4.3816,4.4586,4.5056,4.5056,4.5218,4.5293,4.5293,4.4977,4.4612,4.4247,4.4558,4.4951,4.5406,4.5865,4.6526,2.4135,0.0,0.0,2.61,2.7774,2.9533,3.048,3.1292,3.2374,3.4404,3.481,3.4979,3.5498,3.5769,0.0,3.7887,3.9124,4.041,4.1843,4.2195,4.2286,4.2286,4.2286,4.237,4.2558,4.3158,4.3515,4.3515,4.3515,4.3515,4.3515,4.3515,4.3515,4.3515,4.3597,4.3647,4.3647,4.4004,4.4219,4.4318,4.4587,4.48,4.4896,4.5148,4.5381,4.5594,4.5594,4.5594,4.5594,4.5594,4.5629,4.5648,4.5648,4.5733,4.5813,4.5859,4.5875,4.5901,4.6056,4.5709,4.5216,4.5311,4.4922,4.4414,4.4414,4.4258,4.4062,4.4062,4.3906,4.3711,4.3711,4.3671,4.3668,4.3668,4.3604,4.3557,4.3557,4.3467,4.3402,4.337,4.3321,4.335,4.3313,4.3502,4.3618,4.3504,4.3782,4.3812,4.3233,4.3174,4.3163,4.3102,4.3316,4.3431,4.3431,4.4201,4.4662,4.4662,4.5248,4.5559,4.5457,4.5232,4.5082,4.4954,4.46,4.4388,4.4318,4.4841,4.5463,4.625,4.6819,4.7663,0.0,0.0,2.5931,2.7384,2.8906,3.0446,3.1887,3.278,3.3761,3.5261,3.5566,3.5566,3.56,3.6231,3.7172,3.8464,3.98,4.1136,4.2488,4.2449,4.2286,4.2286,4.2286,4.2323,0.0,4.302,4.3515,4.3515,4.3515,4.3515,4.3515,4.3515,4.3515,4.3515,4.3802,4.3967,4.3967,4.4373,4.4751,4.5094,4.5094,4.5253,4.5568,4.5577,4.5586,4.5594,4.5594,4.5594,4.5594,4.5594,4.568,4.577,4.577,4.5836,4.5927,4.6059,4.6084,4.6084,4.6089,4.6157,4.625,4.625,4.625,4.6211,4.6211,4.5625,4.4961,4.4961,4.4336,4.3711,4.3711,4.3661,4.3589,4.3589,4.3494,4.3415,4.3415,4.3411,4.3374,4.3245,4.3214,4.3201,4.3134,4.3756,4.4256,4.4248,4.4987,4.4949,4.3324,4.3094,4.3094,4.3085,4.3816,4.4239,4.4239,4.5056,4.5556,4.5556,4.5594,4.5448,4.5137,4.5115,4.4943,4.4637,4.4219,4.4407,4.5174,4.4861,4.5516,4.7076,4.7076,4.7976,0.0,0.0,2.7418,2.8939,3.0074,3.1089,3.209,3.2496,3.2949,3.3931,3.3959,3.3979,3.4514,3.5039,3.6068,3.8093,3.9566,4.0936,4.2494,4.2467,4.2286,4.2286,4.2286,0.0,0.0,0.0,0.0,4.3515,4.3515,4.3515,4.3515,4.3515,4.3614,4.3818,4.3958,4.4117,4.4387,4.4726,4.4977,4.5115,4.5341,4.5475,4.5594,4.5594,4.5594,4.5594,4.5594,4.5594,4.5603,4.5712,4.5761,4.579,4.5859,4.5931,4.6059,4.6082,4.6149,4.6245,4.6245,4.6249,4.6289,4.6289,4.6289,4.6289,4.6289,4.6094,4.5859,4.5859,4.5581,4.5293,4.5293,4.5214,4.5114,4.5114,4.5065,4.4998,4.4998,4.4912,4.4846,4.4816,4.4808,4.4784,4.4757,4.4979,4.5171,4.5171,4.5402,4.5402,4.4825,4.4748,4.4748,4.4748,4.5017,4.5171,4.5171,4.5441,4.5594,4.5594,4.5594,4.5448,4.5126,4.4884,4.4574,4.4204,4.4374,4.4603,4.4861,4.5845,4.6562,4.7113,4.8233,4.904,2.6898,2.7811,2.8586,3.0108,3.0852,3.1393,3.2124,3.2293,3.2429,3.2916,3.2715,3.2647,3.3168,3.335,3.4465,3.7644,3.8887,4.0275,4.2649,4.261,4.2286,4.2286,4.2286,0.0,0.0,0.0,0.0,4.3515,4.3515,4.3515,4.3515,4.3614,4.3791,4.3982,4.4261,4.4521,4.4788,4.5088,4.5273,4.5273,4.5514,4.5594,4.5594,4.5594,4.5594,4.5594,4.564,4.5673,4.5688,4.5803,4.5859,4.5915,4.5952,4.6067,4.6153,4.6153,4.6244,4.6289,4.6289,4.6289,4.6289,4.6289,4.6289,4.6289,4.6289,4.6288,4.6245,4.6245,4.6142,4.6014,4.6014,4.5944,4.5852,4.5852,4.5776,4.5718,4.5718,4.5657,4.5594,4.5594,4.5594,4.5594,4.5594,4.5594,4.5594,4.5594,4.5594,4.5594,4.5594,4.5594,4.5594,4.5594,4.5594,4.5594,4.5594,4.5594,4.5559,4.5429,4.5419,4.5222,4.4726,4.4495,4.434,4.4246,4.4554,4.4984,4.5572,4.6599,4.7259,4.7553,4.893,4.9757,2.7572,2.8468,2.9416,3.0818,3.119,3.136,3.209,3.2246,3.2198,3.2164,3.1812,3.1542,0.0,0.0,3.262,3.7085,3.7964,3.9329,4.2969,4.2837,4.2359,0.0,0.0,0.0,0.0,0.0,0.0,4.3515,0.0,4.3515,4.3495,4.3818,4.4013,4.4058,4.4726,4.5126,4.5137,4.5438,4.5594,4.5594,4.5594,4.5594,4.5594,4.5594,4.5603,4.562,4.5747,4.5783,4.5809,4.5877,4.5985,4.6089,4.6093,4.6198,4.6289,4.6289,4.6289,4.6289,4.6289,4.6289,4.6289,4.6289,4.6289,4.6289,4.6289,4.6199,4.6084,4.6084,4.5992,4.587,4.587,4.5847,4.5809,4.5809,4.5704,4.5594,4.5594,4.5594,4.5594,4.5594,4.5594,4.5594,4.5594,4.5594,4.5594,4.5594,4.5594,4.5594,4.5594,4.5594,4.5594,4.5594,4.5594,4.5594,4.5594,4.5577,4.5438,4.5137,4.5066,4.4738,4.4028,4.4035,4.4278,4.4709,4.4764,4.5572,4.7113,4.7149,4.759,4.8379,4.926,5.0088,2.8596,2.9395,3.004,3.0954,3.119,3.1258,3.1427,3.1257,3.0864,3.026,2.961,2.9162,0.0,0.0,0.0,3.6236,3.8716,0.0,4.3204,4.3331,0.0,0.0,0.0,4.3167,4.3167,4.3404,0.0,0.0,4.3515,4.3614,4.3849,4.3937,4.4261,4.4787,4.5,4.5222,4.5457,4.5559,4.5594,4.5594,4.5594,4.5594,4.5594,4.5594,4.5648,4.5754,4.5802,4.5813,4.5881,4.5992,4.6075,4.6093,4.6202,4.6288,4.6289,4.6289,4.6289,4.6289,4.6289,4.6289,4.6289,4.6289,4.6245,4.6147,4.6147,4.6069,4.5963,4.5963,4.5877,4.5846,4.5846,4.5754,4.564,4.564,4.5637,4.5594,4.5594,4.5594,4.5594,4.5594,4.5594,4.5594,4.5594,4.5594,4.5594,4.5594,4.5594,4.5594,4.5594,4.5594,4.5594,4.5594,4.5594,4.5594,4.5594,4.5381,4.5191,4.5115,4.4872,4.4508,4.4013,4.4578,4.4835,4.4709,4.5865,4.6672,4.7113,4.77,4.8416,4.9297,5.0105,5.0912,2.9762,3.0542,3.1159,3.1206,3.1504,3.154,3.0612,3.0403,2.9947,2.8489,2.7685,0.0,0.0,0.0,0.0,0.0,0.0,0.0,4.2653,4.3277,4.3515,0.0,4.3515,0.0,4.3515,4.3515,4.3546,0.0,4.3726,4.3786,4.3982,4.4632,4.5054,4.5105,4.5969,4.6522,4.6701,4.6355,4.6163,4.6163,4.5787,4.5646,4.5696,4.5696,4.5729,4.5853,0.0,4.5935,4.5995,4.6142,4.6198,4.6199,4.6288,4.6289,4.6289,4.6289,4.6289,4.6289,4.6245,4.6203,4.6203,4.6203,4.6138,4.6005,4.6005,4.5935,4.5875,4.5875,4.5803,4.5696,4.5696,4.5648,4.5594,4.5594,4.5594,4.5594,4.5594,4.5594,4.5594,4.5594,4.5594,4.5594,4.5594,4.5594,4.5594,4.5594,4.5594,4.5594,4.5594,4.5594,4.5594,4.5594,4.5457,4.539,4.539,4.5055,4.4825,4.4638,4.4441,4.4333,4.4325,4.4753,4.521,4.5718,4.6636,4.7259,4.7626,4.8453,4.9114,4.9647,5.0765,5.1412,3.0937,3.1687,3.2334,3.1545,3.1863,3.1837,2.9918,2.9677,2.9213,2.6978,0.0,2.5805,2.5779,0.0,2.9219,3.3146,0.0,3.8778,4.1992,4.3057,4.3515,4.3515,4.3515,4.3532,4.3546,4.3674,4.3894,4.4192,4.4393,4.4423,4.431,4.5672,4.6178,4.5513,4.7204,4.8086,4.8086,4.7421,4.7092,4.7092,4.6326,4.6051,4.617,4.617,4.6213,4.6259,0.0,0.0,4.6298,4.6287,4.6289,4.6289,4.6289,4.6289,4.6288,4.6288,4.6249,4.6245,4.6095,4.6072,4.6064,4.6075,4.5985,4.5896,4.5896,4.5836,4.5782,4.5782,4.5704,4.5594,4.5594,4.5594,4.5594,4.5594,4.5594,4.5594,4.5594,4.5594,4.5594,4.5594,4.5594,4.5594,4.5594,4.5594,4.5594,4.5594,4.5568,4.5541,4.5541,4.5577,4.5577,4.555,4.5263,4.5066,4.5022,4.4739,4.4359,4.4013,4.4048,4.4304,4.4672,4.4911,4.5682,4.7076,4.7186,4.7663,4.8489,4.9224,4.9721,4.9941,5.1353,5.1761,3.2044,3.2327,3.245,3.2334,3.1908,3.1232,3.0223,2.926,0.0,0.0,0.0,2.5283,2.4624,2.6863,0.0,3.3256,0.0,0.0,0.0,0.0,4.3515,0.0,0.0,0.0,0.0,0.0,0.0,0.0,0.0,0.0,4.5919,4.6835,4.7422,4.7588,4.7904,4.8086,4.8086,4.8083,4.8058,4.8058,4.8027,4.8025,4.8044,4.8044,4.8105,4.8187,0.0,0.0,4.7304,4.6601,4.6289,4.6289,4.6289,4.6245,4.6142,4.6142,4.6072,4.5974,4.5955,4.5886,4.5847,4.5918,4.5867,4.5821,4.5821,4.574,4.5616,4.5616,4.562,4.5594,4.5594,4.5594,4.5594,4.5594,4.5594,4.5594,4.5594,4.5594,4.5594,4.5594,4.5594,4.5594,4.5594,4.5594,4.5594,4.5594,4.5381,4.5191,4.5191,4.5429,4.5475,4.5211,4.5148,4.4977,4.4726,4.4318,4.4073,4.3998,4.4354,4.4632,4.4709,4.5975,4.6819,4.7076,4.7736,4.8526,4.939,4.9537,5.0271,5.1573,5.1867,5.2632,3.2722,3.3029,3.309,3.2598,3.2235,3.1484,2.9597,0.0,0.0,0.0,0.0,2.4677,2.4263,0.0,0.0,0.0,0.0,0.0,0.0,0.0,0.0,0.0,0.0,0.0,0.0,0.0,0.0,0.0,0.0,0.0,4.7007,4.7531,4.8355,4.9433,4.9009,4.9035,4.9542,4.918,4.9007,4.906,4.8711,4.8534,4.8581,4.8581,4.8699,4.878,0.0,0.0,4.8242,4.7812,4.7656,4.7656,4.7571,4.7242,4.6789,4.6709,4.6621,4.6493,4.6035,4.6117,4.6351,4.5886,4.5708,4.5712,4.5712,4.564,4.5594,4.5594,4.5594,4.5594,4.5594,4.5594,4.5594,4.5594,4.5594,4.5594,4.5594,4.5594,4.5594,4.5594,4.5594,4.5594,4.5594,4.5448,4.5361,4.5361,4.5044,4.4849,4.4849,4.4977,4.5011,4.4861,4.4651,4.4468,4.429,4.4315,4.4354,4.4354,4.4979,4.5516,4.5938,4.6672,4.7516,4.8379,4.8783,4.937,5.0215,5.0639,5.1263,5.2013,5.2858,5.3265,3.3204,3.371,3.3853,3.3003,3.269,3.1882,2.9096,2.7972,0.0,0.0,2.419,2.419,2.419,0.0,0.0,0.0,0.0,0.0,0.0,0.0,0.0,0.0,0.0,0.0,0.0,0.0,0.0,0.0,0.0,0.0,0.0,4.8518,4.9307,5.071,5.0094,5.013,5.0945,5.0293,4.9987,5.0092,4.9418,4.919,4.9272,4.9272,4.9325,4.9414,0.0,0.0,0.0,4.8984,4.8906,4.8906,4.8761,4.8265,4.7621,4.7475,4.7406,4.729,4.6538,4.6721,4.7109,4.6378,4.5902,4.5594,4.5594,4.5594,4.5594,4.5594,4.5594,4.5594,4.5594,4.5594,4.5594,4.5594,4.5594,4.5594,4.5594,4.5594,4.5594,4.5594,4.555,4.5475,4.5475,4.5222,4.5053,4.5205,4.4928,4.4794,4.4968,4.4899,4.4895,4.4895,4.4356,4.4026,4.4119,4.4495,4.4782,4.4966,4.57,4.6434,4.7076,4.7443,4.8269,4.9574,4.9757,5.0251,5.1059,5.1683,5.2098,5.23,5.3544,5.364,3.3546,3.433,3.4697,3.3872,3.313,3.1959,2.949,0.0,0.0,2.4557,2.419,2.419,2.419,2.5727,2.8006,0.0,0.0,3.7205,0.0,0.0,0.0,0.0,0.0,0.0,0.0,0.0,0.0,0.0,0.0,0.0,0.0,5.0423,5.0583,5.0859,5.0782,5.0875,5.1074,5.1066,5.1071,5.1079,5.1123,5.1132,5.1132,5.1132,5.1172,5.1133,0.0,0.0,0.0,4.9219,4.8906,4.8906,4.8761,4.8584,4.8374,4.8257,4.8114,4.7987,4.793,4.7921,4.7998,4.7894,4.6855,4.5594,4.5594,4.5594,4.5594,4.5594,4.5594,4.5594,4.5594,4.5594,4.5594,4.5594,4.5594,4.5594,4.5594,4.5594,4.5594,4.5594,4.5371,4.5159,4.5159,4.4872,4.4877,4.5644,4.54,4.5407,4.6137,4.5958,4.5789,4.5789,4.4707,4.4162,4.4613,4.469,4.5002,4.5736,4.6526,4.7003,4.7113,4.8563,4.9463,4.961,5.0325,5.1096,5.1867,5.194,5.2397,5.3075,5.3243,5.3677,3.333,3.438,3.4821,3.399,3.322,3.1997,2.9695,0.0,2.6357,2.4854,2.4551,2.47,2.5194,2.628,2.802,3.0857,3.2655,0.0,0.0,0.0,0.0,0.0,0.0,0.0,0.0,0.0,0.0,0.0,0.0,0.0,0.0,5.0803,5.0844,5.0889,5.0992,5.1079,5.1154,5.1188,5.126,5.132,5.1366,5.1406,5.1406,5.1406,5.1406,5.1367,0.0,0.0,0.0,5.0412,5.0278,5.0192,5.0087,4.9654,4.9155,4.8995,4.8929,4.8817,4.8279,4.8432,4.8817,4.8279,4.7663,4.7009,4.6547,4.6394,4.6278,4.5748,4.5594,4.5594,4.5594,4.5594,4.5594,4.5594,4.5594,4.555,4.5361,4.5694,4.5948,4.5761,4.5999,4.624,4.624,4.5909,4.5776,4.6098,4.5828,4.5744,4.6077,4.5992,4.5883,4.5883,4.5456,4.5233,4.5424,4.5865,4.6269,4.6599,4.7369,4.8049,4.8563,4.9243,5.0051,5.1042,5.1353,5.17,5.2081,5.298,5.3158,5.262,5.4054,5.4394,3.2865,3.4197,3.4821,3.399,3.3248,3.2096,0.0,0.0,2.6658,2.5409,2.5144,2.5408,2.6246,2.7085,2.8335,3.0397,3.1881,3.3957,0.0,0.0,0.0,0.0,0.0,0.0,0.0,0.0,0.0,0.0,0.0,0.0,0.0,5.0978,5.1008,5.1008,5.1064,5.1158,5.1265,5.1265,5.1318,5.1406,5.1406,5.1406,5.1406,5.1406,5.1367,0.0,0.0,0.0,0.0,5.1167,5.1129,5.1079,5.0959,5.0502,4.9976,4.9833,4.9779,4.9702,4.9086,4.9279,4.9663,4.9086,4.8856,4.8702,4.7894,4.7471,4.7124,4.6509,4.6355,4.6355,4.6355,4.6355,4.6299,4.6177,4.6158,4.6089,4.5723,4.6098,4.6442,4.6197,4.6497,4.6838,4.6838,4.6504,4.6338,4.6561,4.6412,4.6361,4.6581,4.6617,4.6617,4.6617,4.6617,4.6507,4.6287,4.6746,4.7186,4.7443,4.8233,4.8967,4.9574,5.0051,5.0859,5.1977,5.2454,5.2739,5.279,5.3891,5.3881,5.2908,5.4367,5.4451,3.2218,3.3793,3.4821,3.399,3.3401,3.2344,0.0,2.8203,2.6978,2.6163,2.5974,2.6246,2.7138,2.8099,2.9063,2.9949,3.2383,0.0,0.0,0.0,0.0,0.0,0.0,0.0,0.0,0.0,0.0,0.0,0.0,0.0,0.0,0.0,5.1201,5.1201,5.1201,5.1267,5.1406,5.1406,5.1406,5.1406,5.1406,5.1406,5.1406,5.1406,0.0,0.0,0.0,0.0,0.0,5.1094,5.1094,5.1079,5.0959,5.0889,5.0867,5.072,5.0712,5.0712,5.0673,5.0673,5.0712,5.0673,5.0673,5.0519,4.9625,4.8779,4.8086,4.8086,4.8086,4.8086,4.8086,4.8086,4.7982,4.7564,4.7483,4.74,4.7041,4.701,4.701,4.6996,4.6652,4.6408,4.6408,4.6148,4.6177,4.6966,4.7076,4.7369,4.8196,4.8269,4.8269,4.8269,4.8269,4.7976,4.7149,4.7113,4.7443,4.8233,4.9077,4.961,4.961,5.1153,5.1977,5.1977,5.3555,5.4399,5.4399,5.4459,5.4486,5.4472,5.3729,5.345,3.0285,3.1773,3.2668,3.1289,3.126,3.1081,2.928,2.8578,2.8096,2.7421,2.7298,2.7566,2.8377,2.8803,3.0061,3.3286,3.4518,3.6276,0.0,0.0,0.0,0.0,0.0,0.0,0.0,0.0,0.0,0.0,0.0,0.0,0.0,0.0,5.1275,5.1204,5.1274,5.1365,5.1406,5.1406,5.1406,5.1406,5.1406,5.1406,5.1406,5.1317,0.0,0.0,0.0,0.0,0.0,5.0972,5.0903,5.0811,5.0773,5.0747,5.0776,5.0741,5.0712,5.0712,5.0712,5.0712,5.0712,5.0712,5.0712,5.0635,5.0366,4.9663,4.8818,4.7924,4.7679,4.7624,4.7414,4.7353,4.7315,4.7199,4.7173,4.7041,4.6652,4.7046,4.7415,4.7117,4.7387,4.7702,4.7702,4.7629,4.7645,4.7883,4.7939,4.8012,4.8269,4.8306,4.8306,4.8306,4.882,4.882,4.7993,4.8453,4.893,4.915,4.9958,5.0655,5.1226,5.172,5.2527,5.3628,5.3613,5.3604,5.3723,5.4251,5.4543,5.4525,5.3793,5.348,0.0,3.0143,3.0932,2.9879,3.0083,3.0234,2.8996,2.8814,2.881,2.8412,2.8357,2.8626,2.9429,2.9583,3.0583,3.3577,3.4615,0.0,0.0,0.0,0.0,0.0,0.0,0.0,0.0,0.0,0.0,0.0,0.0,0.0,0.0,0.0,5.1365,5.1271,5.1365,5.1406,5.1406,5.1406,5.1406,5.1406,5.1364,5.1321,5.132,0.0,0.0,0.0,0.0,0.0,0.0,5.0811,5.0773,5.0712,5.0712,5.0712,5.0712,5.0712,5.0712,5.0712,5.0712,5.0712,5.0654,5.0514,5.0358,5.023,5.023,4.9964,4.9488,4.8504,4.8251,4.8213,4.7985,4.7952,4.7886,4.774,4.7733,4.7626,4.7188,4.7547,4.7829,4.7609,4.7957,4.8306,4.8306,4.8306,4.8306,4.8306,4.8306,4.8306,4.8306,4.86,4.8783,4.8783,4.9554,4.9811,4.9297,4.9738,5.0031,5.0031,5.0802,5.1463,5.1977,5.2564,5.3228,5.3936,5.4086,5.401,5.382,5.4288,5.4425,5.4168,5.3717,5.3518,0.0,2.8767,2.9361,2.9323,2.9547,2.9558,2.8827,2.8875,0.0,2.9165,2.9204,2.9467,3.0423,3.0538,3.0846,3.1968,3.3519,0.0,0.0,0.0,0.0,0.0,0.0,0.0,0.0,0.0,0.0,0.0,0.0,0.0,0.0,0.0,0.0,5.1406,5.1406,5.1406,5.1406,5.1406,5.1406,5.1367,5.1261,5.1196,5.1194,0.0,0.0,0.0,0.0,0.0,0.0,5.0712,5.0712,5.0712,5.0712,5.0712,5.0712,5.0712,5.0712,5.0712,5.0712,5.0712,5.0624,5.0218,4.9846,4.9489,4.946,4.9728,4.9974,4.9561,4.946,4.9445,4.9416,4.9416,4.9311,4.8965,4.8864,4.8744,4.8364,4.8306,4.8306,4.8306,4.8306,4.8306,4.8306,4.8343,4.8379,4.8379,4.8453,4.8489,4.8489,4.9187,4.9684,4.9684,5.0398,5.0875,5.0875,5.0875,5.0875,5.0875,5.1683,5.2139,5.2098,5.3564,5.4082,5.329,5.4813,5.524,5.4437,5.447,5.4171,5.3518,5.3518,5.3518,2.5931,0.0,2.7133,2.6477,2.6862,2.7516,0.0,2.8593,2.928,0.0,0.0,3.0538,3.2045,3.1814,3.2506,3.5968,0.0,0.0,0.0,0.0,0.0,0.0,0.0,0.0,0.0,0.0,0.0,0.0,0.0,0.0,0.0,0.0,0.0,5.1406,5.1406,5.1406,5.1406,5.1316,5.1261,5.1261,5.1147,5.1135,5.1131,0.0,0.0,0.0,0.0,0.0,5.0712,5.0712,5.0712,5.0712,5.0712,5.0712,5.0712,5.0712,5.0712,5.0712,5.0712,5.0712,5.0624,5.0218,4.9846,4.9445,4.9139,4.9326,4.9547,4.9155,4.9027,4.8961,4.8676,4.8568,4.855,4.8477,4.8439,4.8402,4.8325,4.8306,4.8306,4.8306,4.8306,4.8306,4.8306,4.8857,4.9297,4.9297,4.9811,5.0215,5.0215,5.0398,5.0508,5.0508,5.1242,5.172,5.172,5.172,5.172,5.172,5.3041,5.3559,5.2951,5.3929,5.4406,5.418,5.464,5.4483,5.3738,5.3747,5.3651,5.3518,5.3518,5.3518,2.5308,2.6231,2.7082,2.6621,2.7121,2.7967,2.8852,0.0,0.0,0.0,0.0,0.0,3.2122,0.0,0.0,0.0,0.0,0.0,0.0,0.0,0.0,0.0,0.0,0.0,0.0,0.0,0.0,0.0,0.0,0.0,0.0,0.0,0.0,0.0,5.1324,5.1318,5.1318,5.1258,5.1185,5.1144,5.1063,5.099,5.0984,0.0,0.0,0.0,0.0,0.0,5.0712,5.0712,5.0712,5.0712,5.0712,5.0712,5.0712,5.0712,5.0594,5.0402,5.0402,5.0183,4.9821,4.9617,4.928,4.8915,4.8674,4.8761,4.8915,4.8711,4.864,4.8568,4.8382,4.8306,4.8306,4.8306,4.8306,4.8306,4.8306,4.8306,4.8306,4.8306,4.8306,4.8416,4.8783,4.9224,4.9684,5.0068,5.0508,5.0802,5.0802,5.1132,5.1353,5.1353,5.2087,5.2564,5.2564,5.2894,5.3078,5.3078,5.3922,5.4356,5.4309,5.4761,5.4883,5.4542,5.4243,5.3913,5.3518,5.3518,5.3518,5.3518,5.3518,5.3518,2.5654,2.706,2.8376,2.7829,2.8396,2.9286,3.0029,0.0,0.0,0.0,0.0,0.0,0.0,0.0,0.0,0.0,0.0,0.0,0.0,0.0,0.0,0.0,0.0,0.0,0.0,0.0,0.0,0.0,0.0,0.0,0.0,0.0,0.0,0.0,5.1258,5.118,5.1167,5.1167,5.1129,5.1058,5.0939,5.0883,5.0875,5.0767,0.0,0.0,0.0,0.0,5.0712,5.0712,5.0712,5.0702,5.0624,5.0614,5.0604,5.0525,5.0313,5.0038,5.0152,4.9782,4.9288,4.9288,4.901,4.8673,4.8526,4.86,4.8673,4.8526,4.8416,4.8343,4.8453,4.8489,4.8526,4.8673,4.8673,4.8673,4.8673,4.8673,4.8673,4.8673,4.8673,4.8893,4.9591,4.9811,5.0141,5.0875,5.1096,5.1169,5.1169,5.1756,5.216,5.216,5.2784,5.324,5.335,5.3995,5.4509,5.4766,5.4766,5.5009,5.5597,5.5429,5.5086,5.4451,5.3816,5.3518,5.3518,5.3518,5.3518,5.3518,5.3518,5.3551,2.7199,2.9391,3.0563,2.7533,2.7967,2.9159,2.9346,0.0,0.0,0.0,0.0,0.0,0.0,0.0,0.0,0.0,0.0,0.0,0.0,0.0,0.0,0.0,0.0,0.0,0.0,0.0,0.0,0.0,0.0,0.0,0.0,0.0,0.0,0.0,0.0,5.1069,5.094,5.0933,5.092,5.0932,5.0799,5.073,5.073,5.0731,5.0712,0.0,0.0,5.0712,5.0712,5.0712,5.0712,5.0682,5.0325,5.0183,5.0159,4.9819,4.9631,4.9703,5.0369,5.0767,5.0929,5.0929,5.0694,5.0288,4.961,4.9884,5.0288,4.9591,4.8857,4.8489,4.9206,4.939,4.9574,5.0251,5.0435,5.0435,5.0435,5.0435,5.0435,5.0435,5.0435,5.0472,5.0582,5.1169,5.1646,5.1793,5.2417,5.2858,5.2858,5.2968,5.3041,5.3041,5.3151,5.3482,5.4179,5.4326,5.4987,5.6345,5.6455,5.6224,5.5722,5.4487,5.3778,5.3651,5.3551,5.3518,5.3518,5.3518,5.3518,5.3518,5.3518,5.3822,2.6423,2.8543,3.0218,2.9101,3.0801,3.2838,3.3304,0.0,0.0,0.0,0.0,0.0,0.0,0.0,0.0,0.0,0.0,0.0,0.0,0.0,0.0,0.0,0.0,0.0,0.0,0.0,0.0,0.0,0.0,0.0,0.0,0.0,0.0,0.0,0.0,0.0,5.0889,5.0819,5.0799,5.0799,5.0721,5.0712,5.0712,5.0712,5.0712,5.0712,0.0,5.0712,5.0702,5.0472,5.0369,5.0336,4.9936,4.9792,4.979,4.9799,5.0092,5.0492,5.0703,5.0879,5.1025,5.1025,5.0907,5.0729,5.0362,5.0508,5.0729,5.0362,4.9958,4.9738,5.0141,5.0251,5.0325,5.0729,5.0802,5.0802,5.0802,5.0802,5.0802,5.0802,5.0802,5.0949,5.1353,5.1756,5.216,5.2564,5.2968,5.3203,5.3203,5.3203,5.3203,5.3203,5.3203,5.3555,5.4326,5.4419,5.494,5.6127,5.66,5.6325,5.5144,5.4451,5.3913,5.3518,5.3518,5.3518,5.3518,5.3518,5.3518,5.3518,5.3923,5.4262,2.6022,2.7857,2.9931,3.1034,0.0,3.5287,3.6707,0.0,0.0,0.0,0.0,0.0,0.0,0.0,0.0,0.0,0.0,0.0,0.0,0.0,0.0,0.0,0.0,0.0,0.0,0.0,0.0,0.0,0.0,0.0,0.0,0.0,0.0,0.0,0.0,0.0,5.0859,5.0767,5.0712,5.0712,5.0712,5.0712,5.0712,5.0712,5.0712,5.0702,5.0604,5.0573,5.0514,5.0135,4.9962,4.9924,4.973,4.9709,4.983,5.0167,5.0768,5.1417,5.1163,5.1206,5.1353,5.1353,5.1353,5.1353,5.1132,5.1206,5.1316,5.1132,5.1206,5.1316,5.1132,5.1096,5.1132,5.1316,5.1353,5.1353,5.1353,5.1353,5.1353,5.1353,5.1353,5.1573,5.216,5.227,5.2491,5.3115,5.3203,5.3203,5.3203,5.3371,5.3482,5.3482,5.3665,5.4004,5.4641,5.4761,5.4994,5.541,5.6018,5.5844,5.4634,5.4419,5.4074,5.3484,5.3518,5.3518,5.3518,5.3518,5.3585,5.3788,5.4329,5.4769,2.7553,2.9366,3.1171,3.2812,3.2698,0.0,3.6409,3.5832,0.0,0.0,0.0,0.0,0.0,0.0,0.0,0.0,0.0,0.0,0.0,0.0,0.0,0.0,0.0,0.0,0.0,0.0,0.0,0.0,0.0,0.0,0.0,0.0,0.0,0.0,0.0,0.0,5.0702,5.0721,5.0712,5.0712,5.0712,5.0712,5.0712,5.0712,5.0712,5.0692,5.0313,5.0147,5.0123,4.97,4.9532,4.9579,4.9936,5.0305,5.0718,5.0752,5.1267,5.1965,5.1924,5.2417,5.302,5.302,5.302,5.2894,5.2123,5.2454,5.2894,5.2123,5.2454,5.2858,5.2087,5.1903,5.2087,5.2858,5.302,5.302,5.302,5.302,5.302,5.302,5.302,5.3078,5.3093,5.3115,5.3151,5.3167,5.3203,5.3203,5.3203,5.3849,5.4326,5.4326,5.4987,5.5496,5.5629,5.5616,5.5354,5.4718,5.4722,5.4695,5.4572,5.3946,5.3551,5.3518,5.3518,5.3518,5.3518,5.3518,5.3856,5.4499,5.4566,5.531,2.6481,2.8749,3.1172,3.2344,0.0,0.0,0.0,0.0,0.0,0.0,0.0,0.0,0.0,0.0,0.0,0.0,0.0,0.0,0.0,0.0,0.0,0.0,0.0,0.0,0.0,0.0,0.0,0.0,0.0,0.0,0.0,0.0,0.0,0.0,0.0,0.0,0.0,5.0712,5.0712,5.0712,5.0712,5.0712,5.0702,5.0451,5.0325,5.0313,4.9911,4.9752,4.9687,4.9295,4.9123,4.915,4.962,5.0502,5.1536,5.1536,5.205,5.2747,5.2747,5.2968,5.3203,5.3203,5.3203,5.313,5.2858,5.2968,5.3151,5.2821,5.2968,5.3151,5.2821,5.2747,5.2821,5.3151,5.3203,5.3203,5.3203,5.3203,5.3203,5.3203,5.3203,5.3203,5.3203,5.3203,5.3203,5.3203,5.3628,5.3959,5.3959,5.4656,5.4942,5.4517,5.4722,5.4723,5.4303,5.4723,5.4695,5.3979,5.4359,5.4388,5.3946,5.3651,5.3518,5.3518,5.3518,5.3518,5.3518,5.3518,5.389,5.46,5.5074,5.5852,2.6523,2.8672,3.1172,0.0,0.0,0.0,0.0,0.0,0.0,0.0,0.0,0.0,0.0,0.0,0.0,0.0,0.0,0.0,0.0,0.0,0.0,0.0,0.0,0.0,0.0,0.0,0.0,0.0,0.0,0.0,0.0,0.0,0.0,0.0,0.0,0.0,0.0,5.0712,5.0712,5.0712,5.0712,5.0712,5.0702,5.0291,5.0111,5.0087,4.9532,4.9311,4.928,4.8881,4.9025,4.9509,4.9837,5.0949,5.238,5.238,5.2747,5.3203,5.3203,5.3203,5.3203,5.3203,5.3203,5.3203,5.3203,5.3203,5.3203,5.3203,5.3203,5.3203,5.3203,5.3203,5.3203,5.3203,5.3203,5.3203,5.3203,5.3203,5.3203,5.3203,5.3203,5.3277,5.3555,5.3592,5.3665,5.3922,5.4436,5.4701,5.4464,5.5135,5.5449,5.4938,5.4682,5.4343,5.381,5.408,5.4042,5.3517,5.3979,5.4009,5.3517,5.3518,5.3518,5.3518,5.3518,5.3518,5.3518,5.3721,5.4228,5.4972,5.5716,5.6461,2.8281,2.957,3.1328,0.0,0.0,0.0,0.0,0.0,0.0,0.0,0.0,0.0,0.0,0.0,0.0,0.0,0.0,0.0,0.0,0.0,0.0,0.0,0.0,0.0,0.0,0.0,0.0,0.0,0.0,0.0,0.0,0.0,0.0,0.0,0.0,0.0,0.0,5.0712,5.0712,5.0702,5.0702,5.0702,5.0692,5.0291,5.0111,5.0024,4.9249,4.8878,4.8844,4.8477,4.9297,5.0802,5.0802,5.1793,5.3203,5.3203,5.3203,5.3203,5.3203,5.3203,5.3203,5.3203,5.3203,5.3203,5.3203,5.3203,5.3203,5.3203,5.3203,5.3203,5.3203,5.3203,5.3203,5.3203,5.3203,5.3203,5.3203,5.3203,5.3203,5.3203,5.3203,5.3482,5.4289,5.4399,5.4693,5.5464,5.5611,5.535,5.4591,5.5202,5.5692,5.5674,5.5024,5.4606,5.4606,5.3913,5.3518,5.3518,5.3518,5.3518,5.3518,5.3518,5.3518,5.3518,5.3518,5.3518,5.3518,5.4228,5.4972,5.575,5.6461,5.7205,2.7539,2.9531,0.0,0.0,0.0,0.0,0.0,0.0,0.0,0.0,0.0,0.0,0.0,0.0,0.0,0.0,0.0,0.0,0.0,0.0,0.0,0.0,0.0,0.0,0.0,0.0,0.0,0.0,0.0,0.0,0.0,0.0,0.0,0.0,0.0,0.0,0.0,0.0,5.0573,5.0291,5.0291,5.0291,5.0241,4.9872,4.9518,4.9234,4.8692,4.8495,4.8513,4.9007,4.9848,5.0875,5.1426,5.227,5.3203,5.3203,5.3203,5.3203,5.3203,5.3203,5.3203,5.3203,5.3203,5.3203,5.3203,5.3203,5.3203,5.3203,5.3203,5.3203,5.3203,5.3203,5.3203,5.3203,5.3203,5.3203,5.3203,5.3203,5.335,5.3922,5.4032,5.4289,5.5097,5.5244,5.5317,5.5537,5.565,5.5591,5.5365,5.5122,5.4928,5.4934,5.4264,5.3849,5.3849,5.3651,5.3518,5.3518,5.3518,5.3518,5.3518,5.3518,5.3518,5.3518,5.3518,5.3518,5.3518,5.4228,5.4972,5.575,5.6461,5.7205,2.9922,0.0,0.0,0.0,0.0,0.0,0.0,0.0,0.0,0.0,0.0,0.0,0.0,0.0,0.0,0.0,0.0,0.0,0.0,0.0,0.0,0.0,0.0,0.0,0.0,0.0,0.0,0.0,0.0,0.0,0.0,0.0,0.0,0.0,0.0,0.0,0.0,0.0,0.0,4.9872,4.9872,4.9792,4.9617,4.9371,4.9123,4.8898,4.8477,4.8306,4.8343,4.8857,4.9774,5.0839,5.1316,5.2197,5.3203,5.3203,5.3203,5.3203,5.3203,5.3203,5.3203,5.3203,5.3203,5.3203,5.3203,5.3203,5.3203,5.3203,5.3203,5.3203,5.3203,5.3203,5.3203,5.3203,5.3203,5.3277,5.3628,5.3702,5.3922,5.473,5.4876,5.5031,5.555,5.565,5.5629,5.5619,5.5444,5.5249,5.525,5.4637,5.4136,5.4136,5.3783,5.3518,5.3518,5.3518,5.3518,5.3518,5.3518,5.3518,5.3518,5.3518,5.3518,5.3518,5.3518,5.3518,5.3518,5.4532,5.5277,5.575,5.6765,5.7476,3.371,0.0,0.0,0.0,0.0,0.0,0.0,0.0,0.0,0.0,0.0,0.0,0.0,0.0,0.0,0.0,0.0,0.0,0.0,0.0,0.0,0.0,0.0,0.0,0.0,0.0,0.0,0.0,0.0,0.0,0.0,0.0,0.0,0.0,0.0,0.0,0.0,0.0,0.0,0.0,4.9445,4.9234,4.8864,4.8861,4.8898,4.883,4.8458,4.8306,4.8306,4.8379,4.937,5.0802,5.0875,5.1867,5.3203,5.3203,5.3203,5.3203,5.3203,5.3203,5.3203,5.3203,5.3203,5.3203,5.3203,5.3203,5.3203,5.3203,5.3203,5.3203,5.3203,5.324,5.3314,5.3314,5.3314,5.3518,5.4252,5.4393,5.4642,5.5471,5.5573,5.5527,5.5685,5.5692,5.5675,5.5617,5.5024,5.4575,5.4513,5.3913,5.3518,5.3518,5.3518,5.3518,5.3518,5.3518,5.3518,5.3518,5.3518,5.3518,5.3518,5.3518,5.3518,5.3518,5.3585,5.3585,5.3619,5.5108,5.5818,5.5852,5.7239,5.7881,0.0,0.0,0.0,0.0,0.0,0.0,0.0,0.0,0.0,0.0,0.0,0.0,0.0,0.0,0.0,0.0,0.0,0.0,0.0,0.0,0.0,0.0,0.0,0.0,0.0,0.0,0.0,0.0,0.0,0.0,0.0,0.0,0.0,0.0,0.0,0.0,5.0111,4.9806,4.9431,0.0,4.9027,4.883,4.8439,4.8761,4.8727,4.8421,4.8344,4.8306,4.8343,4.904,4.9884,5.0875,5.1499,5.2344,5.3203,5.3203,5.3203,5.3203,5.3203,5.3203,5.3203,5.3203,5.3203,5.3203,5.3203,5.3203,5.3203,5.3203,5.3203,5.3203,5.3203,5.3665,5.4142,5.4142,5.4142,5.4179,5.4363,5.4437,5.4701,5.5522,5.5169,5.4937,5.5585,5.5699,5.5483,5.4934,5.4695,5.4388,5.3816,5.3584,5.3518,5.3518,5.3518,5.3518,5.3518,5.3518,5.3518,5.3518,5.3518,5.3518,5.3518,5.3518,5.3518,5.3518,5.4059,5.4363,5.4363,5.5852,5.6562,5.6596,5.7476,5.7881,0.0,0.0,0.0,0.0,0.0,0.0,0.0,0.0,0.0,0.0,0.0,0.0,0.0,0.0,0.0,0.0,0.0,0.0,0.0,0.0,0.0,0.0,0.0,0.0,0.0,0.0,0.0,0.0,0.0,0.0,0.0,0.0,0.0,0.0,0.0,0.0,4.9532,4.9326,4.8994,4.8622,4.8622,4.8477,4.8306,4.8495,4.8514,4.8306,4.8306,4.8306,4.8343,4.8783,4.9701,5.0839,5.1242,5.216,5.3203,5.3203,5.3203,5.3203,5.3203,5.3203,5.3203,5.3203,5.3203,5.3203,5.3203,5.3203,5.3203,5.3203,5.2937,5.2753,5.3094,5.3287,5.3436,5.3809,5.4157,5.4537,5.4937,5.4733,5.4749,5.5526,5.5371,5.5087,5.5162,5.4878,5.4513,5.4139,5.4074,5.3946,5.3551,5.3518,5.3518,5.3518,5.3518,5.3518,5.3518,5.3518,5.3518,5.3518,5.3518,5.3518,5.3518,5.3822,5.4025,5.4025,5.4397,5.4769,5.5141,5.6258,5.6799,5.6833,5.7543,5.7881,0.0,0.0,0.0,0.0,0.0,0.0,0.0,0.0,0.0,0.0,0.0,0.0,0.0,0.0,0.0,0.0,0.0,0.0,0.0,0.0,0.0,0.0,0.0,0.0,0.0,0.0,0.0,0.0,0.0,0.0,0.0,0.0,0.0,0.0,0.0,4.9234,4.8878,4.8847,4.864,4.8306,4.8306,4.8306,4.8306,4.8306,4.8306,4.8306,4.8306,4.8306,4.8306,4.8306,4.9297,5.0802,5.0802,5.1793,5.3203,5.3203,5.3203,5.3203,5.3203,5.3203,5.3203,5.3203,5.3203,5.3203,5.306,5.3002,5.3017,5.2996,5.2575,5.2282,5.3048,5.2905,5.2767,5.3376,5.4038,5.4717,5.5348,5.4999,5.4691,5.5383,5.5408,5.5149,5.4513,5.3913,5.3518,5.3518,5.3518,5.3518,5.3518,5.3518,5.3518,5.3518,5.3518,5.3518,5.3518,5.3518,5.3518,5.3518,5.3518,5.3551,5.3687,5.4262,5.4702,5.4972,5.4972,5.5277,5.5919,5.663,5.7002,5.7002,5.7611,5.7881,0.0,0.0,0.0,0.0,0.0,0.0,0.0,0.0,0.0,0.0,0.0,0.0,0.0,0.0,0.0,0.0,0.0,0.0,0.0,0.0,0.0,0.0,0.0,0.0,0.0,0.0,0.0,0.0,0.0,0.0,0.0,0.0,4.9936,4.9575,4.9187,4.8945,4.8878,4.855,4.8363,4.8306,4.8306,4.8306,4.8306,4.8306,4.8306,4.8306,4.8306,4.8306,4.8306,4.8306,4.9297,5.0802,5.0802,5.1793,5.3203,5.3203,5.3203,5.3203,5.3203,5.3203,5.3203,5.3203,5.3203,5.3082,5.2427,5.2266,5.2257,5.2325,5.2271,5.2369,5.3087,5.3741,5.4224,5.4295,5.446,5.457,5.4634,5.4601,5.4622,5.4757,5.4232,5.375,5.3651,5.3551,5.3518,5.3518,5.3518,5.3518,5.3518,5.3518,5.3518,5.3518,5.3518,5.3518,5.3518,5.3518,5.3518,5.3518,5.3518,5.3788,5.4431,5.4532,5.5209,5.6494,5.6528,5.6562,5.6664,5.7374,5.7746,5.7746,5.7848,5.7881,0.0,0.0,0.0,0.0,0.0,0.0,0.0,0.0,0.0,0.0,0.0,0.0,0.0,0.0,0.0,0.0,0.0,0.0,0.0,0.0,0.0,0.0,0.0,0.0,0.0,0.0,0.0,0.0,0.0,0.0,0.0,4.8829,4.9356,4.9171,4.8761,0.0,4.8568,4.8383,4.8306,4.8306,4.8306,4.8306,4.8306,4.8306,4.8306,4.8306,4.8306,4.8306,4.8306,4.8306,4.9297,5.0802,5.0802,5.1793,5.3203,5.3203,5.3203,5.3124,5.2725,5.2576,5.2531,5.2149,5.203,5.2054,5.213,5.2172,5.2238,5.2706,5.2572,5.2437,5.3178,5.3306,5.3383,5.3801,5.3962,5.4006,5.3977,5.3962,5.3977,5.3977,5.3717,5.3518,5.3518,5.3518,5.3518,5.3518,5.3518,5.3518,5.3518,5.3518,5.3518,5.3518,5.3518,5.3518,5.3518,5.3518,5.3518,5.3518,5.3518,5.3822,5.4566,5.5006,5.5716,5.6799,5.6799,5.7002,5.7408,5.7712,5.7881,5.7881,5.7881,5.7881,0.0,0.0,0.0,0.0,0.0,0.0,0.0,0.0,0.0,0.0,0.0,0.0,0.0,0.0,0.0,0.0,0.0,0.0,0.0,0.0,0.0,0.0,0.0,0.0,0.0,0.0,0.0,0.0,0.0,0.0,4.6835,4.7959,4.8641,4.8744,4.8458,4.8306,4.8306,4.8306,4.8306,4.8306,4.8306,4.8306,4.8306,4.8306,4.8306,4.8306,4.8306,4.8306,4.8306,4.8306,4.9297,5.0802,5.0802,5.1793,5.3203,5.298,5.2915,5.2813,5.2089,5.1874,5.1741,5.1266,5.1086,5.1201,5.1774,5.1966,5.2087,5.2838,5.2686,5.2471,5.3232,5.3028,5.2773,5.3382,5.3518,5.3518,5.3518,5.3518,5.3518,5.3518,5.3518,5.3518,5.3518,5.3518,5.3518,5.3518,5.3518,5.3518,5.3518,5.3518,5.3518,5.3518,5.3518,5.3518,5.3518,5.3518,5.3518,5.3518,5.3687,5.4126,5.4837,5.5581,5.6325,5.707,5.707,5.734,5.7881,5.7881,5.7881,5.7881,5.7881,5.7881,0.0,0.0,0.0,0.0,0.0,0.0,0.0,0.0,0.0,0.0,0.0,0.0,0.0,0.0,0.0,0.0,0.0,0.0,0.0,0.0,0.0,0.0,0.0,0.0,0.0,0.0,0.0,0.0,0.0,0.0,4.6398,4.7276,4.793,4.8326,4.8306,4.8306,4.8306,4.8306,4.8306,4.8306,4.8306,4.8306,4.8306,4.8306,4.8306,4.8306,4.8306,4.8306,4.8306,4.8306,4.9297,5.0802,5.0802,5.1793,5.3103,5.2404,5.2159,5.2065,5.1393,5.1138,5.1138,5.1112,5.1086,5.1096,5.1226,5.124,5.1405,5.2147,5.233,5.2501,5.3314,5.3484,5.345,5.3484,5.3518,5.3518,5.3518,5.3518,5.3518,5.3518,5.3518,5.3518,5.3518,5.3518,5.3518,5.3518,5.3518,5.3518,5.3518,5.3518,5.3518,5.3518,5.3518,5.3518,5.3518,5.3518,5.3518,5.3518,5.416,5.4871,5.5615,5.6359,5.7103,5.7814,5.7814,5.7848,5.7881,5.7881,5.7881,5.7881,5.7881,5.7881,0.0,0.0,0.0,0.0,0.0,0.0,0.0,0.0,0.0,0.0,0.0,0.0,0.0,0.0,0.0,0.0,0.0,0.0,0.0,0.0,0.0,0.0,0.0,0.0,0.0,0.0,0.0,0.0,0.0,0.0,4.6077,4.6871,4.7629,4.8269,4.8306,4.8306,4.8306,4.8306,4.8306,4.8306,4.8306,4.8306,4.8306,4.8306,4.8306,4.8287,4.7879,4.7955,4.8343,4.8893,4.9517,5.0163,5.0671,5.1279,5.1825,5.1544,5.1469,5.1368,5.0635,5.039,5.0307,4.9896,5.0095,5.0553,5.1073,5.1526,5.2077,5.284,5.3078,5.3145,5.345,5.3518,5.3518,5.3518,5.3518,5.3518,5.3518,5.3518,5.3518,5.3518,5.3518,5.3518,5.3518,5.3518,5.3518,5.3518,5.3518,5.3518,5.3518,5.3518,5.3518,5.3518,5.3518,5.3518,5.3518,5.3923,5.4194,5.4194,5.4905,5.5649,5.6393,5.6664,5.7137,5.7881,5.7881,5.7881,5.7881,5.7881,5.7881,5.7881,5.7881,5.7881,2.7351,0.0,0.0,0.0,0.0,0.0,0.0,0.0,0.0,0.0,0.0,0.0,0.0,0.0,0.0,0.0,0.0,0.0,0.0,0.0,0.0,0.0,0.0,0.0,0.0,0.0,0.0,0.0,0.0,0.0,4.5865,4.6636,4.748,4.8269,4.8306,4.8306,4.8306,4.8306,4.8306,4.8306,4.8306,4.8306,4.8287,4.8075,4.8015,4.7975,4.7342,4.7551,4.8393,4.8795,4.938,5.0118,5.0426,5.0914,5.1368,5.0903,5.0743,5.0635,4.989,4.9664,4.9644,4.944,4.9695,5.027,5.1285,5.1928,5.2469,5.3281,5.3518,5.3518,5.3518,5.3518,5.3518,5.3518,5.3518,5.3518,5.3518,5.3518,5.3518,5.3518,5.3518,5.3518,5.3518,5.3518,5.3518,5.3518,5.3518,5.3518,5.3518,5.3518,5.3518,5.3518,5.3518,5.3585,5.3856,5.4329,5.4702,5.4938,5.5683,5.6292,5.6799,5.7036,5.7408,5.7881,5.7881,5.7881,5.7881,5.7881,5.7881,5.7881,5.7881,5.8017,0.0,0.0,0.0,0.0,0.0,0.0,0.0,0.0,0.0,0.0,0.0,0.0,0.0,0.0,0.0,0.0,0.0,0.0,0.0,0.0,0.0,0.0,0.0,0.0,0.0,0.0,0.0,0.0,0.0,4.5039,4.5847,4.6672,4.748,4.8269,4.8306,4.8306,4.8306,4.8306,4.8306,4.8306,4.8306,4.8306,4.8287,4.7695,4.7428,4.7385,4.6705,4.7214,4.8457,4.7903,4.8913,5.077,5.0129,5.0777,5.1838,5.0472,4.9976,4.9861,4.926,4.9052,4.9154,4.9898,5.0135,5.0439,5.186,5.2334,5.2503,5.3281,5.3518,5.3518,5.3518,5.3518,5.3518,5.3518,5.3518,5.3518,5.3518,5.3518,5.3518,5.3518,5.3518,5.3518,5.3518,5.3518,5.3518,5.3518,5.3518,5.3518,5.3518,5.3518,5.3518,5.3551,5.3551,5.3822,5.4566,5.4634,5.4972,5.5716,5.6427,5.6833,5.6833,5.7509,5.7881,5.7881,5.7881,5.7881,5.7881,5.7881,5.7915,5.7915,5.7949,5.8355,2.5825,0.0,0.0,0.0,0.0,0.0,0.0,0.0,0.0,0.0,0.0,0.0,0.0,0.0,0.0,0.0,0.0,0.0,0.0,0.0,0.0,0.0,0.0,0.0,0.0,0.0,0.0,0.0,0.0,4.5039,4.5847,4.7205,4.8086,4.8306,4.8306,4.8306,4.8306,4.8306,4.8306,4.8306,4.8306,4.8306,4.8287,4.8114,4.8055,4.8032,4.7495,4.7771,4.8637,4.8515,4.8831,4.9406,4.9811,4.9944,4.9809,4.9402,4.9286,4.9324,4.9687,4.9796,4.9932,5.0676,5.1251,5.1758,5.2198,5.2706,5.3213,5.345,5.3518,5.3518,5.3518,5.3518,5.3518,5.3518,5.3518,5.3518,5.3518,5.3518,5.3518,5.3518,5.3518,5.3518,5.3518,5.3518,5.3518,5.3518,5.3518,5.3518,5.3518,5.3518,5.3687,5.4228,5.4296,5.46,5.5344,5.5886,5.6292,5.6494,5.7171,5.7577,5.7577,5.778,5.7881,5.7881,5.7881,5.7881,5.7881,5.7881,5.8152,5.8727,5.9235,5.9911,0.0,0.0,0.0,0.0,0.0,0.0,0.0,0.0,0.0,0.0,0.0,0.0,0.0,0.0,0.0,0.0,0.0,0.0,0.0,0.0,0.0,0.0,0.0,0.0,0.0,0.0,0.0,0.0,4.4562,4.57,4.6838,4.7792,4.8306,4.8306,4.8306,4.8306,4.8306,4.8306,4.8306,4.8306,4.8306,4.8306,4.8287,4.7756,4.7693,4.7969,4.7146,4.7394,4.8375,4.8429,4.8764,4.9325,4.9521,4.9521,4.9372,4.9107,4.9187,4.9526,4.9932,5.0304,5.0676,5.142,5.1961,5.2367,5.2706,5.3145,5.3518,5.3518,5.3518,5.3518,5.3518,5.3518,5.3518,5.3518,5.3518,5.3518,5.3518,5.3518,5.3518,5.3518,5.3518,5.3518,5.3518,5.3518,5.3518,5.3518,5.3518,5.3518,5.3518,5.3788,5.4126,5.4532,5.4871,5.5378,5.6122,5.6562,5.6934,5.7239,5.7645,5.7881,5.7881,5.7881,5.7881,5.7881,5.7881,5.8051,5.8355,5.8051,5.8287,5.9032,6.0114,6.0858,0.0,0.0,0.0,0.0,0.0,0.0,0.0,3.5474,0.0,0.0,0.0,0.0,0.0,0.0,0.0,0.0,0.0,0.0,0.0,0.0,0.0,0.0,0.0,0.0,0.0,0.0,0.0,4.3515,4.5002,4.6617,4.8233,4.8306,4.8306,4.8306,4.8306,4.8306,4.8306,4.8306,4.8306,4.8306,4.8248,4.8209,4.8153,4.6955,4.6849,4.7554,4.6433,4.6699,4.7992,4.8034,4.8762,4.9804,4.9226,4.9342,4.9838,4.9297,4.9526,5.0101,5.027,5.0777,5.1454,5.2198,5.2435,5.257,5.3281,5.3518,5.3518,5.3518,5.3518,5.3518,5.3518,5.3518,5.3518,5.3518,5.3518,5.3518,5.3518,5.3518,5.3518,5.3518,5.3518,5.3518,5.3518,5.3518,5.3518,5.3518,5.3518,5.3551,5.3619,5.4194,5.4668,5.4803,5.5446,5.6122,5.6867,5.6934,5.7205,5.7848,5.7881,5.7881,5.7881,5.7881,5.7915,5.8017,5.8084,5.8457,5.9133,5.8558,5.8626,5.9302,6.0757,6.1434,0.0,0.0,0.0,0.0,0.0,0.0,0.0,3.2785,0.0,0.0,0.0,0.0,0.0,0.0,0.0,0.0,0.0,0.0,0.0,0.0,0.0,0.0,0.0,0.0,0.0,0.0,4.3515,4.3515,4.5002,4.6617,4.8233,4.8306,4.8306,4.8306,4.8306,4.8306,4.8306,4.8306,4.8306,4.8287,4.7797,4.7591,4.7533,4.6774,4.6849,4.7614,4.7403,4.7817,4.8621,4.8753,4.8941,4.9165,4.9046,4.9077,4.9267,4.9723,4.9965,5.027,5.1454,5.1961,5.2232,5.301,5.3281,5.3315,5.345,5.3518,5.3518,5.3518,5.3518,5.3518,5.3518,5.3518,5.3518,5.3518,5.3518,5.3518,5.3518,5.3518,5.3518,5.3518,5.3518,5.3518,5.3518,5.3518,5.3518,5.3518,5.3518,5.3721,5.4296,5.4499,5.504,5.6224,5.6494,5.69,5.7611,5.7679,5.7746,5.7881,5.7881,5.7881,5.7881,5.7881,5.8186,5.8795,5.937,5.9742,5.9877,6.0385,6.0723,6.0892,6.1772,6.2178,0.0,0.0,0.0,3.5055,0.0,0.0,0.0,0.0,0.0,0.0,0.0,0.0,0.0,0.0,0.0,0.0,0.0,0.0,0.0,0.0,0.0,0.0,0.0,0.0,0.0,0.0,4.3845,4.4635,4.5443,4.6617,4.8233,4.8306,4.8306,4.8306,4.8306,4.8306,4.8306,4.8306,4.8134,4.7838,4.7533,4.7198,4.6887,4.6621,4.692,4.7648,4.7782,4.8196,4.8885,4.8968,4.9018,4.9018,4.9018,4.9221,4.9593,4.9965,5.0574,5.1285,5.2029,5.257,5.2976,5.3382,5.3518,5.3518,5.3518,5.3518,5.3518,5.3518,5.3518,5.3518,5.3518,5.3518,5.3518,5.3518,5.3518,5.3518,5.3518,5.3518,5.3518,5.3518,5.3518,5.3518,5.3518,5.3518,5.3619,5.3991,5.4059,5.4329,5.504,5.548,5.5987,5.6731,5.7137,5.7476,5.7848,5.7881,5.7881,5.7881,5.7881,5.7881,5.7881,5.7881,5.8254,5.8998,6.0114,6.0689,6.0689,6.1467,6.167,6.1332,6.2042,6.2381,0.0,0.0,0.0,0.0,0.0,3.5275,0.0,0.0,0.0,3.573,0.0,0.0,0.0,0.0,0.0,0.0,0.0,0.0,0.0,0.0,0.0,0.0,0.0,0.0,0.0,0.0,4.3754,4.5553,4.5516,4.6214,4.7957,4.8233,4.8306,4.8306,4.8306,4.8306,4.8306,4.8173,4.7931,4.7601,4.7361,4.7036,4.6667,4.6612,4.7052,4.7754,4.7835,4.8342,4.9018,4.9018,4.9018,4.9018,4.9018,4.9458,5.0101,5.0236,5.115,5.2334,5.2469,5.2976,5.3518,5.3518,5.3518,5.3518,5.3518,5.3518,5.3518,5.3518,5.3518,5.3518,5.3518,5.3518,5.3518,5.3518,5.3518,5.3518,5.3518,5.3518,5.3518,5.3518,5.3619,5.3687,5.3518,5.3619,5.3923,5.4499,5.4702,5.5074,5.5818,5.6427,5.6867,5.7002,5.7543,5.7881,5.7881,5.7881,5.7881,5.7881,5.7881,5.7881,5.7881,5.8152,5.866,5.9438,6.0825,6.1501,6.1501,6.211,6.2076,6.1535,6.211,6.2381,0.0,0.0,0.0,0.0,3.8909,0.0,0.0,0.0,3.4124,3.2449,0.0,0.0,0.0,0.0,0.0,0.0,0.0,0.0,0.0,0.0,0.0,0.0,0.0,0.0,0.0,0.0,0.0,4.4672,4.4195,4.4782,4.7113,4.7883,4.8306,4.8306,4.8306,4.8306,4.8306,4.7777,4.7789,4.8343,4.7231,4.7004,4.753,4.7011,4.7174,4.7886,4.7898,4.8342,4.9018,4.9018,4.9018,4.9018,4.9018,4.9458,5.0168,5.0845,5.1589,5.2401,5.3112,5.3416,5.3518,5.3518,5.3518,5.3518,5.3518,5.3518,5.3518,5.3518,5.3518,5.3518,5.3518,5.3518,5.3518,5.3518,5.3518,5.3518,5.3518,5.3518,5.3518,5.3518,5.4025,5.4262,5.3619,5.4025,5.4499,5.4566,5.5175,5.5852,5.6596,5.6765,5.7036,5.7712,5.7848,5.7881,5.7881,5.7881,5.7881,5.7881,5.7881,5.7881,5.7881,5.9167,6.0216,6.1028,6.1839,6.2279,6.2279,6.2347,6.2347,6.2279,6.2347,6.2381,0.0,0.0,0.0,0.0,0.0,0.0,0.0,0.0,3.372,0.0,0.0,0.0,0.0,0.0,0.0,0.0,0.0,0.0,0.0,0.0,0.0,0.0,0.0,0.0,0.0,0.0,0.0,0.0,0.0,4.4048,4.6966,4.7406,4.781,4.8306,4.8306,4.8334,4.8426,4.8157,4.8028,4.8041,4.7474,4.7196,4.7153,4.7373,4.7631,4.7906,4.8376,4.8714,4.9018,4.9018,4.9255,4.9627,4.9627,5.0101,5.0845,5.1589,5.2334,5.3044,5.3382,5.3518,5.3518,5.3518,5.3518,5.3518,5.3518,5.3518,5.3518,5.3518,5.3518,5.3518,5.3518,5.3518,5.3518,5.3518,5.3518,5.3518,5.3518,5.3822,5.4126,5.4126,5.4735,5.5141,5.4837,5.504,5.5243,5.5243,5.5886,5.6596,5.734,5.7442,5.7543,5.7848,5.7881,5.7881,5.7881,5.7881,5.7881,5.7881,5.8287,5.8727,5.9167,6.0216,6.096,6.1298,6.2009,6.2381,6.2381,6.2381,6.2381,6.2381,6.2381,6.2381,4.1499,0.0,0.0,0.0,0.0,0.0,0.0,0.0,0.0,0.0,0.0,0.0,0.0,0.0,0.0,0.0,0.0,0.0,0.0,0.0,0.0,0.0,0.0,0.0,0.0,0.0,0.0,0.0,0.0,0.0,4.6269,4.6856,4.7369,4.7976,4.8024,4.8198,4.851,4.8136,4.8014,4.7976,4.7817,4.762,4.7428,4.797,4.8206,4.824,4.8781,4.9018,4.9018,4.9221,4.9627,5.0135,5.0541,5.1014,5.1589,5.2097,5.2807,5.3518,5.3518,5.3518,5.3518,5.3518,5.3518,5.3518,5.3518,5.3518,5.3518,5.3518,5.3518,5.3518,5.3518,5.3518,5.3518,5.3518,5.3518,5.3551,5.3754,5.4228,5.4668,5.4871,5.5513,5.5953,5.5715,5.5886,5.6021,5.6021,5.663,5.7273,5.7814,5.7881,5.7881,5.7881,5.7881,5.7881,5.7881,5.7881,5.7983,5.8186,5.8693,5.9438,6.0385,6.0994,6.14,6.1603,6.211,6.2381,6.2381,6.2381,6.2381,6.2381,6.2381,6.2381,0.0,0.0,0.0,0.0,0.0,0.0,0.0,0.0,3.5973,0.0,0.0,0.0,0.0,0.0,0.0,3.2839,0.0,0.0,0.0,0.0,0.0,0.0,0.0,0.0,0.0,0.0,0.0,0.0,0.0,0.0,4.4635,4.6232,4.7113,4.7149,4.7336,4.7782,4.851,4.7297,4.7365,4.8771,4.8158,4.824,4.8951,4.8951,4.8951,4.8984,4.8984,4.9018,4.9052,4.9763,5.0067,5.0236,5.1657,5.2232,5.2266,5.23,5.2807,5.3518,5.3518,5.3518,5.3518,5.3518,5.3518,5.3518,5.3518,5.3518,5.3518,5.3518,5.3518,5.3518,5.3518,5.3518,5.3518,5.3518,5.3518,5.3687,5.4397,5.4566,5.4803,5.5547,5.6258,5.6562,5.5817,5.6292,5.6765,5.6765,5.7374,5.7848,5.7881,5.7881,5.7881,5.7881,5.7881,5.7881,5.7881,5.7881,5.8186,5.893,5.8998,5.9674,6.1197,6.1298,6.1637,6.2347,6.2381,6.2381,6.2381,6.2381,6.2381,6.2381,6.2381,6.2381,0.0,0.0,4.2983,4.0818,0.0,0.0,0.0,0.0,0.0,0.0,0.0,0.0,0.0,0.0,0.0,3.3587,0.0,0.0,0.0,0.0,0.0,0.0,0.0,0.0,0.0,0.0,0.0,0.0,0.0,0.0,0.0,4.4761,4.5595,4.6613,4.7235,4.7902,4.867,4.8255,4.834,4.8941,4.8734,4.8781,4.9018,4.9018,4.9018,4.9018,4.9018,4.9018,4.9052,4.9796,5.0371,5.0947,5.1928,5.2638,5.3078,5.3078,5.3281,5.3518,5.3518,5.3518,5.3518,5.3518,5.3518,5.3518,5.3518,5.3518,5.3518,5.3518,5.3518,5.3518,5.3518,5.3518,5.3518,5.3518,5.3518,5.3687,5.4431,5.4972,5.5547,5.6292,5.7036,5.7442,5.7205,5.734,5.734,5.6867,5.7408,5.7881,5.7881,5.7881,5.7881,5.7881,5.7881,5.7881,5.7881,5.7881,5.8423,5.9641,5.9742,6.0419,6.1941,6.2009,6.2144,6.2381,6.2381,6.2381,6.2381,6.2381,6.2381,6.2381,6.2381,6.2381,4.3368,4.3515,0.0,4.1515,4.0325,0.0,3.7147,0.0,0.0,0.0,0.0,0.0,0.0,0.0,0.0,3.4431,3.2889,0.0,0.0,0.0,0.0,0.0,0.0,0.0,0.0,0.0,3.7113,3.9803,0.0,0.0,0.0,0.0,4.4691,4.5929,4.6783,4.7727,4.8771,4.8587,4.8651,4.9018,4.9018,4.9018,4.9018,4.9018,4.9018,4.9018,4.9018,4.9018,4.9086,5.0067,5.0777,5.1286,5.2334,5.3044,5.3518,5.3518,5.3518,5.3518,5.3518,5.3518,5.3518,5.3518,5.3518,5.3518,5.3518,5.3518,5.3518,5.3518,5.3518,5.3518,5.3518,5.3518,5.3518,5.3518,5.3687,5.4093,5.4837,5.5581,5.6325,5.7036,5.7577,5.7881,5.7881,5.7881,5.7712,5.7273,5.7577,5.7881,5.7881,5.7881,5.7881,5.7881,5.7881,5.7881,5.7881,5.8355,5.9099,6.0047,6.0385,6.1095,6.2347,6.2381,6.2381,6.2381,6.2381,6.2381,6.2381,6.2381,6.2381,6.2381,6.2381,6.2516]}]]